[[{"header":{"parameterUnit":"m.s-1","parameterCategory":1,"la1":30.6,"la2":29.2853,"lo1":-89.7004,"lo2":-87.6739,"dy":0.0162,"dx":0.0183,"nx":112,"ny":82,"refTime":"2026-05-17T00:00:00:Z","depth":0,"parameterNumber":2,"parameterNumberName":"U-component_of_WINDS"},"data":[0.0,0.0,0.0,0.0,0.0,0.0,0.0,0.0,0.0,0.0,0.0,0.0,0.0,0.0,0.0,0.0,0.0,0.0,0.0,0.0,0.0,0.0,0.0,0.0,0.0,0.0,0.0,0.0,0.0,0.0,0.0,0.0,0.0,0.0,0.0,0.0,0.0,0.0,0.0,0.0,0.0,0.0,0.0,0.0,0.0,0.0,0.0,0.0,0.0,0.0,0.0,0.0,0.0,0.0,0.0,0.0,0.0,0.0,0.0,0.0,0.0,0.0,0.0,0.0,0.0,0.0,0.0,0.0,0.0,0.0,0.0,0.0,0.0,0.0,0.0,0.0,0.0,0.0,0.0,0.0,0.0,0.0,0.0,0.0,0.0,0.0,0.0,0.0,0.0,0.0,-1.2759,-1.2855,-1.3755,-1.4326,-1.4308,-1.4672,-1.5059,-1.5477,0.0,0.0,0.0,0.0,0.0,0.0,0.0,0.0,0.0,0.0,0.0,0.0,0.0,0.0,0.0,0.0,0.0,0.0,0.0,0.0,0.0,0.0,0.0,0.0,0.0,0.0,0.0,0.0,0.0,0.0,0.0,0.0,0.0,0.0,0.0,0.0,0.0,0.0,0.0,0.0,0.0,0.0,0.0,0.0,0.0,0.0,0.0,0.0,0.0,0.0,0.0,0.0,0.0,0.0,0.0,0.0,0.0,0.0,0.0,0.0,0.0,0.0,0.0,0.0,0.0,0.0,0.0,0.0,0.0,0.0,0.0,0.0,0.0,0.0,0.0,0.0,0.0,0.0,0.0,0.0,0.0,0.0,0.0,0.0,0.0,0.0,0.0,0.0,0.0,0.0,0.0,0.0,0.0,0.0,0.0,0.0,0.0,0.0,0.0,0.0,0.0,0.0,0.0,0.0,-1.3432,-1.3611,-1.3894,-1.4,-1.3908,-1.4206,-1.4576,-1.4983,0.0,0.0,0.0,0.0,0.0,0.0,0.0,0.0,0.0,0.0,0.0,0.0,0.0,0.0,0.0,0.0,0.0,0.0,0.0,0.0,0.0,0.0,0.0,0.0,0.0,0.0,0.0,0.0,0.0,0.0,0.0,0.0,0.0,0.0,0.0,0.0,0.0,0.0,0.0,0.0,0.0,0.0,0.0,0.0,0.0,0.0,0.0,0.0,0.0,0.0,0.0,0.0,0.0,0.0,0.0,0.0,0.0,0.0,0.0,0.0,0.0,0.0,0.0,0.0,0.0,0.0,0.0,0.0,0.0,0.0,0.0,0.0,0.0,0.0,0.0,0.0,0.0,0.0,0.0,0.0,0.0,0.0,0.0,0.0,0.0,0.0,0.0,0.0,0.0,0.0,0.0,0.0,0.0,0.0,0.0,0.0,0.0,0.0,0.0,0.0,0.0,0.0,0.0,-1.3293,-1.3577,-1.3788,-1.3858,-1.3874,-1.3804,-1.3941,-1.4206,-1.4596,-1.3742,0.0,0.0,0.0,0.0,0.0,0.0,0.0,0.0,0.0,0.0,0.0,0.0,0.0,0.0,0.0,0.0,0.0,0.0,0.0,0.0,0.0,0.0,0.0,0.0,0.0,0.0,0.0,0.0,0.0,0.0,0.0,0.0,0.0,0.0,0.0,0.0,0.0,0.0,0.0,0.0,0.0,0.0,0.0,0.0,0.0,0.0,0.0,0.0,0.0,0.0,0.0,0.0,0.0,0.0,0.0,0.0,0.0,0.0,0.0,0.0,0.0,0.0,0.0,0.0,0.0,0.0,0.0,0.0,0.0,0.0,0.0,0.0,0.0,0.0,0.0,0.0,0.0,0.0,0.0,0.0,0.0,0.0,0.0,0.0,0.0,0.0,0.0,0.0,0.0,0.0,0.0,0.0,0.0,0.0,0.0,0.0,0.0,0.0,0.0,0.0,0.0,0.0,-1.348,-1.356,-1.3725,-1.3788,-1.3804,-1.3804,-1.3804,-1.396,-1.4356,-1.3383,0.0,0.0,0.0,0.0,0.0,0.0,0.0,0.0,0.0,0.0,0.0,0.0,0.0,0.0,0.0,0.0,0.0,0.0,0.0,0.0,0.0,0.0,0.0,0.0,0.0,0.0,0.0,0.0,0.0,0.0,0.0,0.0,0.0,0.0,0.0,0.0,0.0,0.0,0.0,0.0,0.0,0.0,0.0,0.0,0.0,0.0,0.0,0.0,0.0,0.0,0.0,0.0,0.0,0.0,0.0,0.0,0.0,0.0,0.0,0.0,0.0,0.0,0.0,0.0,0.0,0.0,0.0,0.0,0.0,0.0,0.0,0.0,0.0,0.0,0.0,0.0,0.0,0.0,0.0,0.0,0.0,0.0,0.0,0.0,0.0,0.0,0.0,0.0,0.0,0.0,0.0,0.0,0.0,0.0,0.0,0.0,0.0,0.0,0.0,0.0,0.0,0.0,-1.3459,-1.3531,-1.3615,-1.3725,-1.3804,-1.3804,-1.3804,-1.3941,-1.43,-1.3191,0.0,0.0,0.0,0.0,0.0,0.0,0.0,0.0,0.0,0.0,0.0,0.0,0.0,0.0,0.0,0.0,0.0,0.0,0.0,0.0,0.0,0.0,0.0,0.0,0.0,0.0,0.0,0.0,0.0,0.0,0.0,0.0,0.0,0.0,0.0,0.0,0.0,0.0,0.0,0.0,0.0,0.0,0.0,0.0,0.0,0.0,0.0,0.0,0.0,0.0,0.0,0.0,0.0,0.0,0.0,0.0,0.0,0.0,0.0,0.0,0.0,0.0,0.0,0.0,0.0,0.0,0.0,0.0,0.0,0.0,0.0,0.0,0.0,0.0,0.0,0.0,0.0,0.0,0.0,0.0,0.0,0.0,0.0,0.0,0.0,0.0,0.0,0.0,0.0,0.0,0.0,0.0,0.0,0.0,0.0,0.0,0.0,0.0,0.0,0.0,0.0,0.0,-1.3459,-1.3531,-1.3598,-1.3725,-1.3804,-1.3804,-1.3804,-1.3854,-1.3974,0.0,0.0,0.0,0.0,0.0,0.0,0.0,0.0,0.0,0.0,0.0,0.0,0.0,0.0,0.0,0.0,0.0,0.0,0.0,0.0,0.0,0.0,0.0,0.0,0.0,0.0,0.0,0.0,0.0,0.0,0.0,0.0,0.0,0.0,0.0,0.0,0.0,0.0,0.0,0.0,0.0,0.0,0.0,0.0,0.0,0.0,0.0,0.0,0.0,0.0,0.0,0.0,0.0,0.0,0.0,0.0,0.0,0.0,0.0,0.0,0.0,0.0,0.0,0.0,0.0,0.0,0.0,0.0,0.0,0.0,0.0,0.0,0.0,0.0,0.0,0.0,0.0,0.0,0.0,0.0,0.0,0.0,0.0,0.0,0.0,0.0,0.0,0.0,0.0,0.0,0.0,0.0,0.0,0.0,0.0,0.0,0.0,0.0,0.0,0.0,0.0,0.0,-1.32,-1.344,-1.3512,-1.3527,-1.3661,-1.3741,-1.3741,-1.3788,-1.3726,-1.353,0.0,0.0,0.0,0.0,0.0,0.0,0.0,0.0,0.0,0.0,0.0,0.0,0.0,0.0,0.0,0.0,0.0,0.0,0.0,0.0,0.0,0.0,0.0,0.0,0.0,0.0,0.0,0.0,0.0,0.0,0.0,0.0,0.0,0.0,0.0,0.0,0.0,0.0,0.0,0.0,0.0,0.0,0.0,0.0,0.0,0.0,0.0,0.0,0.0,0.0,0.0,0.0,0.0,0.0,0.0,0.0,0.0,0.0,0.0,0.0,0.0,0.0,0.0,0.0,0.0,0.0,0.0,0.0,0.0,0.0,0.0,0.0,0.0,0.0,0.0,0.0,0.0,0.0,0.0,0.0,0.0,0.0,0.0,0.0,0.0,0.0,0.0,0.0,0.0,0.0,0.0,0.0,0.0,0.0,0.0,0.0,0.0,0.0,0.0,0.0,0.0,0.0,-1.3112,-1.338,-1.3484,-1.3403,-1.351,-1.3598,-1.3598,-1.3711,-1.3526,0.0,0.0,0.0,0.0,0.0,0.0,0.0,0.0,0.0,0.0,0.0,0.0,0.0,0.0,0.0,0.0,0.0,0.0,0.0,0.0,0.0,0.0,0.0,0.0,0.0,0.0,0.0,0.0,0.0,0.0,0.0,0.0,0.0,0.0,0.0,0.0,0.0,0.0,0.0,0.0,0.0,0.0,0.0,0.0,0.0,0.0,0.0,0.0,0.0,0.0,0.0,0.0,0.0,0.0,0.0,0.0,0.0,0.0,0.0,0.0,0.0,0.0,0.0,0.0,0.0,0.0,0.0,0.0,0.0,0.0,0.0,0.0,0.0,0.0,0.0,0.0,0.0,0.0,0.0,0.0,0.0,0.0,0.0,0.0,0.0,0.0,0.0,0.0,0.0,0.0,0.0,0.0,0.0,0.0,0.0,0.0,0.0,0.0,0.0,0.0,0.0,0.0,0.0,-1.2691,-1.2884,-1.2964,-1.3048,-1.2836,-1.2789,-1.3084,-1.3135,-1.307,-1.2838,0.0,0.0,0.0,0.0,0.0,0.0,0.0,0.0,0.0,0.0,0.0,0.0,0.0,0.0,0.0,0.0,0.0,0.0,0.0,0.0,0.0,0.0,0.0,0.0,0.0,0.0,0.0,0.0,0.0,0.0,0.0,0.0,0.0,0.0,0.0,0.0,0.0,0.0,0.0,0.0,0.0,0.0,0.0,0.0,0.0,0.0,0.0,0.0,0.0,0.0,0.0,0.0,0.0,0.0,0.0,0.0,0.0,0.0,0.0,0.0,0.0,0.0,0.0,0.0,0.0,0.0,0.0,0.0,0.0,0.0,0.0,0.0,0.0,0.0,0.0,0.0,0.0,0.0,0.0,0.0,0.0,0.0,0.0,0.0,0.0,0.0,0.0,0.0,0.0,0.0,0.0,0.0,0.0,0.0,0.0,0.0,0.0,0.0,0.0,0.0,0.0,0.0,-1.2471,-1.2758,-1.2899,-1.2792,-1.2642,-1.262,-1.2843,-1.2876,-1.2842,-1.2727,0.0,0.0,0.0,0.0,0.0,0.0,0.0,0.0,0.0,0.0,0.0,0.0,0.0,0.0,0.0,0.0,0.0,0.0,0.0,0.0,0.0,0.0,0.0,0.0,0.0,0.0,0.0,0.0,0.0,0.0,0.0,0.0,0.0,0.0,0.0,0.0,0.0,0.0,0.0,0.0,0.0,0.0,0.0,0.0,0.0,0.0,0.0,0.0,0.0,0.0,0.0,0.0,0.0,0.0,0.0,0.0,0.0,0.0,0.0,0.0,0.0,0.0,0.0,0.0,0.0,0.0,0.0,0.0,0.0,0.0,0.0,0.0,0.0,0.0,0.0,0.0,0.0,0.0,0.0,0.0,0.0,0.0,0.0,0.0,0.0,0.0,0.0,0.0,0.0,0.0,0.0,0.0,0.0,0.0,0.0,0.0,0.0,0.0,0.0,0.0,0.0,0.0,-1.2338,-1.2861,-1.3054,-1.2591,-1.2672,-1.2742,-1.268,-1.2749,-1.2694,-1.2529,0.0,0.0,0.0,0.0,0.0,0.0,0.0,0.0,0.0,0.0,0.0,0.0,0.0,0.0,0.0,0.0,0.0,0.0,0.0,0.0,0.0,0.0,0.0,0.0,0.0,0.0,0.0,0.0,0.0,0.0,0.0,0.0,0.0,0.0,0.0,0.0,0.0,0.0,0.0,0.0,0.0,0.0,0.0,0.0,0.0,0.0,0.0,0.0,0.0,0.0,0.0,0.0,0.0,0.0,0.0,0.0,0.0,0.0,0.0,0.0,-1.7192,-1.675,0.0,0.0,0.0,0.0,0.0,0.0,0.0,0.0,0.0,0.0,0.0,0.0,0.0,0.0,0.0,0.0,0.0,0.0,0.0,0.0,0.0,0.0,0.0,0.0,0.0,0.0,0.0,0.0,0.0,0.0,0.0,0.0,0.0,0.0,0.0,0.0,0.0,0.0,0.0,0.0,-1.1897,-1.2319,-1.2485,-1.2225,-1.1912,-1.1732,-1.1771,-1.1781,-1.1872,-1.2045,-1.1948,0.0,0.0,0.0,0.0,0.0,0.0,0.0,0.0,0.0,0.0,0.0,0.0,0.0,0.0,0.0,0.0,0.0,0.0,0.0,0.0,0.0,0.0,0.0,0.0,0.0,0.0,0.0,0.0,0.0,0.0,0.0,0.0,0.0,0.0,0.0,0.0,0.0,0.0,0.0,0.0,0.0,0.0,0.0,0.0,0.0,0.0,0.0,0.0,0.0,0.0,0.0,0.0,0.0,0.0,0.0,0.0,0.0,0.0,0.0,-1.7805,-1.7606,0.0,0.0,0.0,0.0,0.0,0.0,0.0,0.0,0.0,0.0,0.0,0.0,0.0,0.0,0.0,0.0,0.0,0.0,0.0,0.0,0.0,0.0,0.0,0.0,0.0,0.0,0.0,0.0,0.0,0.0,0.0,0.0,0.0,0.0,0.0,0.0,0.0,0.0,0.0,0.0,-1.1967,-1.2437,-1.2616,-1.2292,-1.2095,-1.1984,-1.1992,-1.1774,-1.181,-1.2205,-1.1768,0.0,0.0,0.0,0.0,0.0,0.0,0.0,0.0,0.0,0.0,0.0,0.0,0.0,0.0,0.0,0.0,0.0,0.0,0.0,0.0,0.0,0.0,0.0,0.0,0.0,0.0,0.0,0.0,0.0,0.0,0.0,0.0,0.0,0.0,0.0,0.0,0.0,0.0,0.0,0.0,0.0,0.0,0.0,0.0,0.0,0.0,0.0,0.0,0.0,0.0,0.0,0.0,0.0,-1.7654,-1.7921,-1.8595,-1.8429,-1.8171,-1.788,-1.8334,-1.8323,-1.7958,-1.7427,0.0,0.0,0.0,0.0,0.0,0.0,0.0,0.0,0.0,0.0,0.0,0.0,0.0,0.0,0.0,0.0,0.0,0.0,0.0,0.0,0.0,0.0,-1.2807,-1.3823,-1.3408,-1.2665,-1.223,0.0,0.0,0.0,0.0,0.0,0.0,0.0,0.0,0.0,0.0,0.0,-1.2109,-1.2655,-1.2859,-1.2447,-1.243,-1.2392,-1.2278,-1.1848,-1.1803,-1.2321,-1.157,-1.1096,0.0,0.0,0.0,0.0,0.0,0.0,0.0,0.0,0.0,0.0,0.0,0.0,0.0,0.0,0.0,0.0,0.0,0.0,0.0,0.0,0.0,0.0,0.0,0.0,0.0,0.0,0.0,0.0,0.0,0.0,0.0,0.0,-1.4577,-1.5459,0.0,0.0,0.0,0.0,0.0,0.0,0.0,0.0,0.0,0.0,0.0,0.0,0.0,-1.6845,-1.6612,-1.7264,-1.7625,-1.7786,-1.8195,-1.8421,-1.8519,-1.9124,-1.9373,-1.9313,-1.9404,0.0,-1.7521,-1.6696,0.0,0.0,0.0,0.0,0.0,0.0,0.0,0.0,0.0,0.0,0.0,0.0,0.0,0.0,0.0,0.0,0.0,0.0,0.0,0.0,0.0,0.0,-1.3225,-1.3049,-1.2896,-1.2699,-1.2286,-1.2291,-1.2421,-1.2599,-1.2067,-1.1583,0.0,0.0,0.0,0.0,0.0,0.0,-1.2008,-1.2464,-1.2667,-1.2424,-1.2051,-1.1701,-1.1398,-1.0994,-1.0952,-1.137,-1.126,-1.1111,-1.0931,-1.0911,0.0,0.0,0.0,0.0,0.0,0.0,0.0,0.0,0.0,0.0,0.0,0.0,0.0,0.0,0.0,0.0,0.0,0.0,0.0,0.0,0.0,0.0,0.0,0.0,0.0,0.0,0.0,0.0,0.0,-1.4326,-1.4864,-1.5468,-1.5435,-1.5283,0.0,0.0,0.0,0.0,0.0,0.0,0.0,0.0,0.0,-1.6018,-1.6887,-1.72,-1.6878,-1.7387,-1.7981,-1.8638,-1.8405,-1.8525,-1.8929,-1.8826,-1.863,-1.8415,-1.8415,-1.8086,-1.7483,-1.7414,-1.7073,-1.6545,0.0,0.0,0.0,0.0,-1.5733,-1.549,-1.5342,-1.506,-1.4657,-1.4202,0.0,0.0,0.0,0.0,0.0,0.0,0.0,-1.3431,-1.3113,-1.3176,-1.3226,-1.2957,-1.2922,-1.2809,-1.2508,-1.2277,-1.2172,-1.2143,-1.1822,-1.1525,-1.1434,-1.1247,0.0,0.0,0.0,-1.1907,-1.2239,-1.2464,-1.256,-1.2474,-1.2351,-1.2106,-1.168,-1.1356,-1.1155,-1.1143,-1.0907,-1.0709,-1.0623,-1.0916,-1.0851,0.0,0.0,0.0,0.0,0.0,0.0,0.0,0.0,0.0,0.0,0.0,0.0,0.0,0.0,0.0,0.0,0.0,0.0,0.0,0.0,0.0,0.0,0.0,0.0,0.0,0.0,0.0,0.0,-1.4945,-1.5153,-1.5435,-1.5519,-1.5378,0.0,0.0,0.0,0.0,0.0,0.0,-1.6379,-1.6748,-1.6836,-1.6544,-1.7314,-1.7514,-1.7061,-1.7439,-1.8071,-1.8959,-1.8348,-1.8386,-1.895,-1.8348,-1.7925,-1.7632,-1.7632,-1.757,-1.7526,-1.7828,-1.7348,-1.6453,-1.6346,-1.6145,-1.591,-1.6034,-1.5896,-1.5601,-1.5713,-1.5414,-1.4921,-1.4453,-1.4135,-1.3835,-1.3284,0.0,0.0,0.0,0.0,-1.3667,-1.3479,-1.3333,-1.3263,-1.3146,-1.3048,-1.29,-1.2493,-1.2199,-1.1965,-1.1865,-1.1614,-1.1359,-1.1189,-1.1107,0.0,-1.1471,-1.1781,-1.2136,-1.2544,-1.2607,-1.2607,-1.2656,-1.254,-1.234,-1.1967,-1.1586,-1.1238,-1.0999,-1.0547,-1.0293,-1.0293,-1.0668,-1.0685,-1.0246,0.0,0.0,0.0,0.0,0.0,0.0,0.0,0.0,0.0,0.0,0.0,0.0,0.0,0.0,0.0,0.0,0.0,0.0,0.0,0.0,0.0,0.0,0.0,0.0,0.0,0.0,0.0,0.0,0.0,-1.5661,-1.5533,0.0,0.0,0.0,0.0,-1.6343,-1.7344,-1.7803,-1.7454,-1.7455,-1.727,-1.6891,-1.7286,-1.7484,-1.7493,-1.7792,-1.7989,-1.8046,-1.8006,-1.8046,-1.8046,-1.8006,-1.7997,-1.798,-1.798,-1.7775,-1.7458,-1.7127,-1.7025,-1.7092,-1.6741,-1.6735,-1.683,-1.6103,-1.5817,-1.5689,-1.5018,-1.4765,-1.4775,-1.506,-1.4931,-1.4579,-1.4167,-1.4039,0.0,0.0,-1.3747,-1.4079,-1.4064,-1.3759,-1.3476,-1.3476,-1.322,-1.2774,-1.2003,-1.1929,-1.2053,-1.2228,-1.1711,-1.1121,-1.0862,0.0,-1.1158,-1.104,-1.1849,-1.2556,-1.2842,-1.2868,-1.2929,-1.3058,-1.2347,-1.1851,-1.1799,-1.1098,-1.0636,-1.0637,-1.0248,-1.0019,-1.0019,-1.0039,-1.0215,-1.0571,-1.0085,0.0,0.0,0.0,0.0,0.0,0.0,0.0,0.0,0.0,0.0,0.0,0.0,0.0,0.0,0.0,0.0,0.0,0.0,0.0,0.0,0.0,0.0,0.0,0.0,0.0,0.0,0.0,0.0,-1.624,-1.642,0.0,-1.5933,-1.648,-1.6722,-1.6375,-1.6947,-1.7394,-1.7485,-1.7503,-1.7534,-1.7629,-1.7766,-1.7834,-1.7834,-1.7931,-1.8,-1.8,-1.8,-1.8,-1.8,-1.8,-1.8,-1.8,-1.8,-1.7923,-1.7817,-1.767,-1.7369,-1.6969,-1.6617,-1.6509,-1.6514,-1.6245,-1.6149,-1.6158,-1.5895,-1.5754,-1.5685,-1.5334,-1.4975,-1.4658,-1.4521,-1.4162,-1.3743,-1.3601,-1.3337,-1.3077,-1.3077,-1.3119,-1.3109,-1.2914,-1.2927,-1.2802,-1.2039,-1.1518,-1.1212,-1.1159,-1.1017,-1.0771,-1.0249,-1.0301,-1.0462,-1.0601,-1.0913,-1.1261,-1.1516,-1.1986,-1.2357,-1.2384,-1.245,-1.2389,-1.2084,-1.163,-1.1265,-1.1,-1.0849,-1.0773,-1.0773,-1.0773,-1.0715,-1.0592,-1.0337,-1.0118,0.0,0.0,0.0,0.0,0.0,0.0,0.0,0.0,0.0,0.0,0.0,0.0,0.0,0.0,0.0,0.0,0.0,0.0,0.0,0.0,0.0,0.0,0.0,0.0,0.0,-1.5465,-1.5763,-1.6095,-1.6554,-1.6671,-1.6252,-1.6825,-1.7011,-1.6526,-1.6843,-1.7133,-1.7211,-1.7219,-1.7336,-1.7538,-1.7671,-1.7738,-1.7738,-1.8019,-1.8119,-1.8119,-1.8034,-1.7975,-1.7966,-1.7686,-1.7613,-1.7729,-1.7604,-1.7621,-1.7729,-1.7596,-1.7263,-1.6818,-1.6626,-1.6482,-1.6351,-1.6308,-1.6422,-1.6524,-1.6286,-1.6136,-1.5943,-1.5371,-1.5022,-1.4813,-1.4688,-1.4247,-1.3762,-1.3516,-1.3082,-1.2656,-1.2492,-1.2515,-1.2484,-1.2078,-1.2063,-1.1992,-1.1365,-1.0832,-1.0387,-0.9968,-1.0048,-1.0053,-0.955,-0.9623,-0.9778,-0.9899,-1.019,-1.0476,-1.0695,-1.1198,-1.155,-1.1643,-1.1821,-1.1902,-1.1855,-1.1396,-1.1159,-1.1231,-1.1028,-1.0957,-1.1088,-1.0966,-1.076,-1.0501,-1.0366,-1.0182,-0.9961,0.0,0.0,0.0,0.0,0.0,0.0,0.0,0.0,0.0,0.0,0.0,0.0,0.0,0.0,0.0,0.0,0.0,0.0,0.0,0.0,0.0,0.0,0.0,-1.4692,-1.5069,-1.5309,-1.5254,-1.5869,-1.6165,-1.5758,-1.6788,-1.7288,-1.6847,-1.7145,-1.7196,-1.6754,-1.6713,-1.6713,-1.6713,-1.7054,-1.7194,-1.722,-1.7983,-1.837,-1.8362,-1.8051,-1.7878,-1.787,-1.7078,-1.6911,-1.722,-1.6871,-1.6919,-1.7212,-1.6871,-1.6713,-1.6707,-1.684,-1.6706,-1.6468,-1.634,-1.6536,-1.6771,-1.6071,-1.5721,-1.5565,-1.5225,-1.5115,-1.5043,-1.4724,-1.4418,-1.4066,-1.3323,-1.31,-1.2956,-1.2394,-1.2026,-1.1655,-1.1125,-1.0759,-1.0421,-1.0015,-0.9911,-0.9672,-0.8879,-0.8843,-0.8912,-0.8778,-0.8971,-0.9098,-0.8983,-0.9744,0.0,-1.0516,-1.057,-1.0666,-1.0931,-1.0398,-1.0363,-1.1126,-1.0344,-1.0219,-1.1205,-1.0654,-1.0477,-1.0893,-1.0545,-1.0334,-1.0346,-1.0179,-1.0222,-1.0499,0.0,0.0,0.0,0.0,0.0,0.0,0.0,0.0,0.0,0.0,0.0,0.0,0.0,0.0,0.0,0.0,0.0,0.0,0.0,0.0,0.0,-1.4085,-1.4656,-1.5072,-1.5602,-1.5962,-1.5923,-1.6332,-1.6533,-1.6429,-1.6718,-1.6871,-1.675,-1.6838,-1.6932,-1.7062,-1.7077,-1.7077,-1.7077,-1.7375,-1.7439,-1.7178,-1.7647,-1.7866,-1.7866,-1.7813,-1.7765,-1.7765,-1.754,-1.747,-1.7557,-1.7462,-1.747,-1.7549,-1.7454,-1.703,-1.6404,-1.6405,-1.6337,-1.6272,-1.6239,-1.6288,-1.6361,-1.6147,-1.5863,-1.5566,-1.551,-1.5478,-1.5407,-1.5051,-1.4558,-1.4041,-1.3599,-1.2887,-1.2191,-1.1703,-1.1516,-1.1349,-1.1018,-1.1028,-1.1074,-1.0713,-1.019,-0.9648,-0.9107,-0.8604,-0.8189,-0.7907,-0.7922,-0.8012,-0.8175,-0.8509,-0.883,-0.9055,-0.9725,-1.0187,-1.0272,-1.0537,-1.0816,-1.1055,-1.0554,-1.0343,-1.0627,-1.0298,-1.0425,-1.1226,-1.115,-1.1136,-1.1229,-1.0443,-1.0176,0.0,0.0,0.0,0.0,0.0,0.0,0.0,0.0,0.0,0.0,0.0,0.0,0.0,0.0,0.0,0.0,0.0,0.0,0.0,0.0,0.0,0.0,-1.4119,-1.4797,-1.5083,-1.5428,-1.571,-1.5848,-1.6203,-1.6513,-1.6654,-1.6786,-1.6891,-1.683,-1.6838,-1.6838,-1.686,-1.6868,-1.6868,-1.6868,-1.7205,-1.729,-1.709,-1.7606,-1.7866,-1.7866,-1.7718,-1.7648,-1.7648,-1.7324,-1.7244,-1.7374,-1.7236,-1.7251,-1.733,-1.7228,-1.6774,-1.6137,0.0,0.0,0.0,0.0,-1.6307,-1.613,-1.5982,-1.5745,-1.5477,-1.5332,-1.5233,-1.5096,-1.4751,-1.4167,-1.3534,-1.2947,-1.2316,-1.1635,-1.0811,-1.0586,-1.0455,-1.0013,-1.0046,-1.0113,-0.9921,-0.9568,-0.916,-0.8778,-0.8368,0.0,-0.7677,-0.7723,-0.7818,-0.788,-0.7976,-0.8027,-0.8068,-0.8599,-0.9002,-0.9181,-0.9464,-0.9792,-1.0206,-0.9924,0.0,0.0,0.0,-1.0337,-1.0859,-1.0893,0.0,0.0,0.0,0.0,0.0,-1.0462,0.0,0.0,-1.0425,-1.0417,0.0,0.0,0.0,0.0,0.0,0.0,0.0,0.0,0.0,0.0,0.0,0.0,0.0,0.0,0.0,0.0,-1.4338,-1.4915,-1.4951,-1.4958,-1.5061,-1.5352,-1.5793,-1.6179,-1.6483,-1.6877,-1.706,-1.6932,-1.6911,-1.6786,-1.6463,-1.647,0.0,0.0,0.0,-1.6939,-1.6903,-1.7634,-1.7986,-1.7986,-1.7736,-1.7591,-1.753,-1.6832,-1.6675,-1.6939,-1.6646,-1.669,-1.6925,-1.6602,-1.6221,-1.592,-1.6326,-1.636,-1.6252,-1.6451,-1.6327,-1.5966,-1.5663,0.0,0.0,-1.5053,-1.4809,-1.4555,-1.4187,-1.366,-1.2962,-1.204,-1.1723,-1.1362,-0.9991,-0.9634,-0.9425,-0.8701,-0.8554,-0.856,-0.8587,-0.8571,-0.849,-0.8301,-0.8272,-0.8155,-0.7914,-0.8017,-0.8072,-0.7869,-0.7864,-0.7773,-0.7522,-0.7494,-0.7633,-0.8008,-0.7839,0.0,-0.8963,-0.8823,-0.9065,-0.9897,-1.0037,-1.0121,-1.013,-1.0166,-1.0124,-1.0004,-0.9784,-0.9778,-0.9995,-0.9951,-0.9865,-0.9789,-1.0139,-1.013,0.0,0.0,0.0,0.0,0.0,0.0,0.0,0.0,0.0,0.0,0.0,0.0,0.0,0.0,0.0,-1.4433,-1.4783,-1.4995,-1.5258,-1.5294,-1.5316,-1.5382,-1.5707,-1.5976,-1.6042,-1.635,-1.6521,-1.65,-1.6507,-1.6618,-1.6793,-1.6807,-1.6807,-1.6807,-1.7069,-1.7113,-1.6903,-1.7265,-1.7466,-1.7466,-1.7407,0.0,-1.7331,-1.7218,-1.7179,-1.723,-1.7165,-1.7179,-1.7216,-1.6939,-1.647,-1.5884,-1.5715,-1.559,-1.559,-1.5631,-1.559,-1.5541,-1.5482,-1.5421,-1.5374,-1.5316,-1.525,-1.5141,-1.4812,-1.4494,0.0,-1.3067,-1.2435,-1.1703,-1.0337,-0.9802,-0.9471,-0.8936,-0.883,-0.8879,-0.9034,-0.8926,-0.8814,-0.8765,-0.8603,-0.8431,-0.8382,-0.8084,-0.7779,-0.754,-0.7643,-0.7639,-0.7371,-0.744,-0.7538,-0.7616,-0.7754,-0.7946,-0.8139,-0.8092,-0.8142,-0.8323,-0.9042,-0.9534,-0.9698,-0.9927,-1.004,-1.008,-0.9711,-0.9484,-0.9385,-0.9827,-0.9708,-0.9025,-0.9471,-0.9771,0.0,0.0,0.0,0.0,0.0,0.0,0.0,0.0,0.0,0.0,0.0,-1.2387,-1.3528,0.0,-1.4004,-1.4769,-1.5039,-1.5199,-1.5367,-1.5389,-1.5389,-1.5389,-1.5716,-1.5972,-1.6126,-1.647,-1.6727,-1.6835,-1.685,-1.6923,-1.7084,-1.7091,-1.7091,-1.7091,-1.7245,-1.7172,-1.6903,-1.7172,-1.7252,-1.7091,-1.7252,-1.7279,-1.7279,-1.7279,-1.7245,-1.7091,-1.7091,-1.6996,-1.6828,-1.6513,-1.6199,-1.587,-1.5338,-1.5148,-1.5126,-1.5006,-1.4948,-1.4948,-1.4948,-1.4948,-1.4977,-1.5097,-1.495,-1.4779,-1.486,-1.4281,-1.3435,-1.2581,-1.1777,-1.0852,-0.9581,-0.906,-0.8751,-0.8375,-0.8287,-0.8312,-0.8418,-0.8533,-0.8596,-0.8596,-0.8546,-0.8517,-0.8517,-0.8318,-0.8075,-0.7838,-0.789,-0.7817,-0.7405,-0.7411,-0.7444,-0.7403,-0.7526,-0.7626,-0.7703,-0.7817,-0.7971,-0.8098,-0.8539,-0.8847,-0.8944,-0.9078,-0.9168,-0.9182,-0.8949,-0.8763,-0.8658,-0.8984,-0.8929,-0.8499,-0.8545,-0.8727,0.0,0.0,0.0,0.0,0.0,0.0,0.0,-1.1716,-1.1892,-1.2972,-1.3038,-1.3236,-1.4355,-1.4599,-1.467,-1.4944,-1.5214,-1.5411,-1.5469,-1.5425,-1.5411,-1.5469,-1.5804,-1.6104,-1.6389,-1.6763,-1.7055,-1.7264,-1.7279,-1.7279,-1.7279,-1.7279,-1.7279,-1.7279,-1.7279,-1.7208,-1.6998,-1.7201,-1.7201,-1.6998,-1.7208,-1.7279,-1.7279,-1.7279,-1.7157,-1.6895,-1.6829,-1.6624,-1.6265,-1.5973,-1.5755,-1.558,-1.4957,-1.4649,-1.4609,-1.4459,-1.4426,-1.4348,-1.4184,-1.4145,-1.4141,-1.4231,-1.3975,-1.3698,-1.4154,-1.3398,-1.2273,-1.1564,-1.073,-0.982,-0.8712,-0.824,-0.8028,-0.7756,-0.7677,-0.7658,-0.77,-0.7947,-0.814,-0.8185,-0.8243,-0.8317,-0.8317,-0.8317,-0.8265,-0.8095,-0.8089,-0.7903,-0.7425,-0.7372,-0.7373,-0.7329,-0.7329,-0.7334,-0.7413,-0.7615,-0.7841,-0.8113,-0.813,-0.8124,-0.811,-0.8115,-0.8087,-0.7984,-0.7916,-0.7828,-0.7784,-0.7871,-0.7922,-0.7927,-0.7638,-0.7725,-1.2653,-1.2122,-1.1919,-1.1907,-1.1928,-1.2108,0.0,-1.3038,-1.3345,-1.3784,-1.4115,-1.4384,-1.4769,-1.4849,-1.4958,-1.5279,-1.5367,-1.5491,-1.5783,-1.5571,-1.5498,-1.5826,-1.6133,-1.6375,-1.6411,-1.6916,-1.7289,-1.7279,-1.7279,-1.7279,-1.7279,-1.7279,-1.7279,-1.7279,-1.7279,-1.7311,-1.7274,-1.7311,-1.7264,-1.7274,-1.7311,-1.7279,-1.7279,-1.7279,-1.7157,-1.6881,-1.6595,-1.625,-1.5922,-1.5713,-1.5275,-1.4681,-1.4125,-1.3783,-1.361,-1.4059,-1.4113,-1.3863,-1.3166,-1.2883,-1.2811,-1.208,-1.1937,-1.1975,-1.2046,-1.174,-1.1244,-1.0608,-1.0089,-0.9471,-0.8633,-0.824,-0.8028,-0.7756,-0.7598,-0.7579,-0.774,-0.7698,-0.765,-0.7812,-0.774,-0.7624,-0.7624,-0.7624,-0.7616,-0.7657,-0.7658,-0.7598,-0.7339,-0.7309,-0.7345,-0.7378,-0.7385,-0.7322,-0.716,-0.716,-0.728,-0.7501,-0.7488,-0.7493,-0.7488,-0.7498,-0.7288,-0.6802,-0.6949,-0.6924,-0.6678,-0.6855,-0.696,-0.6949,-0.71,-0.7477,-1.1834,-1.1615,-1.1657,-1.1657,-1.1808,-1.2061,-1.255,-1.2892,-1.3299,-1.3798,-1.4234,-1.4637,-1.4955,-1.5255,-1.5447,-1.5396,-1.5542,-1.5717,-1.5899,-1.5593,-1.5506,-1.5877,-1.6023,-1.6177,-1.6397,-1.6784,-1.7128,-1.7311,-1.7279,-1.7279,-1.7279,-1.7157,-1.7135,-1.7279,-1.715,-1.7055,-1.7055,-1.7238,-1.723,-1.7055,-1.7245,-1.7279,-1.7279,-1.7279,-1.6963,-1.6326,-1.5864,-1.549,-1.5177,-1.4957,-1.4689,-1.4358,-1.3786,-1.3435,-1.3241,-1.3381,-1.3096,-1.2558,-1.224,-1.1808,-1.1405,-1.1249,-1.1129,-1.1118,-1.1468,-1.098,-1.0277,-0.993,-0.9316,-0.8604,-0.8034,-0.7677,-0.7425,-0.7311,-0.7151,-0.7068,-0.7155,-0.7234,-0.7362,-0.7419,-0.7469,-0.7489,-0.7489,-0.7489,-0.7428,-0.7223,-0.7402,-0.7448,-0.7199,-0.717,-0.7158,-0.7067,-0.6957,-0.6837,-0.6771,-0.6641,-0.6606,-0.6701,-0.6706,-0.669,-0.6695,-0.67,-0.6599,-0.6373,-0.6549,-0.6615,-0.6501,-0.6831,-0.6991,-0.6969,-0.6985,-0.7126,-1.1209,-1.1283,-1.1514,-1.1514,-1.1774,-1.2082,-1.2347,-1.2809,-1.3278,-1.3726,-1.4252,-1.4687,-1.4956,-1.536,-1.5646,-1.5458,-1.5717,-1.59,-1.5901,-1.5682,-1.5608,-1.5798,-1.5747,-1.5813,-1.617,-1.6616,-1.7027,-1.7257,-1.7279,-1.7279,-1.7279,-1.7026,-1.7005,-1.7186,-1.702,-1.6903,-1.6903,-1.7125,-1.713,-1.695,-1.7037,-1.7099,-1.7091,-1.6911,-1.6495,-1.5859,-1.5276,-1.4873,-1.4678,-1.4413,-1.4274,-1.4156,-1.3639,-1.3285,-1.303,-1.2923,-1.2297,-1.1521,-1.1292,-1.0683,-0.9997,-1.0012,-0.9958,-0.9925,-1.033,-0.987,-0.9163,-0.905,-0.8515,-0.7872,-0.7561,-0.7257,-0.6988,-0.6988,-0.6816,-0.6619,-0.6619,-0.6819,-0.6979,-0.6979,-0.7101,-0.7199,-0.7199,-0.7199,-0.7101,-0.6815,-0.7003,-0.7149,-0.7067,-0.7061,-0.7035,-0.689,-0.6718,-0.6591,-0.6591,-0.645,-0.636,-0.636,-0.636,-0.6332,-0.6244,-0.6216,-0.6188,-0.6132,-0.6253,-0.6352,-0.6407,-0.6696,-0.6867,-0.6894,-0.6815,-0.6749,-1.1021,-1.1244,-1.1514,-1.1514,-1.1935,-1.2389,-1.2396,-1.31,-1.3796,-1.3817,-1.43,-1.4685,-1.4692,-1.4922,-1.5246,-1.5548,-1.5777,-1.5937,-1.597,-1.5922,-1.582,-1.5605,-1.5332,-1.5275,-1.5591,-1.6402,-1.7027,-1.7257,-1.7279,-1.7279,-1.7279,-1.7026,-1.6903,-1.6917,-1.6903,-1.6903,-1.6903,-1.6954,-1.7019,-1.7012,-1.673,-1.6629,-1.6615,-1.6011,-1.573,-1.5674,-1.5007,-1.4692,-1.4692,-1.4468,-1.4255,-1.3994,-1.3702,-1.326,-1.2822,-1.2815,-1.2093,-1.0999,-1.0233,-0.941,-0.8627,-0.7872,-0.7727,-0.788,-0.7923,-0.788,-0.784,-0.784,-0.7704,-0.7522,-0.7522,-0.7257,-0.6988,-0.6988,-0.6684,-0.6395,-0.6395,-0.6428,-0.6424,-0.6424,-0.642,-0.6416,-0.6416,-0.6416,-0.6416,-0.642,-0.6416,-0.6548,-0.6872,-0.7026,-0.7086,-0.7082,-0.6904,-0.6782,-0.6782,-0.6777,-0.6773,-0.6773,-0.6773,-0.6623,-0.6323,-0.6289,-0.6173,-0.5902,-0.5906,-0.6022,-0.6222,-0.6234,-0.6301,-0.6412,-0.6416,-0.642,-1.1004,-1.137,-1.1784,-1.1784,-1.2041,-1.2387,-1.2628,-1.3031,-1.3452,-1.3615,-1.4125,-1.4482,-1.4482,-1.4866,-1.5212,-1.5318,-1.5559,-1.5773,-1.5791,-1.5573,-1.5425,-1.5332,-1.5057,-1.4993,-1.5304,-1.561,-1.5995,-1.6515,-1.6551,-1.6504,-1.6558,-1.6259,-1.6088,-1.6088,-1.6088,-1.6188,-1.6447,-1.6621,-1.673,-1.673,-1.6636,-1.6523,-1.632,-1.5899,-1.5508,-1.5154,-1.4703,-1.4447,-1.4272,-1.3992,-1.381,-1.3702,-1.3427,-1.3106,-1.2784,-1.2784,-1.1752,-1.0276,-1.0008,-0.9031,-0.7863,-0.7599,-0.7563,-0.7616,-0.7616,-0.7616,-0.7616,-0.7616,-0.7571,-0.7484,-0.7484,-0.7257,-0.6988,-0.6988,-0.668,-0.6387,-0.6387,-0.6387,-0.6387,-0.6387,-0.6387,-0.6387,-0.6387,-0.6387,-0.6387,-0.6387,-0.6387,-0.6453,-0.6552,-0.6592,-0.6651,-0.6651,-0.6484,-0.64,-0.64,-0.6289,-0.619,-0.619,-0.619,-0.616,-0.6039,-0.6039,-0.5979,-0.5888,-0.5913,-0.5939,-0.5994,-0.6012,-0.6032,-0.6057,-0.6057,-0.6057,-1.1249,-1.1618,-1.1933,-1.2033,-1.2164,-1.2378,-1.2717,-1.3025,-1.3267,-1.3407,-1.3796,-1.4082,-1.398,-1.4413,-1.4824,-1.4935,-1.525,-1.5539,-1.5555,-1.5348,-1.5159,-1.508,-1.4906,-1.4865,-1.5059,-1.509,-1.5403,-1.6092,-1.6172,-1.6172,-1.6179,-1.5772,-1.5597,-1.5709,-1.5709,-1.5863,-1.6172,-1.6341,-1.64,-1.6298,-1.6298,-1.6202,-1.6049,-1.5635,-1.525,-1.4906,-1.4498,-1.4201,-1.4075,-1.3881,-1.376,-1.374,-1.3594,-1.3333,-1.3053,-1.2991,-1.1704,-1.0046,-0.9922,-0.8841,-0.7484,-0.7484,-0.7484,-0.7484,-0.7484,-0.7484,-0.7484,-0.7484,-0.7484,-0.7484,-0.7484,-0.7306,-0.7069,-0.7004,-0.6763,-0.6501,-0.6399,-0.6387,-0.6387,-0.6387,-0.6387,-0.6387,-0.6387,-0.6387,-0.6387,-0.6387,-0.6387,-0.6387,-0.6387,-0.6387,-0.6387,-0.6387,-0.6314,-0.6273,-0.6273,-0.614,-0.6079,-0.6079,-0.6079,-0.6079,-0.6079,-0.6044,-0.6013,-0.6013,-0.5934,-0.5892,-0.5896,-0.5905,-0.5888,-0.5888,-0.5888,-0.5888,-1.1759,-1.1926,-1.2013,-1.2238,-1.2305,-1.2378,-1.2717,-1.3012,-1.3193,-1.3206,-1.3387,-1.35,-1.326,-1.3641,-1.4097,-1.442,-1.4892,-1.5198,-1.5274,-1.5251,-1.5121,-1.4948,-1.4904,-1.4904,-1.4904,-1.4994,-1.5323,-1.6007,-1.6113,-1.6151,-1.613,-1.5539,-1.5313,-1.5637,-1.5672,-1.5826,-1.6074,-1.6161,-1.6028,-1.5784,-1.5784,-1.5771,-1.5744,-1.5217,-1.5001,-1.4955,-1.4349,-1.4102,-1.4088,-1.4102,-1.4102,-1.4088,-1.4088,-1.3908,-1.3567,-1.332,-1.1975,-1.0246,-0.9976,-0.8841,-0.7484,-0.7484,-0.7484,-0.7484,-0.7484,-0.7484,-0.7484,-0.7484,-0.7484,-0.7484,-0.7484,-0.7354,-0.7183,-0.7045,-0.6869,-0.666,-0.6485,-0.6444,-0.644,-0.6432,-0.6391,-0.6387,-0.6387,-0.6387,-0.6387,-0.6383,-0.6383,-0.6383,-0.6387,-0.6387,-0.6387,-0.6387,-0.6387,-0.6387,-0.6383,-0.6383,-0.6383,-0.6383,-0.6387,-0.6387,-0.6387,-0.6251,-0.6181,-0.6181,-0.5987,-0.5888,-0.5888,-0.5888,-0.5863,-0.587,-0.5863,-0.5866,-1.1919,-1.2228,-1.2522,-1.2338,-1.2305,-1.2378,-1.2717,-1.2844,-1.2971,-1.3166,-1.3267,-1.33,-1.3227,-1.3487,-1.389,-1.4408,-1.4825,-1.5129,-1.5329,-1.5354,-1.5271,-1.5017,-1.499,-1.499,-1.499,-1.5162,-1.5363,-1.5568,-1.5425,-1.5201,-1.4933,-1.5031,-1.496,-1.4811,-1.523,-1.5501,-1.5575,-1.5779,-1.5879,-1.5784,-1.5784,-1.5718,-1.5491,-1.513,-1.4843,-1.4623,-1.4476,-1.4282,-1.4108,-1.4322,-1.4282,-1.4088,-1.4088,-1.3908,-1.3567,-1.332,-1.1975,-1.0246,-0.9976,-0.8841,-0.7484,-0.7484,-0.7484,-0.7484,-0.7484,-0.7484,-0.7484,-0.7484,-0.7484,-0.7484,-0.7484,-0.7354,-0.7175,-0.7167,-0.7021,-0.691,-0.6861,-0.6849,-0.6812,-0.6635,-0.6505,-0.6387,-0.6387,-0.6387,-0.635,-0.628,-0.6247,-0.628,-0.6383,-0.6387,-0.6387,-0.6387,-0.6387,-0.635,-0.6247,-0.6247,-0.6181,-0.602,-0.602,-0.602,-0.602,-0.5987,-0.5987,-0.5987,-0.5785,-0.5683,-0.5683,-0.5591,-0.5587,-0.5665,-0.5584,-0.5647,-1.2398,-1.2505,-1.261,-1.2679,-1.2498,-1.2418,-1.2891,-1.2878,-1.2837,-1.2973,-1.3006,-1.2966,-1.2839,-1.312,-1.352,-1.3888,-1.4302,-1.4767,-1.515,-1.5097,-1.505,-1.5144,-1.5202,-1.5202,-1.5202,-1.5418,-1.5478,-1.5224,-1.5102,-1.4934,-1.4723,-1.475,-1.475,-1.4716,-1.5157,-1.5458,-1.5585,-1.5698,-1.5784,-1.5784,-1.5784,-1.5678,-1.5384,-1.5142,-1.4803,-1.4522,-1.4522,-1.4355,-1.4108,-1.4402,-1.4349,-1.4088,-1.4088,-1.3981,-1.3746,-1.2952,-1.1766,-1.0431,-0.9637,-0.8542,-0.7484,-0.7484,-0.7484,-0.7484,-0.7484,-0.7484,-0.7484,-0.7484,-0.7484,-0.7484,-0.7484,-0.7339,-0.7171,-0.7092,-0.6959,-0.6796,-0.6718,-0.6698,-0.6683,-0.6575,-0.637,-0.6218,-0.6284,-0.6251,-0.6152,-0.6083,-0.6083,-0.6083,-0.6185,-0.6185,-0.6185,-0.6185,-0.6185,-0.6152,-0.6083,-0.6083,-0.602,-0.5925,-0.5888,-0.5888,-0.5888,-0.5822,-0.5789,-0.5858,-0.5693,-0.5589,-0.5589,-0.5528,-0.5504,-0.5525,-0.5504,-0.5583,-1.2999,-1.2826,-1.2538,-1.3026,-1.2719,-1.2432,-1.2919,-1.2891,-1.2717,-1.2677,-1.2697,-1.263,-1.2298,-1.2739,-1.3166,-1.32,-1.3707,-1.4309,-1.4981,-1.4796,-1.4843,-1.5391,-1.5451,-1.5451,-1.5451,-1.5678,-1.5618,-1.5162,-1.5089,-1.5035,-1.4955,-1.4736,-1.4776,-1.5115,-1.5324,-1.5571,-1.5778,-1.5744,-1.5772,-1.5772,-1.5732,-1.5585,-1.5331,-1.5037,-1.4763,-1.4522,-1.4522,-1.4269,-1.3932,-1.4352,-1.4263,-1.3913,-1.4039,-1.4088,-1.3931,-1.2557,-1.1525,-1.0616,-0.9218,-0.8187,-0.7484,-0.7484,-0.7484,-0.7484,-0.7484,-0.7484,-0.7484,-0.7484,-0.7446,-0.7446,-0.7446,-0.7296,-0.7103,-0.6948,-0.6768,-0.6582,-0.6433,-0.6349,-0.6365,-0.6398,-0.615,-0.5988,-0.615,-0.6036,-0.5888,-0.5855,-0.5855,-0.5855,-0.5822,-0.5859,-0.5888,-0.5888,-0.5888,-0.5888,-0.5855,-0.5855,-0.5866,-0.5855,-0.5837,-0.5844,-0.5885,-0.5696,-0.5656,-0.5814,-0.5682,-0.5616,-0.5616,-0.5599,-0.5532,-0.5457,-0.5538,-0.5575,-1.3166,-1.3133,-1.3013,-1.2904,-1.2565,-1.2265,-1.2131,-1.2245,0.0,-1.2107,-1.2211,-1.2291,-1.2033,-1.2462,-1.2951,-1.3166,-1.3707,-1.4376,-1.5204,-1.5277,-1.5371,-1.5712,-1.5752,-1.5752,-1.5752,-1.5751,-1.5738,-1.5685,-1.5458,-1.511,-1.4623,-1.501,-1.5378,-1.5671,-1.5732,-1.5731,-1.5784,-1.5591,-1.5471,-1.5471,-1.5224,-1.5129,-1.5075,-1.4736,-1.4569,-1.4522,-1.4522,-1.3918,-1.3028,-1.4093,-1.3868,-1.3009,-1.3786,-1.4088,-1.3957,-1.2692,-1.1642,-1.0637,-0.9385,-0.8298,-0.7484,-0.7484,-0.7484,-0.7484,-0.7296,-0.7369,-0.7484,-0.7296,-0.7257,-0.7257,-0.7257,-0.7099,-0.6934,-0.6904,-0.6858,-0.6851,-0.6786,-0.6675,-0.6537,-0.6548,-0.6302,-0.6063,-0.6097,-0.5981,-0.5855,-0.5683,-0.565,-0.562,-0.5495,-0.5723,-0.5888,-0.5888,-0.5888,-0.5822,-0.565,-0.565,-0.5644,-0.5645,-0.5531,-0.5572,-0.5821,-0.5679,-0.5651,-0.5794,-0.5766,-0.5766,-0.5766,-0.5647,-0.5637,-0.5722,-0.5633,-0.5361,-1.3313,-1.3206,-1.3045,-1.3173,-1.2752,-1.2305,-1.2362,0.0,0.0,-1.2091,-1.2084,-1.2084,-1.2091,-1.2325,-1.265,-1.2958,-1.3246,-1.3795,-1.4796,-1.4937,-1.5164,-1.5711,-1.5784,-1.5784,-1.5784,-1.5784,-1.5718,-1.5618,-1.5618,-1.5431,-1.4997,-1.5244,-1.5531,-1.5771,-1.5784,-1.5784,-1.5784,-1.5538,-1.5398,-1.5391,-1.5149,-1.4928,-1.473,-1.4583,-1.4436,-1.4302,-1.4456,-1.409,-1.3459,-1.369,-1.3337,-1.2747,-1.3179,-1.3355,-1.3275,-1.2611,-1.1758,-1.0735,-0.9468,-0.8435,-0.7614,-0.7401,-0.7334,-0.7334,-0.7219,-0.718,-0.7173,-0.7061,-0.7061,-0.7061,-0.7061,-0.6907,-0.6753,-0.6753,-0.6676,-0.6602,-0.6602,-0.6439,-0.6328,-0.6436,-0.6172,-0.5983,-0.6092,-0.5954,-0.5803,-0.5623,-0.5609,-0.5548,-0.5405,-0.5528,-0.5627,-0.5627,-0.5627,-0.5591,-0.5488,-0.5488,-0.5524,-0.5579,-0.5556,-0.5576,-0.5793,-0.5735,-0.5769,-0.5918,-0.5922,-0.5922,-0.5922,-0.585,-0.5813,-0.58,-0.5813,-0.5672,-1.346,-1.3253,-1.2998,-1.3393,-1.2881,-1.2331,-1.2476,-1.2141,-1.1859,-1.1984,-1.1844,-1.1806,-1.2064,-1.2171,-1.2305,-1.2643,-1.2797,-1.328,-1.4362,-1.4576,-1.4917,-1.5684,-1.5784,-1.5784,-1.5784,-1.5784,-1.5684,-1.5504,-1.5698,-1.5732,-1.5504,-1.5491,-1.5591,-1.5771,-1.5784,-1.5784,-1.5784,-1.5478,-1.5304,-1.5297,-1.4988,-1.4649,-1.4429,-1.4429,-1.4302,-1.4102,-1.4329,-1.4167,-1.3756,-1.3238,-1.2756,-1.24,-1.2619,-1.2705,-1.2681,-1.2505,-1.1838,-1.0813,-0.9602,-0.856,-0.7701,-0.7328,-0.7184,-0.718,-0.7107,-0.6984,-0.6899,-0.6865,-0.6826,-0.6826,-0.6826,-0.6676,-0.6525,-0.6525,-0.6412,-0.63,-0.63,-0.6166,-0.6115,-0.6262,-0.6063,-0.5887,-0.6038,-0.5935,-0.5766,-0.565,-0.5637,-0.5593,-0.5504,-0.5491,-0.5477,-0.5446,-0.5416,-0.5409,-0.544,-0.5443,-0.5521,-0.5674,-0.5654,-0.5715,-0.5895,-0.5867,-0.5922,-0.6074,-0.6078,-0.6078,-0.6078,-0.601,-0.5932,-0.5854,-0.5936,-0.5803,-1.3513,-1.3407,-1.318,-1.3233,-1.2772,-1.2171,-1.1663,0.0,-1.1362,-1.1162,-1.1089,-1.1162,-1.1415,-1.173,-1.204,-1.2298,-1.2806,-1.3487,-1.4346,-1.475,-1.5144,-1.5711,-1.5784,-1.5784,-1.5784,-1.5784,-1.5771,-1.5792,-1.5764,-1.5771,-1.5744,-1.5744,-1.5751,-1.5784,-1.5784,-1.5784,-1.5784,-1.5284,-1.5048,-1.5042,-1.4479,-1.4155,-1.4128,-1.4128,-1.4115,-1.4088,-1.4115,-1.3636,-1.2833,-1.2772,-1.2209,-1.1499,-1.2363,-1.2705,-1.2699,-1.2674,-1.1953,-1.0835,-0.9764,-0.8638,-0.7657,-0.7328,-0.7184,-0.7142,-0.6756,-0.6753,-0.6865,-0.6676,-0.6637,-0.6637,-0.6637,-0.649,-0.6338,-0.6338,-0.63,-0.63,-0.63,-0.6289,-0.6279,-0.6276,-0.6115,-0.5973,-0.601,-0.5895,-0.5796,-0.5783,-0.5783,-0.5776,-0.5762,-0.5762,-0.5711,-0.5583,-0.5477,-0.545,-0.5555,-0.5569,-0.5688,-0.5936,-0.5861,-0.5911,-0.6245,-0.6084,-0.6081,-0.6276,-0.6279,-0.6279,-0.6279,-0.6098,-0.5986,-0.5973,-0.5986,-0.5202,-1.3313,-1.3387,-1.3387,-1.3253,-1.2752,-1.2198,-1.1784,-1.1557,-1.1443,-1.151,-1.1551,-1.161,-1.1897,-1.1904,-1.2,-1.2258,-1.2358,-1.2712,-1.3607,-1.3988,-1.4456,-1.5217,-1.5464,-1.5638,-1.5764,-1.5784,-1.5784,-1.5784,-1.5784,-1.5784,-1.5784,-1.5784,-1.5784,-1.5784,-1.5784,-1.5698,-1.5571,-1.5209,-1.4921,-1.4689,-1.4282,-1.4088,-1.4088,-1.4088,-1.4088,-1.4088,-1.4088,-1.387,-1.3483,-1.2918,-1.2143,-1.1327,-1.1714,-1.1843,-1.1929,-1.2491,-1.1983,-1.0921,-1.0356,-0.9009,-0.745,-0.7099,-0.6915,-0.6795,-0.6641,-0.6563,-0.6525,-0.6451,-0.6412,-0.6412,-0.6412,-0.6377,-0.63,-0.63,-0.63,-0.63,-0.63,-0.63,-0.63,-0.63,-0.6248,-0.6169,-0.6169,-0.6118,-0.6047,-0.5952,-0.5939,-0.5905,-0.5813,-0.58,-0.5779,-0.5725,-0.5661,-0.5616,-0.5593,-0.5667,-0.5806,-0.5979,-0.5936,-0.6037,-0.6289,-0.6242,-0.6238,-0.6296,-0.63,-0.63,-0.63,-0.6238,-0.6169,-0.6169,-0.5507,-0.4854,-1.3352,-1.3378,-1.3327,-1.3126,-1.2619,-1.2098,-1.1804,-1.1443,-1.1256,-1.1584,-1.1578,-1.1658,-1.2091,-1.1937,-1.1837,-1.2124,-1.2078,-1.2285,-1.3093,-1.354,-1.4068,-1.4914,-1.5189,-1.5384,-1.5671,-1.5731,-1.5784,-1.5784,-1.5784,-1.5784,-1.5784,-1.5784,-1.5784,-1.5784,-1.5784,-1.5732,-1.5524,-1.515,-1.4863,-1.4643,-1.4269,-1.4088,-1.4088,-1.4088,-1.4088,-1.4088,-1.4088,-1.4088,-1.4046,-1.3094,-1.2143,-1.1284,-1.1284,-1.1111,-1.0982,-1.188,-1.1526,-1.0537,-1.0278,-0.8985,-0.735,-0.6974,-0.6751,-0.6613,-0.6567,-0.6447,-0.63,-0.63,-0.63,-0.63,-0.63,-0.63,-0.63,-0.63,-0.63,-0.63,-0.63,-0.63,-0.63,-0.63,-0.63,-0.63,-0.63,-0.63,-0.6262,-0.6115,-0.6098,-0.6057,-0.5952,-0.5939,-0.5918,-0.5874,-0.5911,-0.5878,-0.5732,-0.5813,-0.5935,-0.6088,-0.6098,-0.6146,-0.6293,-0.63,-0.63,-0.63,-0.63,-0.63,-0.63,-0.63,-0.6141,-0.5825,-0.504,-0.4414,-1.3783,-1.3348,-1.279,-1.279,-1.2342,-1.1832,-1.1462,-1.0982,-1.068,-1.0942,-1.0807,-1.0874,-1.1745,-1.163,-1.1495,-1.1859,-1.2111,-1.2512,-1.3126,-1.3714,-1.4302,-1.4941,-1.5015,-1.5129,-1.5371,-1.5658,-1.5784,-1.5784,-1.5784,-1.5784,-1.5784,-1.5784,-1.5784,-1.5784,-1.5784,-1.5784,-1.5778,-1.5251,-1.5008,-1.4995,-1.4405,-1.4088,-1.4088,-1.4088,-1.4088,-1.4088,-1.4088,-1.4088,-1.4046,-1.3094,-1.2143,-1.1284,-1.1284,-1.0722,-0.9985,-1.0745,-1.0399,-0.9552,-0.9177,-0.8346,-0.745,-0.7126,-0.6861,-0.6668,-0.6555,-0.6412,-0.63,-0.63,-0.63,-0.63,-0.63,-0.63,-0.63,-0.63,-0.63,-0.63,-0.63,-0.63,-0.63,-0.63,-0.63,-0.63,-0.63,-0.63,-0.63,-0.6296,-0.6296,-0.6296,-0.6293,-0.6293,-0.6235,-0.6006,-0.6166,-0.6231,-0.6,-0.599,-0.6095,-0.6286,-0.6296,-0.6296,-0.63,-0.63,-0.63,-0.63,-0.63,-0.63,-0.63,-0.63,-0.5747,-0.4727,-0.4688,-0.3713,-1.42,-1.3918,-1.3424,-1.2968,-1.2205,-1.149,-1.1196,-1.1142,-1.1176,-1.1269,-1.1536,-1.1777,-1.1893,-1.1826,-1.1824,-1.2118,-1.2238,-1.2518,-1.3126,-1.3721,-1.4229,-1.4616,-1.519,-1.5591,-1.5685,-1.5724,-1.5784,-1.5784,-1.5784,-1.5784,-1.5784,-1.5784,-1.5784,-1.5784,-1.5784,-1.5638,-1.5244,-1.5102,-1.4807,-1.4362,-1.4175,-1.4088,-1.4088,-1.4088,-1.4088,-1.4088,-1.4088,-1.4088,-1.4088,-1.3786,-1.265,-1.1095,-1.1095,-1.0404,-0.9453,-0.9666,-0.9492,-0.9096,-0.8992,-0.8115,-0.707,-0.697,-0.6757,-0.6536,-0.6525,-0.6412,-0.63,-0.63,-0.63,-0.63,-0.63,-0.63,-0.63,-0.63,-0.63,-0.63,-0.63,-0.63,-0.63,-0.63,-0.63,-0.63,-0.63,-0.63,-0.63,-0.63,-0.63,-0.63,-0.63,-0.63,-0.6279,-0.6193,-0.6272,-0.6238,-0.6003,-0.6129,-0.6248,-0.6296,-0.63,-0.63,-0.63,-0.63,-0.63,-0.63,-0.63,-0.63,-0.63,-0.6099,-0.5118,-0.3402,-0.3402,-0.2387,-1.4527,-1.4089,-1.3545,-1.2871,-1.2161,-1.1511,-1.1102,-1.1049,-1.1162,-1.1342,-1.163,-1.1817,-1.1899,-1.1718,-1.1637,-1.1924,-1.1971,-1.2225,-1.2933,-1.3547,-1.4108,-1.4623,-1.5271,-1.5665,-1.5665,-1.5718,-1.5784,-1.5784,-1.5784,-1.5784,-1.5784,-1.5784,-1.5731,-1.5671,-1.5665,-1.5491,-1.513,-1.4955,-1.4609,-1.4249,-1.4142,-1.4088,-1.4088,-1.4088,-1.4088,-1.4088,-1.4088,-1.4088,0.0,-1.3603,-1.2473,-1.0956,-1.0486,-0.9666,-0.8715,-0.8588,-0.846,-0.8372,-0.8237,-0.769,-0.6964,-0.6964,-0.6803,-0.6549,-0.6528,-0.6412,-0.63,-0.63,-0.63,-0.63,-0.63,-0.63,-0.63,-0.63,-0.63,-0.63,-0.63,-0.63,-0.63,-0.63,-0.63,-0.63,-0.63,-0.63,-0.63,-0.63,-0.63,-0.63,-0.63,-0.63,-0.63,-0.63,-0.63,-0.6259,-0.6125,-0.6245,-0.63,-0.63,-0.63,-0.63,-0.63,-0.63,-0.6261,-0.6141,-0.6141,-0.6103,-0.6028,-0.5473,-0.4377,-0.2779,-0.2427,-0.145,0.0,-1.4032,-1.3281,-1.2639,-1.2219,-1.1804,-1.1192,-1.0846,0.0,-1.1316,-1.1229,-1.1229,-1.1832,-1.1457,-1.1136,-1.147,-1.1489,-1.1824,-1.273,-1.3347,-1.4055,-1.4968,-1.5264,-1.5431,-1.5431,-1.5671,-1.5771,-1.5751,-1.5751,-1.5744,-1.5718,-1.5718,-1.5645,-1.5378,-1.5344,-1.5337,-1.5337,-1.4796,-1.4509,-1.4489,-1.4215,-1.4088,-1.4088,-1.4088,-1.4088,-1.4088,-1.4088,-1.4088,-1.3997,-1.2808,-1.1772,-1.0869,-0.9666,-0.8632,-0.7808,-0.7547,-0.7462,-0.7415,-0.7187,-0.7095,-0.7095,-0.7085,-0.6896,-0.6688,-0.6536,-0.6422,-0.63,-0.63,-0.63,-0.63,-0.63,-0.63,-0.63,-0.63,-0.63,-0.63,-0.63,-0.63,-0.63,-0.63,-0.63,-0.63,-0.63,-0.63,-0.63,-0.63,-0.63,-0.63,-0.63,-0.63,-0.63,-0.63,-0.63,-0.63,-0.6261,-0.63,-0.63,-0.63,-0.63,-0.63,-0.6261,-0.6261,-0.6141,-0.5902,-0.5864,-0.5789,-0.5559,-0.4654,-0.3715,-0.2738,-0.184,-0.0902,-1.4541,0.0,-1.3825,-1.337,-1.243,-1.1568,0.0,-1.1302,-1.1263,-1.1362,0.0,-1.177,-1.2131,-1.1717,-1.1563,-1.2348,-1.2469,-1.271,-1.334,-1.4135,-1.4897,-1.5545,-1.5685,-1.5732,-1.5732,-1.5744,-1.5684,-1.5518,-1.5498,-1.5398,-1.5177,-1.5209,-1.5182,-1.5115,-1.4843,-1.4723,-1.4723,-1.4589,-1.4409,-1.4188,-1.4122,-1.4088,-1.4088,-1.4088,-1.4088,-1.4088,-1.4088,-1.4088,-1.3997,-1.2808,-1.1686,-1.0567,-0.941,-0.8277,-0.7275,-0.7231,-0.7187,-0.7187,-0.7139,-0.7095,-0.7078,-0.697,-0.6889,-0.6848,-0.6695,-0.6508,-0.63,-0.63,-0.63,-0.63,-0.63,-0.63,-0.63,-0.63,-0.63,-0.63,-0.63,-0.63,-0.63,-0.63,-0.63,-0.63,-0.63,-0.63,-0.63,-0.63,-0.63,-0.63,-0.63,-0.63,-0.63,-0.63,-0.63,-0.6219,-0.6018,-0.618,-0.63,-0.63,-0.63,-0.6219,-0.6018,-0.598,-0.5902,-0.5676,-0.5676,-0.5556,-0.5359,-0.5126,-0.4183,-0.2582,-0.2309,-0.141,-1.4222,-1.4394,-1.4431,-1.3903,-1.2985,-1.2138,-1.186,-1.1409,0.0,0.0,0.0,-1.143,-1.1817,-1.1608,-1.167,-1.2455,-1.2697,-1.3085,-1.388,-1.4689,-1.5331,-1.5724,-1.5784,-1.5784,-1.5784,-1.5784,-1.5712,-1.5418,-1.5398,-1.5331,-1.517,-1.5082,-1.5008,-1.5008,-1.4676,-1.4522,-1.4522,-1.4389,-1.4242,-1.4088,-1.4088,-1.4088,-1.4088,-1.4088,-1.4088,-1.4088,-1.4088,-1.4046,-1.3828,-1.265,-1.1477,-1.0356,-0.9192,-0.8061,-0.7095,-0.7095,-0.7095,-0.7095,-0.7095,-0.7095,-0.7085,-0.7007,-0.694,-0.6869,-0.6831,-0.6644,-0.6487,-0.6416,-0.6351,-0.63,-0.63,-0.63,-0.63,-0.63,-0.63,-0.63,-0.63,-0.63,-0.63,-0.63,-0.63,-0.63,-0.63,-0.63,-0.63,-0.63,-0.63,-0.63,-0.63,-0.63,-0.63,-0.63,-0.618,-0.606,-0.5902,-0.5944,-0.599,-0.599,-0.599,-0.5909,-0.575,-0.575,-0.5673,-0.5479,-0.5365,-0.5287,-0.5168,-0.5168,-0.4226,-0.2503,-0.2503,-0.1605,-1.3914,-1.4381,-1.4764,-1.4146,-1.3489,-1.278,-1.2149,0.0,0.0,0.0,0.0,0.0,-1.145,-1.1529,-1.1715,-1.2345,-1.2764,-1.3393,-1.4489,-1.5084,-1.5504,-1.5792,-1.5784,-1.5784,-1.5784,-1.5784,-1.5712,-1.5418,-1.5357,-1.5331,-1.5331,-1.505,-1.4961,-1.5008,-1.4716,-1.4589,-1.4589,-1.4255,-1.4088,-1.4088,-1.4088,-1.4088,-1.4088,-1.4088,-1.4088,-1.4088,-1.4088,-1.3955,-1.361,-1.2308,-1.1187,-1.0183,-0.8798,-0.7797,-0.7095,-0.7095,-0.7095,-0.7095,-0.7095,-0.7095,-0.7095,-0.7095,-0.7014,-0.6916,-0.6916,-0.6854,-0.6709,-0.6576,-0.646,-0.633,-0.633,-0.6317,-0.63,-0.63,-0.63,-0.63,-0.63,-0.63,-0.63,-0.63,-0.63,-0.63,-0.63,-0.63,-0.63,-0.63,-0.63,-0.63,-0.63,-0.63,-0.63,-0.6257,-0.6022,-0.586,-0.5822,-0.5634,-0.5559,-0.5521,-0.5559,-0.5598,-0.5559,-0.5521,-0.5443,-0.5246,-0.5093,-0.5018,-0.5018,-0.5018,-0.4151,-0.2503,-0.2503,-0.1605,-1.39,-1.4004,-1.399,-1.3673,-1.2861,-1.2059,-1.1677,-1.1258,0.0,0.0,0.0,0.0,0.0,-1.2164,-1.2365,-1.2973,-1.3527,-1.4202,-1.513,-1.5337,-1.5504,-1.5792,-1.5784,-1.5784,-1.5784,-1.5784,-1.5712,-1.5418,-1.517,-1.5075,-1.5075,-1.475,-1.4703,-1.5001,-1.4961,-1.4941,-1.4941,-1.4398,-1.4088,-1.4088,-1.4088,-1.4088,-1.4088,-1.4088,-1.4088,-1.4088,-1.4088,-1.3955,-1.3561,-1.1612,-1.0616,-1.0096,-0.8101,-0.7228,-0.7095,-0.7095,-0.7095,-0.7095,-0.7095,-0.7095,-0.7095,-0.7095,-0.7082,-0.7065,-0.7065,-0.6964,-0.6846,-0.6822,-0.6658,-0.648,-0.648,-0.6388,-0.63,-0.63,-0.63,-0.63,-0.63,-0.63,-0.63,-0.63,-0.63,-0.63,-0.63,-0.63,-0.63,-0.63,-0.63,-0.63,-0.63,-0.63,-0.6219,-0.598,-0.5941,-0.5744,-0.5437,-0.5359,-0.5285,-0.5093,-0.5404,-0.5521,-0.5359,-0.5168,-0.5093,-0.5054,-0.5015,-0.5018,-0.5018,-0.5018,-0.4151,-0.2503,-0.2503,-0.1605,-1.3115,-1.3292,-1.3428,-1.2837,-1.2601,-1.2504,-1.2358,-1.1739,0.0,0.0,0.0,0.0,0.0,-1.2572,-1.3093,-1.4008,-1.4516,-1.4937,-1.5337,-1.5531,-1.5678,-1.5764,-1.5784,-1.5784,-1.5784,-1.5784,-1.5712,-1.5418,-1.5277,-1.5197,-1.5197,-1.4923,-1.4897,-1.519,-1.5095,-1.5008,-1.5008,-1.4536,-1.4322,-1.4315,-1.4162,-1.4088,-1.4088,-1.4088,-1.4088,-1.4088,-1.4088,-1.361,-1.2705,-1.1746,-1.0534,-0.9231,-0.8233,-0.7533,-0.7095,-0.7095,-0.7095,-0.7095,-0.7095,-0.7095,-0.7095,-0.7095,-0.7095,-0.7095,-0.7095,-0.7051,-0.7001,-0.7001,-0.6766,-0.6511,-0.6511,-0.6405,-0.63,-0.63,-0.63,-0.63,-0.63,-0.63,-0.63,-0.63,-0.63,-0.63,-0.63,-0.63,-0.63,-0.63,-0.6364,-0.6416,-0.6416,-0.6297,-0.6179,-0.6057,-0.5752,-0.5515,-0.5321,-0.5207,-0.5093,-0.5018,-0.5171,-0.5249,-0.5129,-0.5054,-0.5018,-0.5018,-0.5018,-0.5018,-0.5018,-0.5018,-0.4151,-0.2503,-0.2503,-0.1605,-1.2791,-1.2802,-1.2812,-1.2248,-1.2419,-1.2762,-1.2733,-1.2047,-1.1429,-1.1568,-1.1683,-1.187,-1.2325,-1.2959,-1.3754,-1.4841,-1.5211,-1.5424,-1.5484,-1.5691,-1.5784,-1.5784,-1.5784,-1.5784,-1.5784,-1.5784,-1.5684,-1.5518,-1.5438,-1.5424,-1.5491,-1.5224,-1.5197,-1.5491,-1.5284,-1.5209,-1.5209,-1.481,-1.4589,-1.4516,-1.4222,-1.4088,-1.4088,-1.4088,-1.4088,-1.4088,-1.4046,-1.3222,-1.1972,-1.1709,-1.0361,-0.85,-0.8281,-0.7753,-0.7095,-0.7095,-0.7095,-0.7095,-0.7095,-0.7095,-0.7095,-0.7095,-0.7095,-0.7095,-0.7095,-0.7095,-0.7095,-0.7095,-0.6868,-0.658,-0.658,-0.6511,-0.6405,-0.6405,-0.6405,-0.6405,-0.6405,-0.6375,-0.6351,-0.6351,-0.6323,-0.631,-0.6344,-0.6351,-0.6361,-0.6399,-0.6497,-0.6525,-0.6448,-0.6327,-0.6168,-0.6087,-0.567,-0.5371,-0.5331,-0.5151,-0.5069,-0.5097,-0.5048,-0.5018,-0.5018,-0.5018,-0.5018,-0.5018,-0.5018,-0.5018,-0.5018,-0.5018,-0.4229,-0.2817,-0.2581,-0.1728,-1.3687,-1.287,-1.1965,-1.2274,-1.2218,-1.2056,-1.199,-1.1672,-1.1542,-1.2124,-1.2496,-1.2703,-1.2744,-1.3474,-1.4229,-1.4908,-1.5211,-1.5491,-1.5758,-1.5764,-1.5784,-1.5784,-1.5784,-1.5784,-1.5784,-1.5784,-1.5771,-1.5751,-1.5545,-1.5518,-1.5785,-1.5524,-1.5498,-1.5744,-1.5731,-1.5718,-1.5718,-1.5211,-1.4796,-1.4516,-1.4222,-1.4088,-1.4088,-1.4088,-1.4088,-1.4088,-1.3828,-1.3088,-1.1929,-1.088,-0.9666,-0.8412,-0.7536,-0.7139,-0.7095,-0.7095,-0.7095,-0.7095,-0.7095,-0.7095,-0.7095,-0.7095,-0.7095,-0.7095,-0.7095,-0.7095,-0.7095,-0.7095,-0.6977,-0.6852,-0.6852,-0.6783,-0.6668,-0.6668,-0.6668,-0.6668,-0.6668,-0.6556,-0.6497,-0.6497,-0.6388,-0.634,-0.6474,-0.6497,-0.6545,-0.6647,-0.6678,-0.6602,-0.6357,-0.6315,-0.615,-0.5779,-0.5687,-0.5596,-0.5427,-0.5281,-0.5222,-0.5377,-0.5137,-0.5018,-0.5018,-0.5018,-0.5018,-0.5018,-0.5018,-0.5018,-0.5018,-0.5018,-0.4543,-0.3675,-0.2893,-0.202,-1.2158,-1.2141,-1.2158,-1.1847,-1.2013,-1.2226,-1.2148,-1.2198,-1.2365,-1.2779,-1.2959,-1.3146,-1.3554,-1.4197,-1.4807,-1.517,-1.5478,-1.5705,-1.5764,-1.5784,-1.5784,-1.5784,-1.5784,-1.5784,-1.5784,-1.5784,-1.5784,-1.5784,-1.5732,-1.5712,-1.5771,-1.5678,-1.5718,-1.5778,-1.5784,-1.5745,-1.5565,-1.5164,-1.4816,-1.4516,-1.4222,-1.3786,-1.3222,-1.3222,-1.3222,-1.3222,-1.3009,-1.2223,-1.1095,-1.0529,-0.9226,-0.7577,-0.7228,-0.7095,-0.7095,-0.7095,-0.7095,-0.7095,-0.7095,-0.7095,-0.7095,-0.7095,-0.7095,-0.7095,-0.7095,-0.7095,-0.7095,-0.7095,-0.7058,-0.6997,-0.691,-0.6814,-0.6702,-0.6702,-0.6702,-0.6702,-0.6702,-0.6654,-0.6614,-0.6614,-0.6535,-0.648,-0.6586,-0.6536,-0.6566,-0.6678,-0.678,-0.6756,-0.6499,-0.6375,-0.6166,-0.5862,-0.5625,-0.5496,-0.541,-0.5369,-0.5328,-0.5298,-0.5105,-0.5048,-0.5121,-0.5056,-0.5018,-0.5018,-0.5018,-0.5018,-0.5018,-0.5018,-0.4307,-0.2973,-0.2661,-0.1769,-1.1455,-1.1624,-1.1957,-1.1753,-1.197,-1.2305,-1.2543,-1.2746,-1.3072,-1.3527,-1.3627,-1.3774,-1.4275,-1.474,-1.5102,-1.5351,-1.5645,-1.5784,-1.5784,-1.5784,-1.5784,-1.5784,-1.5784,-1.5784,-1.5784,-1.5784,-1.5784,-1.5784,-1.5784,-1.5784,-1.5784,-1.5784,-1.5784,-1.5784,-1.5738,-1.5598,-1.5398,-1.5017,-1.4723,-1.4472,-1.3923,-1.3307,-1.2705,-1.2705,-1.2485,-1.2137,-1.1929,-1.1144,-1.0053,-0.9836,-0.8707,-0.7095,-0.7095,-0.7095,-0.7095,-0.7095,-0.7095,-0.7095,-0.7095,-0.7095,-0.7095,-0.7095,-0.7095,-0.7095,-0.7095,-0.7095,-0.7095,-0.7095,-0.7095,-0.7071,-0.6977,-0.6876,-0.6841,-0.6841,-0.6841,-0.6841,-0.6841,-0.6803,-0.6773,-0.6773,-0.6651,-0.6593,-0.6746,-0.6685,-0.6668,-0.6736,-0.6804,-0.678,-0.6474,-0.63,-0.6129,-0.5866,-0.5617,-0.5485,-0.5485,-0.545,-0.5407,-0.536,-0.5214,-0.5129,-0.5132,-0.5059,-0.5034,-0.5069,-0.5034,-0.4896,-0.4646,-0.4616,-0.389,-0.2493,-0.2254,-0.1508,-1.2062,-1.1494,-1.1137,-1.213,-1.2137,-1.2147,-1.3013,-1.3213,-1.346,-1.4335,-1.4479,-1.4616,-1.4955,-1.5015,-1.5109,-1.5351,-1.5645,-1.5784,-1.5784,-1.5784,-1.5784,-1.5784,-1.5784,-1.5784,-1.5784,-1.5784,-1.5784,-1.5784,-1.5784,-1.5784,-1.5778,-1.5784,-1.5784,-1.5778,-1.5545,-1.5398,-1.5391,-1.481,-1.4522,-1.4466,-1.3261,-1.2705,-1.2705,-1.2662,-1.2046,-1.0956,-1.0717,-0.9937,-0.889,-0.8584,-0.7929,-0.7095,-0.7095,-0.7095,-0.7095,-0.7095,-0.7095,-0.7095,-0.7095,-0.7095,-0.7095,-0.7095,-0.7095,-0.7095,-0.7095,-0.7095,-0.7095,-0.7095,-0.7095,-0.7095,-0.7095,-0.7095,-0.7095,-0.7095,-0.7095,-0.7095,-0.7095,-0.6987,-0.6886,-0.6886,-0.6807,-0.6753,-0.6862,-0.6886,-0.6893,-0.6817,-0.6795,-0.6615,-0.6171,-0.6083,-0.5997,-0.5733,-0.5688,-0.5688,-0.5688,-0.5578,-0.5561,-0.568,-0.5504,-0.5265,-0.5031,-0.5021,-0.5072,-0.5186,-0.5078,-0.4651,-0.3899,-0.3844,-0.3365,-0.2474,-0.1664,-0.1316,-1.0793,-1.0843,-1.1142,-1.1875,-1.2299,-1.2703,-1.336,-1.3473,-1.3666,-1.4382,-1.4689,-1.4863,-1.4995,-1.513,-1.5297,-1.5384,-1.5645,-1.5784,-1.5784,-1.5784,-1.5784,-1.5784,-1.5784,-1.5784,-1.5784,-1.5784,-1.5784,-1.5784,-1.5784,-1.5738,-1.5538,-1.5718,-1.5684,-1.5531,-1.5438,-1.5297,-1.5142,-1.471,-1.4422,-1.4215,-1.3174,-1.2357,-1.1671,-1.0885,-1.0361,-1.0014,-0.9584,-0.9196,-0.8846,-0.7885,-0.736,-0.7095,-0.7095,-0.7095,-0.7095,-0.7095,-0.7095,-0.7095,-0.7095,-0.7095,-0.7095,-0.7095,-0.7095,-0.7095,-0.7095,-0.7095,-0.7095,-0.7095,-0.7095,-0.7095,-0.7095,-0.7095,-0.7095,-0.7095,-0.7095,-0.7095,-0.7095,-0.7061,-0.7034,-0.7034,-0.6916,-0.6866,-0.7007,-0.686,-0.6714,-0.6773,-0.6656,-0.6435,-0.6127,-0.5952,-0.5777,-0.5688,-0.5688,-0.5688,-0.5688,-0.5656,-0.5613,-0.5564,-0.5494,-0.5424,-0.5354,-0.5309,-0.5281,-0.5355,-0.5281,-0.4843,-0.3899,-0.3888,-0.3093,-0.1664,-0.1395,-0.0983,-1.0528,-1.0895,-1.1517,-1.2107,-1.2616,-1.3125,-1.3681,-1.3866,-1.4113,-1.4743,-1.4917,-1.5082,-1.5264,-1.5357,-1.5431,-1.5545,-1.5712,-1.5784,-1.5784,-1.5784,-1.5784,-1.5784,-1.5784,-1.5784,-1.5784,-1.5784,-1.5784,-1.5784,-1.5784,-1.5705,-1.5411,-1.5671,-1.5645,-1.5237,-1.5224,-1.5084,-1.479,-1.4141,-1.3692,-1.3525,-1.2229,-1.1235,-1.0582,-0.9932,-0.9279,-0.8759,-0.8364,-0.8189,-0.8145,-0.7401,-0.7095,-0.7095,-0.7095,-0.7095,-0.7095,-0.7095,-0.7095,-0.7095,-0.7095,-0.7095,-0.7095,-0.7095,-0.7095,-0.7095,-0.7095,-0.7095,-0.7095,-0.7095,-0.7095,-0.7095,-0.7095,-0.7095,-0.7095,-0.7095,-0.7095,-0.7095,-0.7095,-0.7095,-0.7095,-0.7095,-0.7028,-0.6997,-0.6997,-0.6809,-0.6649,-0.6558,-0.6305,-0.608,-0.5952,-0.5822,-0.5688,-0.5688,-0.5688,-0.5688,-0.5688,-0.5688,-0.5659,-0.5583,-0.558,-0.558,-0.558,-0.5461,-0.5432,-0.5439,-0.5396,-0.4781,-0.3488,-0.3468,-0.2529,-0.0767,-0.0778,-0.0522,-1.0915,-1.1477,-1.2087,-1.2677,-1.3079,-1.3434,-1.3968,-1.4295,-1.4649,-1.5237,-1.517,-1.517,-1.5732,-1.5611,-1.5524,-1.5738,-1.5784,-1.5784,-1.5784,-1.5784,-1.5784,-1.5784,-1.5784,-1.5784,-1.5784,-1.5784,-1.5784,-1.5784,-1.5758,-1.5665,-1.5371,-1.5605,-1.5498,-1.4988,-1.4968,-1.4796,-1.4479,-1.3317,-1.2705,-1.2662,-1.0809,-0.9763,-0.9579,-0.9492,-0.8719,-0.7459,-0.7187,-0.7095,-0.7095,-0.7095,-0.7095,-0.7095,-0.7095,-0.7095,-0.7095,-0.7095,-0.7095,-0.7095,-0.7095,-0.7095,-0.7095,-0.7095,-0.7095,-0.7095,-0.7095,-0.7095,-0.7095,-0.7095,-0.7095,-0.7095,-0.7095,-0.7095,-0.7095,-0.7095,-0.7095,-0.7095,-0.7095,-0.7095,-0.7095,-0.7095,-0.7095,-0.7054,-0.6836,-0.6795,-0.6615,-0.6127,-0.5863,-0.5688,-0.5688,-0.5688,-0.5688,-0.5688,-0.5688,-0.5688,-0.5688,-0.5688,-0.5688,-0.5688,-0.5688,-0.5688,-0.5688,-0.5521,-0.5455,-0.5521,-0.5373,-0.452,-0.2911,-0.267,-0.1708,0.0,0.0,0.0,-1.0915,-1.159,-1.2351,-1.2959,-1.3507,-1.3928,-1.4055,-1.4135,-1.4349,-1.4981,-1.519,-1.5411,-1.5718,-1.5731,-1.5711,-1.5771,-1.5784,-1.5784,-1.5784,-1.5784,-1.5784,-1.5784,-1.5784,-1.5784,-1.5784,-1.5784,-1.5784,-1.5784,-1.5618,-1.5364,-1.5115,-1.5162,-1.4983,-1.4629,-1.4616,-1.4583,-1.4522,-1.3317,-1.2705,-1.2662,-1.0809,-0.968,-0.9279,-0.8592,-0.7893,-0.7187,-0.7139,-0.7095,-0.7095,-0.7095,-0.7095,-0.7095,-0.7095,-0.7095,-0.7095,-0.7095,-0.7095,-0.7095,-0.7095,-0.7095,-0.7095,-0.7095,-0.7095,-0.7095,-0.7095,-0.7095,-0.7095,-0.7095,-0.7095,-0.7095,-0.7095,-0.7095,-0.7095,-0.7095,-0.7095,-0.7095,-0.7095,-0.7095,-0.7095,-0.7095,-0.7095,-0.7095,-0.7054,-0.6745,-0.6346,-0.5863,-0.5733,-0.5688,-0.5688,-0.5688,-0.5688,-0.5688,-0.5688,-0.5688,-0.5688,-0.5688,-0.5688,-0.5688,-0.5688,-0.5688,-0.5688,-0.564,-0.5623,-0.565,-0.4914,-0.3993,-0.2911,-0.2088,-0.1109,0.0,0.0,0.0,-1.129,-1.1986,-1.273,-1.344,-1.3861,-1.4088,-1.3955,-1.3997,-1.4206,-1.4563,-1.4941,-1.5317,-1.5752,-1.5784,-1.5784,-1.5784,-1.5784,-1.5784,-1.5784,-1.5784,-1.5784,-1.5784,-1.5784,-1.5784,-1.5784,-1.5784,-1.5772,-1.5631,-1.5484,-1.5204,-1.4776,-1.4928,-1.4807,-1.4322,-1.4449,-1.4456,-1.4315,-1.2771,-1.2015,-1.2015,-1.0024,-0.8851,-0.8368,-0.7804,-0.7363,-0.7095,-0.7095,-0.7095,-0.7095,-0.7095,-0.7095,-0.7095,-0.7095,-0.7095,-0.7095,-0.7095,-0.7095,-0.7095,-0.7095,-0.7095,-0.7095,-0.7095,-0.7095,-0.7095,-0.7095,-0.7095,-0.7095,-0.7095,-0.7095,-0.7095,-0.7095,-0.7095,-0.7095,-0.7095,-0.7095,-0.7095,-0.7095,-0.7095,-0.7095,-0.7095,-0.701,-0.6922,-0.6786,-0.639,-0.5994,-0.5733,-0.5688,-0.5688,-0.5688,-0.5688,-0.5688,-0.5688,-0.5688,-0.5688,-0.5688,-0.5688,-0.5688,-0.5688,-0.5688,-0.5688,-0.5688,-0.5688,-0.5688,-0.5688,-0.4792,-0.3851,-0.2911,-0.1883,-0.0897,0.0,0.0,0.0,-1.1598,-1.2335,-1.3072,-1.3833,-1.4046,-1.3955,-1.3695,-1.3822,-1.4035,-1.4155,-1.4591,-1.5098,-1.5583,-1.5689,-1.5689,-1.5689,-1.5689,-1.5689,-1.573,-1.5689,-1.5689,-1.5778,-1.5784,-1.5778,-1.5784,-1.5784,-1.5712,-1.5418,-1.5351,-1.509,-1.4549,-1.471,-1.4633,-1.4102,-1.4322,-1.4329,-1.4088,-1.2229,-1.1278,-1.1235,-0.9113,-0.7896,-0.7507,-0.7231,-0.7095,-0.7095,-0.7095,-0.7095,-0.7095,-0.7095,-0.7095,-0.7095,-0.7095,-0.7095,-0.7095,-0.7095,-0.7095,-0.7095,-0.7095,-0.7095,-0.7095,-0.7095,-0.7095,-0.7095,-0.7095,-0.7095,-0.7095,-0.7095,-0.7095,-0.7095,-0.7095,-0.7095,-0.7095,-0.7095,-0.7095,-0.7095,-0.7095,-0.7095,-0.7095,-0.7095,-0.6922,-0.6704,-0.6432,-0.6038,-0.5733,-0.5688,-0.5688,-0.5688,-0.5688,-0.5688,-0.5688,-0.5688,-0.5688,-0.5688,-0.5688,-0.5688,-0.5688,-0.5688,-0.5688,-0.5688,-0.5688,-0.5688,-0.5644,-0.5466,-0.4523,-0.3673,-0.2911,-0.1749,-0.0763,0.0,0.0,0.0,-1.1316,-1.2298,-1.3253,-1.3671,-1.3737,-1.3695,-1.3483,-1.3483,-1.3636,-1.4104,-1.445,-1.4767,-1.5117,-1.5178,-1.5178,-1.5178,-1.5178,-1.5267,-1.5493,-1.5363,-1.5315,-1.5737,-1.5635,-1.5588,-1.5784,-1.5784,-1.5712,-1.5418,-1.5164,-1.4877,-1.4536,-1.4322,-1.4168,-1.4088,-1.4122,-1.4128,-1.4088,-1.2229,-1.123,-1.1004,-0.8719,-0.7547,-0.7507,-0.7231,-0.7095,-0.7095,-0.7095,-0.7095,-0.7095,-0.7095,-0.7095,-0.7095,-0.7095,-0.7095,-0.7095,-0.7095,-0.7095,-0.7095,-0.7095,-0.7095,-0.7095,-0.7095,-0.7095,-0.7095,-0.7095,-0.7095,-0.7095,-0.7095,-0.7095,-0.7095,-0.7095,-0.7095,-0.7095,-0.7095,-0.7095,-0.7095,-0.7095,-0.7095,-0.7095,-0.7095,-0.6922,-0.6704,-0.6432,-0.6213,-0.5952,-0.5733,-0.5688,-0.5688,-0.5688,-0.5688,-0.5688,-0.5688,-0.5688,-0.5688,-0.5688,-0.5688,-0.5688,-0.5688,-0.5688,-0.5688,-0.5688,-0.5688,-0.5329,-0.4523,-0.3583,-0.3045,-0.2911,-0.1077,-0.0135,0.0,0.0,0.0,-1.167,-1.2313,-1.2903,-1.3554,-1.361,-1.3476,-1.3264,-1.3313,-1.3471,-1.3752,-1.4005,-1.437,-1.4981,-1.5083,-1.5083,-1.5083,-1.5083,-1.5131,-1.5267,-1.5172,-1.5178,-1.5363,-1.5315,-1.5315,-1.541,-1.5547,-1.545,-1.5002,-1.4985,-1.4807,-1.4302,-1.4028,-1.387,-1.387,-1.387,-1.387,-1.387,-1.2143,-1.0626,-0.924,-0.8069,-0.7415,-0.7279,-0.7143,-0.7095,-0.7095,-0.7095,-0.7095,-0.7095,-0.7095,-0.7095,-0.7095,-0.7095,-0.7095,-0.7095,-0.7095,-0.7095,-0.7095,-0.7095,-0.7095,-0.7095,-0.7095,-0.7095,-0.7095,-0.7095,-0.7095,-0.7095,-0.7095,-0.7095,-0.7095,-0.7095,-0.7095,-0.7095,-0.7095,-0.7095,-0.7095,-0.7095,-0.7095,-0.7051,-0.6966,-0.6745,-0.6523,-0.6257,-0.6038,-0.5822,-0.5733,-0.5742,-0.5828,-0.5828,-0.5888,-0.5904,-0.5836,-0.5828,-0.5803,-0.5694,-0.5688,-0.5688,-0.5688,-0.5688,-0.5688,-0.5688,-0.5688,-0.524,-0.43,-0.336,-0.2644,-0.2062,-0.0673,0.0,0.0,0.0,0.0,-1.1784,-1.2157,-1.2439,-1.3218,-1.3365,-1.3267,-1.3039,-1.3094,-1.3274,-1.3365,-1.3607,-1.3985,-1.465,-1.4841,-1.4885,-1.4885,-1.4885,-1.4933,-1.4987,-1.4933,-1.4939,-1.5083,-1.5035,-1.5035,-1.5083,-1.5267,-1.5163,-1.454,-1.4732,-1.4615,-1.3946,-1.3779,-1.3695,-1.3652,-1.3392,-1.3307,-1.3349,-1.1617,-0.9806,-0.79,-0.7547,-0.7279,-0.7095,-0.7095,-0.7095,-0.7095,-0.7095,-0.7095,-0.7095,-0.7095,-0.7095,-0.7095,-0.7095,-0.7095,-0.7095,-0.7095,-0.7095,-0.7095,-0.7095,-0.7095,-0.7095,-0.7095,-0.7095,-0.7095,-0.7095,-0.7095,-0.7095,-0.7095,-0.7095,-0.7095,-0.7095,-0.7095,-0.7105,-0.7146,-0.7156,-0.7142,-0.7105,-0.7095,-0.7064,-0.6885,-0.6621,-0.6406,-0.6217,-0.5955,-0.5822,-0.5822,-0.5896,-0.595,-0.595,-0.6029,-0.6051,-0.5958,-0.592,-0.5869,-0.5739,-0.5704,-0.5688,-0.5688,-0.5715,-0.5718,-0.5691,-0.5492,-0.4952,-0.3941,-0.3001,-0.2152,-0.1391,-0.0449,0.0,0.0,0.0,0.0,-1.1196,-1.169,-1.2022,-1.2472,-1.2806,-1.2991,-1.2778,-1.2747,-1.2832,-1.3085,-1.3344,-1.3598,-1.3922,-1.4176,-1.4346,-1.4346,-1.4346,-1.4442,-1.4688,-1.4496,-1.4544,-1.5035,-1.4885,-1.4838,-1.5083,-1.5131,-1.4888,-1.4263,-1.445,-1.4255,-1.3466,-1.361,-1.361,-1.3434,-1.2528,-1.2229,-1.2448,-1.0361,-0.8846,-0.79,-0.7363,-0.7095,-0.7095,-0.7095,-0.7095,-0.7095,-0.7095,-0.7095,-0.7095,-0.7095,-0.7095,-0.7095,-0.7095,-0.7095,-0.7095,-0.7095,-0.7095,-0.7095,-0.7095,-0.7095,-0.7095,-0.7095,-0.7095,-0.7095,-0.7095,-0.7095,-0.7095,-0.7095,-0.7095,-0.7095,-0.7095,-0.7095,-0.7132,-0.7326,-0.7405,-0.7319,-0.7129,-0.7095,-0.7094,-0.7018,-0.6767,-0.6526,-0.6415,-0.6206,-0.6067,-0.6067,-0.6072,-0.6075,-0.6075,-0.6081,-0.6083,-0.6078,-0.5972,-0.5899,-0.5893,-0.5795,-0.5688,-0.5688,-0.5836,-0.5847,-0.5694,-0.497,-0.4063,-0.3002,-0.1973,-0.1436,-0.1391,-0.0449,0.0,0.0,0.0,0.0,-1.1202,-1.14,-1.1514,-1.2082,-1.2389,-1.2497,-1.2438,-1.2584,-1.2783,-1.3023,-1.32,-1.3344,-1.3604,-1.4008,-1.4298,-1.4298,-1.4298,-1.4346,-1.4442,-1.4346,-1.4394,-1.4544,-1.4496,-1.449,-1.4592,-1.4742,-1.4606,-1.4055,-1.4231,-1.4071,-1.3423,-1.3355,-1.3009,-1.2314,-1.1972,-1.1408,-1.0626,-0.9666,-0.8759,-0.79,-0.7363,-0.7095,-0.7095,-0.7095,-0.7095,-0.7095,-0.7095,-0.7095,-0.7095,-0.7095,-0.7095,-0.7095,-0.7095,-0.7095,-0.7095,-0.7095,-0.7095,-0.7095,-0.7095,-0.7095,-0.7095,-0.7095,-0.7095,-0.7095,-0.7095,-0.7095,-0.7095,-0.7095,-0.7095,-0.7095,-0.7095,-0.7095,-0.7136,-0.7333,-0.7492,-0.7577,-0.7461,-0.7434,-0.7359,-0.7177,-0.6907,-0.6671,-0.6427,-0.6239,-0.6105,-0.6159,-0.6187,-0.6251,-0.6251,-0.6265,-0.6285,-0.6211,-0.6165,-0.6105,-0.6026,-0.5983,-0.5958,-0.5958,-0.5996,-0.6002,-0.5961,-0.4995,-0.3998,-0.2967,-0.194,-0.1122,-0.0494,-0.018,0.0,0.0,0.0,0.0,-1.0855,-1.0995,-1.122,-1.1908,-1.2113,-1.2195,-1.249,-1.2637,-1.2735,-1.2922,-1.3061,-1.3131,-1.335,-1.3743,-1.4032,-1.4032,-1.4111,-1.4165,-1.4165,-1.4244,-1.4298,-1.4298,-1.4298,-1.4298,-1.4298,-1.4442,-1.436,-1.3918,-1.4016,-1.3849,-1.3348,-1.315,-1.2485,-1.1144,-1.089,-1.0154,-0.889,-0.8719,-0.8328,-0.7768,-0.7319,-0.7095,-0.7095,-0.7095,-0.7095,-0.7095,-0.7095,-0.7095,-0.7095,-0.7095,-0.7095,-0.7095,-0.7095,-0.7095,-0.7095,-0.7095,-0.7095,-0.7095,-0.7095,-0.7095,-0.7095,-0.7095,-0.7095,-0.7095,-0.7095,-0.7095,-0.7095,-0.7095,-0.7095,-0.7109,-0.7204,-0.7247,-0.739,-0.7495,-0.7685,-0.7773,-0.776,-0.7672,-0.7516,-0.7184,-0.7003,-0.6762,-0.646,-0.6311,-0.6222,-0.6279,-0.6309,-0.6325,-0.6325,-0.6391,-0.6357,-0.6333,-0.629,-0.6284,-0.6154,-0.6111,-0.6086,-0.6086,-0.6124,-0.613,-0.6086,-0.5113,-0.4085,-0.3043,-0.1947,-0.0946,0.0,0.0,0.0,0.0,0.0,0.0,0.0,0.0,0.0,-1.1781,-1.1966,-1.2151,-1.2885,-1.2804,-1.2616,-1.2681,-1.291,-1.3103,-1.3109,-1.332,-1.3495,-1.3495,-1.3725,-1.3906,-1.3906,-1.4129,-1.4298,-1.4298,-1.4298,-1.4298,-1.4298,-1.4298,-1.4189,-1.3924,-1.3906,-1.3642,-1.3095,-1.2991,-1.2009,-0.9932,-0.9196,-0.8416,-0.7514,-0.7507,-0.7507,-0.7507,-0.7231,-0.7095,-0.7095,-0.7095,-0.7095,-0.7095,-0.7095,-0.7095,-0.7095,-0.7095,-0.7095,-0.7095,-0.7095,-0.7095,-0.7095,-0.7095,-0.7095,-0.7095,-0.7095,-0.7095,-0.7095,-0.7095,-0.7095,-0.7095,-0.7095,-0.7095,-0.7095,-0.7095,-0.7098,-0.7139,-0.7336,-0.7594,-0.7811,-0.7811,-0.788,-0.7988,-0.7988,-0.7814,-0.7513,-0.7076,-0.7006,-0.6896,-0.6468,-0.6387,-0.6387,-0.6387,-0.6387,-0.6387,-0.6387,-0.6387,-0.6387,-0.6387,-0.6339,-0.6322,-0.6322,-0.6165,-0.6094,-0.6094,-0.6208,-0.627,-0.6102,-0.5187,-0.4146,-0.3047,-0.1904,-0.0908,0.0,0.0,0.0,0.0,0.0,0.0,-1.0477,0.0,0.0,0.0,0.0,0.0,-1.1954,-1.2058,-1.2157,-1.2531,-1.2565,-1.2596,-1.2783,-1.288,-1.2928,-1.2928,-1.3477,-1.3906,-1.3906,-1.4129,-1.4298,-1.4298,-1.4298,-1.4298,-1.4298,-1.4298,-1.4189,-1.3924,-1.3886,-1.3364,-1.2148,-1.0616,-0.956,-0.9121,-0.8303,-0.7819,-0.7667,-0.756,-0.7507,-0.7507,-0.7231,-0.7095,-0.7095,-0.7095,-0.7095,-0.7095,-0.7095,-0.7095,-0.7095,-0.7095,-0.7095,-0.7095,-0.7095,-0.7095,-0.7095,-0.7095,-0.7095,-0.7095,-0.7095,-0.7095,-0.7095,-0.7095,-0.7095,-0.7095,-0.7095,-0.7095,-0.7095,-0.7095,-0.7221,-0.7343,-0.7495,-0.7675,-0.7811,-0.7811,-0.788,-0.7988,-0.7988,-0.7928,-0.7733,-0.7226,-0.7239,-0.7149,-0.6531,-0.6387,-0.6387,-0.6387,-0.6387,-0.6387,-0.6387,-0.6387,-0.6387,-0.6387,-0.6357,-0.6391,-0.6391,-0.6358,-0.6339,-0.6339,-0.6372,-0.6374,-0.6342,-0.4596,-0.3463,-0.316,-0.1315,-0.0282,0.0,0.0,0.0,0.0,0.0,0.0,-1.0807,0.0,0.0,-1.1114,0.0,0.0,-1.1863,-1.1954,-1.2031,-1.249,-1.2522,-1.2524,-1.2674,-1.2705,-1.2741,-1.2862,-1.3272,-1.3622,-1.3725,-1.3966,-1.4171,-1.4286,-1.4298,-1.4298,-1.4298,-1.4298,-1.4238,-1.4081,-1.3538,-1.2594,-1.1158,-0.9504,-0.8698,-0.8796,-0.7841,-0.7396,-0.7591,-0.7399,-0.7323,-0.7323,-0.7187,-0.7095,-0.7095,-0.7095,-0.7095,-0.7095,-0.7095,-0.7095,-0.7095,-0.7095,-0.7095,-0.7095,-0.7095,-0.7095,-0.7095,-0.7095,-0.7136,-0.7227,-0.7119,-0.7139,-0.7224,-0.7119,-0.7095,-0.7109,-0.7217,-0.7238,-0.7251,-0.7312,-0.7438,-0.7577,-0.7665,-0.7797,-0.7906,-0.7906,-0.7924,-0.7988,-0.7988,-0.7988,-0.7889,-0.7441,-0.7444,-0.7241,-0.6537,-0.6387,-0.6387,-0.6387,-0.6387,-0.6387,-0.6387,-0.6387,-0.6387,-0.6387,-0.6387,-0.6387,-0.6387,-0.6387,-0.6387,-0.6387,-0.6387,-0.6387,-0.6387,-0.4743,-0.365,-0.3225,-0.1481,-0.0381,0.0,0.0,0.0,0.0,0.0,0.0,-1.1118,-1.1004,0.0,-1.1725,-1.1623,0.0,-1.2133,-1.2145,-1.2125,-1.2488,-1.2599,-1.2626,-1.265,-1.2687,-1.2735,-1.2958,-1.3023,-1.3173,-1.3477,-1.3743,-1.3943,-1.4076,-1.4082,-1.41,-1.3956,-1.3956,-1.3956,-1.3956,-1.2707,-1.145,-1.0198,-0.9203,-0.8659,-0.8679,-0.7714,-0.7258,-0.7443,-0.7244,-0.7112,-0.7095,-0.7095,-0.7095,-0.7095,-0.7095,-0.7095,-0.7095,-0.7095,-0.7095,-0.7095,-0.7095,-0.7095,-0.7095,-0.7095,-0.7095,-0.7095,-0.7095,-0.7227,-0.7326,-0.7142,-0.7231,-0.7326,-0.7204,-0.7122,-0.7149,-0.735,-0.7443,-0.7428,-0.758,-0.7712,-0.7814,-0.7831,-0.7887,-0.7988,-0.7988,-0.7988,-0.7988,-0.7988,-0.7988,-0.7942,-0.7696,-0.7593,-0.7341,-0.6587,-0.6437,-0.6437,-0.6387,-0.6387,-0.6387,-0.6387,-0.6387,-0.6387,-0.6387,-0.6387,-0.6387,-0.6387,-0.6387,-0.6387,-0.6387,-0.6387,-0.6387,-0.6387,-0.5199,-0.4119,-0.3231,-0.1926,-0.0813,0.0,0.0,0.0,0.0,0.0,0.0,-1.182,-1.1539,-1.154,-1.1517,-1.1435,0.0,-1.158,-1.1657,-1.178,-1.2061,-1.2157,-1.222,-1.2277,-1.2451,-1.2502,-1.218,-1.2662,-1.3173,-1.3477,-1.3743,-1.359,-1.2778,-1.2859,-1.2684,-1.1901,-1.1804,-1.1804,-1.1804,-1.064,-0.9828,-0.9566,-0.8453,-0.7886,-0.8002,-0.7677,-0.7522,-0.7553,-0.7404,-0.7261,-0.7095,-0.7095,-0.7095,-0.7095,-0.7095,-0.7095,-0.7095,-0.7095,-0.7095,-0.7095,-0.7095,-0.7095,-0.7095,-0.7095,-0.7095,-0.7095,-0.7095,-0.7115,-0.7136,-0.7105,-0.7115,-0.72,-0.7295,-0.7326,-0.7356,-0.7509,-0.7556,-0.7587,-0.7729,-0.779,-0.7838,-0.7914,-0.7968,-0.7988,-0.7988,-0.7988,-0.7988,-0.7988,-0.7988,-0.7988,-0.7942,-0.7892,-0.764,-0.6842,-0.6795,-0.6792,-0.6437,-0.6387,-0.6387,-0.6387,-0.6387,-0.6387,-0.6387,-0.6387,-0.6387,-0.6387,-0.6387,-0.6387,-0.6387,-0.6387,-0.6387,-0.6387,-0.4512,-0.3381,-0.3182,-0.1269,-0.0197,0.0,0.0,0.0,0.0,0.0,0.0,-1.2624,-1.2137,-1.2033,-1.1859,-1.179,0.0,0.0,-1.1741,-1.1892,-1.2148,-1.2241,-1.2315,-1.2334,-1.2392,-1.2406,-1.2459,-1.2199,-1.2293,-1.3177,-1.3187,-1.2764,-1.1758,-1.1814,-1.1755,-1.1268,-1.1219,-1.0979,-1.044,-0.986,-0.9239,-0.8627,-0.8027,-0.7736,-0.7811,-0.76,-0.7522,-0.76,-0.737,-0.7217,-0.7095,-0.7095,-0.7095,-0.7095,-0.7095,-0.7095,-0.7095,-0.7095,-0.7095,-0.7095,-0.7095,-0.7095,-0.7095,-0.7095,-0.7095,-0.7105,-0.7227,-0.7302,-0.737,-0.737,-0.7414,-0.7475,-0.7482,-0.7485,-0.7512,-0.7658,-0.7756,-0.7834,-0.7902,-0.7877,-0.7894,-0.7971,-0.7988,-0.7988,-0.7988,-0.7988,-0.7988,-0.7988,-0.7988,-0.7988,-0.7988,-0.7988,-0.7889,-0.749,-0.7197,-0.6948,-0.6742,-0.6539,-0.6387,-0.6387,-0.6387,-0.6387,-0.6387,-0.6387,-0.6387,-0.6387,-0.6387,-0.6387,-0.6387,-0.6387,-0.6363,-0.6355,-0.4307,-0.2709,-0.1641,-0.0547,0.0,0.0,0.0,0.0,0.0,0.0,0.0,-1.3733,-1.3028,-1.2769,-1.249,-1.244,-1.2334,0.0,0.0,0.0,-1.2288,-1.2396,-1.2432,-1.24,-1.2326,-1.2369,-1.2709,-1.1927,-1.1584,-1.2459,-1.2305,-1.1817,-1.0965,-1.0861,-1.0773,-1.0578,-1.0542,-1.0165,-0.9357,-0.9253,-0.8796,-0.7907,-0.7828,-0.7811,-0.7811,-0.7553,-0.7461,-0.7553,-0.7309,-0.7125,-0.7095,-0.7095,-0.7095,-0.7095,-0.7095,-0.7095,-0.7095,-0.7095,-0.7095,-0.7095,-0.7095,-0.7095,-0.7095,-0.7095,-0.7095,-0.7112,-0.7282,-0.7424,-0.7556,-0.7556,-0.7648,-0.7756,-0.7668,-0.7658,-0.7706,-0.7821,-0.7891,-0.7988,-0.7988,-0.7988,-0.7988,-0.7988,-0.7988,-0.7988,-0.7988,-0.7988,-0.7988,-0.7988,-0.7988,-0.7988,-0.7988,-0.7988,-0.7988,-0.7942,-0.7444,-0.6998,-0.6948,-0.6639,-0.6387,-0.6387,-0.6387,-0.6387,-0.6387,-0.6387,-0.6387,-0.6387,-0.6387,-0.6387,-0.6387,-0.6387,-0.6396,-0.6306,-0.4296,-0.2167,-0.0051,0.0,0.0,0.0,0.0,0.0,0.0,0.0,0.0,-1.5469,-1.4597,-1.3884,-1.3402,-1.3257,-1.308,-1.2314,0.0,-1.2428,-1.2053,0.0,-1.2249,-1.21,0.0,0.0,-1.1929,-1.2303,-1.2202,-1.0903,-1.1166,-1.1198,-1.0381,-0.9865,-0.9224,-0.8267,-0.8101,-0.8041,-0.8166,-0.7938,-0.7852,-0.7951,-0.7885,-0.7811,-0.7811,-0.7655,-0.7516,-0.7443,-0.7363,-0.7275,-0.7095,-0.7095,-0.7095,-0.7095,-0.7095,-0.7095,-0.7095,-0.7095,-0.7095,-0.7095,-0.7095,-0.7095,-0.7095,-0.7095,-0.7095,-0.7098,-0.7115,-0.7265,-0.7443,-0.7443,-0.7495,-0.7641,-0.775,-0.7879,-0.7941,-0.7958,-0.7975,-0.7988,-0.7988,-0.7988,-0.7988,-0.7988,-0.7988,-0.7988,-0.7988,-0.7988,-0.7988,-0.7988,-0.7988,-0.7988,-0.7988,-0.7988,-0.7942,-0.7696,-0.7391,-0.7089,-0.6845,-0.6589,-0.6387,-0.6387,-0.6387,-0.6387,-0.6387,-0.6387,-0.6387,-0.6387,-0.6387,-0.6387,-0.6387,-0.6387,-0.6381,-0.6368,-0.4323,-0.2167,-0.0051,0.0,0.0,0.0,0.0,0.0,0.0,0.0,0.0,-1.5898,-1.4881,-1.3997,-1.367,-1.3417,-1.3174,-1.2694,-1.2693,-1.2675,-1.2362,0.0,0.0,0.0,0.0,0.0,0.0,-1.1819,-1.1613,-1.1627,-1.0917,-1.006,-0.9083,-0.8897,-0.8505,-0.764,-0.7502,-0.759,-0.7885,-0.7716,-0.7729,-0.7975,-0.7928,-0.7902,-0.7814,-0.7675,-0.7526,-0.7419,-0.7282,-0.7204,-0.7095,-0.7095,-0.7095,-0.7095,-0.7095,-0.7095,-0.7095,-0.7095,-0.7095,-0.7095,-0.7095,-0.7095,-0.7095,-0.7095,-0.7095,-0.7105,-0.7241,-0.7373,-0.7516,-0.7597,-0.7726,-0.7865,-0.7874,-0.7938,-0.7988,-0.7988,-0.7988,-0.7988,-0.7988,-0.7988,-0.7988,-0.7988,-0.7988,-0.7988,-0.7988,-0.7988,-0.7988,-0.7988,-0.7988,-0.7988,-0.7988,-0.7988,-0.7942,-0.7842,-0.7593,-0.7341,-0.7092,-0.6792,-0.6589,-0.6437,-0.6387,-0.6387,-0.6387,-0.6387,-0.6387,-0.6387,-0.6387,-0.6387,-0.6387,-0.6374,-0.5822,-0.4576,-0.3586,-0.2093,-0.005,0.0,0.0,0.0,0.0,0.0,0.0,0.0,0.0,-1.6745,-1.5541,-1.4515,-1.4304,-1.3886,-1.3452,-1.3089,-1.2973,-1.2958,-1.2857,-1.2834,0.0,0.0,0.0,-1.2434,-1.251,0.0,-1.154,-1.2265,-1.1201,-0.9953,-0.8961,-0.8574,-0.8126,-0.7447,-0.7299,-0.7373,-0.7668,-0.7519,-0.758,-0.7907,-0.7891,-0.7885,-0.7814,-0.7634,-0.7485,-0.7419,-0.7217,-0.7095,-0.7095,-0.7095,-0.7095,-0.7095,-0.7095,-0.7095,-0.7095,-0.7095,-0.7095,-0.7095,-0.7095,-0.7095,-0.7095,-0.7095,-0.7095,-0.7115,-0.7316,-0.7468,-0.7621,-0.7763,-0.7913,-0.7988,-0.7988,-0.7988,-0.7988,-0.7988,-0.7988,-0.7988,-0.7988,-0.7988,-0.7988,-0.7988,-0.7988,-0.7988,-0.7988,-0.7988,-0.7988,-0.7988,-0.7988,-0.7988,-0.7988,-0.7988,-0.7988,-0.7988,-0.7793,-0.7543,-0.7341,-0.7042,-0.6742,-0.6539,-0.6437,-0.6387,-0.6387,-0.6387,-0.6387,-0.6387,-0.6387,-0.6387,-0.6387,-0.6361,-0.5509,-0.3725,-0.3281,-0.2236,-0.0454,-0.0151,0.0,0.0,0.0,0.0,0.0,0.0,0.0,-1.8515,-1.7298,-1.5953,-1.5713,-1.5034,-1.4236,-1.3373,-1.3193,-1.3249,-1.336,-1.3386,-1.3401,-1.3452,-1.3468,-1.3301,-1.2869,-1.2746,0.0,0.0,-1.1955,-1.1626,-1.0792,-0.9333,-0.8126,-0.7447,-0.7112,-0.7068,-0.7409,-0.7115,-0.7159,-0.7787,-0.7689,-0.7675,-0.7807,-0.7529,-0.7422,-0.7415,-0.7217,-0.7095,-0.7095,-0.7095,-0.7095,-0.7095,-0.7095,-0.7095,-0.7095,-0.7095,-0.7095,-0.7095,-0.7095,-0.7095,-0.7095,-0.7095,-0.7095,-0.7115,-0.7316,-0.7468,-0.7621,-0.7763,-0.7913,-0.7988,-0.7988,-0.7988,-0.7988,-0.7988,-0.7988,-0.7988,-0.7988,-0.7988,-0.7988,-0.7988,-0.7988,-0.7988,-0.7988,-0.7988,-0.7988,-0.7988,-0.7988,-0.7988,-0.7988,-0.7988,-0.7988,-0.7988,-0.7793,-0.7596,-0.7596,-0.7144,-0.6795,-0.6795,-0.6539,-0.6387,-0.6387,-0.6387,-0.6387,-0.6387,-0.6387,-0.6387,-0.6387,-0.6384,-0.5882,-0.4784,-0.3725,-0.2668,-0.1563,-0.0505,0.0,0.0,0.0,0.0,0.0,0.0,0.0,-1.8199,-1.7214,-1.6025,-1.5445,-1.4911,-1.4369,-1.3572,-1.3382,-1.344,-1.357,-1.3596,-1.3613,-1.3729,-1.362,-1.3468,-1.3287,-1.2988,-1.275,0.0,-1.2239,-1.1727,-1.1031,-0.9299,-0.7826,-0.707,-0.6864,-0.6898,-0.7197,-0.7082,-0.724,-0.7784,-0.7767,-0.7763,-0.7811,-0.7624,-0.7472,-0.7419,-0.7217,-0.7095,-0.7095,-0.7095,-0.7095,-0.7095,-0.7095,-0.7095,-0.7095,-0.7095,-0.7095,-0.7095,-0.7095,-0.7095,-0.7105,-0.7255,-0.7292,-0.7299,-0.7398,-0.7468,-0.7634,-0.7879,-0.7944,-0.7988,-0.7988,-0.7988,-0.7988,-0.7988,-0.7988,-0.7988,-0.7988,-0.7988,-0.7988,-0.7988,-0.7988,-0.7988,-0.7988,-0.7988,-0.7988,-0.7988,-0.7988,-0.7988,-0.7988,-0.7988,-0.7988,-0.7988,-0.7942,-0.7793,-0.7646,-0.7291,-0.6992,-0.6842,-0.6589,-0.6387,-0.6387,-0.6387,-0.6387,-0.6387,-0.6387,-0.6387,-0.6387,-0.6387,-0.5937,-0.4834,-0.4431,-0.3425,-0.1613,-0.1261,-0.0707,0.0,0.0,0.0,0.0,0.0,0.0,-1.8405,-1.7551,-1.6517,-1.6076,-1.5364,-1.4613,-1.3992,-1.3748,-1.3754,-1.407,-1.4125,-1.418,-1.4304,-1.4193,-1.3956,-1.3576,-1.326,-1.2941,0.0,-1.2307,-1.1845,-1.11,-0.9569,-0.8237,-0.7515,-0.6991,-0.6812,-0.7168,-0.7006,-0.7122,-0.7628,-0.7706,-0.7756,-0.7811,-0.7675,-0.7553,-0.7455,-0.7244,-0.7095,-0.7095,-0.7095,-0.7095,-0.7095,-0.7095,-0.7095,-0.7095,-0.7095,-0.7095,-0.7098,-0.72,-0.7221,-0.7238,-0.7394,-0.7451,-0.7458,-0.7509,-0.7624,-0.7784,-0.7924,-0.7988,-0.7988,-0.7988,-0.7988,-0.7988,-0.7988,-0.7988,-0.7988,-0.7988,-0.7988,-0.7988,-0.7988,-0.7988,-0.7988,-0.7988,-0.7988,-0.7988,-0.7988,-0.7988,-0.7988,-0.7988,-0.7988,-0.7988,-0.7988,-0.7988,-0.7939,-0.7743,-0.7441,-0.7138,-0.6942,-0.6639,-0.6387,-0.6387,-0.6387,-0.6387,-0.6387,-0.6387,-0.6387,-0.6387,-0.6387,-0.6087,-0.5386,-0.4632,-0.3575,-0.2217,-0.1412,-0.0707,0.0,0.0,0.0,0.0,0.0,0.0]},{"header":{"parameterUnit":"m.s-1","parameterCategory":1,"la1":30.6,"la2":29.2853,"lo1":-89.7004,"lo2":-87.6739,"dy":0.0162,"dx":0.0183,"nx":112,"ny":82,"refTime":"2026-05-17T00:00:00:Z","depth":0,"parameterNumber":3,"parameterNumberName":"V-component_of_WINDS"},"data":[0.0,0.0,0.0,0.0,0.0,0.0,0.0,0.0,0.0,0.0,0.0,0.0,0.0,0.0,0.0,0.0,0.0,0.0,0.0,0.0,0.0,0.0,0.0,0.0,0.0,0.0,0.0,0.0,0.0,0.0,0.0,0.0,0.0,0.0,0.0,0.0,0.0,0.0,0.0,0.0,0.0,0.0,0.0,0.0,0.0,0.0,0.0,0.0,0.0,0.0,0.0,0.0,0.0,0.0,0.0,0.0,0.0,0.0,0.0,0.0,0.0,0.0,0.0,0.0,0.0,0.0,0.0,0.0,0.0,0.0,0.0,0.0,0.0,0.0,0.0,0.0,0.0,0.0,0.0,0.0,0.0,0.0,0.0,0.0,0.0,0.0,0.0,0.0,0.0,0.0,1.471,1.4626,1.4654,1.4674,1.4719,1.4356,1.3921,1.3454,0.0,0.0,0.0,0.0,0.0,0.0,0.0,0.0,0.0,0.0,0.0,0.0,0.0,0.0,0.0,0.0,0.0,0.0,0.0,0.0,0.0,0.0,0.0,0.0,0.0,0.0,0.0,0.0,0.0,0.0,0.0,0.0,0.0,0.0,0.0,0.0,0.0,0.0,0.0,0.0,0.0,0.0,0.0,0.0,0.0,0.0,0.0,0.0,0.0,0.0,0.0,0.0,0.0,0.0,0.0,0.0,0.0,0.0,0.0,0.0,0.0,0.0,0.0,0.0,0.0,0.0,0.0,0.0,0.0,0.0,0.0,0.0,0.0,0.0,0.0,0.0,0.0,0.0,0.0,0.0,0.0,0.0,0.0,0.0,0.0,0.0,0.0,0.0,0.0,0.0,0.0,0.0,0.0,0.0,0.0,0.0,0.0,0.0,0.0,0.0,0.0,0.0,0.0,0.0,1.5316,1.5183,1.5031,1.5013,1.5178,1.4872,1.4481,1.4003,0.0,0.0,0.0,0.0,0.0,0.0,0.0,0.0,0.0,0.0,0.0,0.0,0.0,0.0,0.0,0.0,0.0,0.0,0.0,0.0,0.0,0.0,0.0,0.0,0.0,0.0,0.0,0.0,0.0,0.0,0.0,0.0,0.0,0.0,0.0,0.0,0.0,0.0,0.0,0.0,0.0,0.0,0.0,0.0,0.0,0.0,0.0,0.0,0.0,0.0,0.0,0.0,0.0,0.0,0.0,0.0,0.0,0.0,0.0,0.0,0.0,0.0,0.0,0.0,0.0,0.0,0.0,0.0,0.0,0.0,0.0,0.0,0.0,0.0,0.0,0.0,0.0,0.0,0.0,0.0,0.0,0.0,0.0,0.0,0.0,0.0,0.0,0.0,0.0,0.0,0.0,0.0,0.0,0.0,0.0,0.0,0.0,0.0,0.0,0.0,0.0,0.0,0.0,1.5359,1.5448,1.5313,1.5223,1.5208,1.5298,1.5147,1.4872,1.4406,1.2956,0.0,0.0,0.0,0.0,0.0,0.0,0.0,0.0,0.0,0.0,0.0,0.0,0.0,0.0,0.0,0.0,0.0,0.0,0.0,0.0,0.0,0.0,0.0,0.0,0.0,0.0,0.0,0.0,0.0,0.0,0.0,0.0,0.0,0.0,0.0,0.0,0.0,0.0,0.0,0.0,0.0,0.0,0.0,0.0,0.0,0.0,0.0,0.0,0.0,0.0,0.0,0.0,0.0,0.0,0.0,0.0,0.0,0.0,0.0,0.0,0.0,0.0,0.0,0.0,0.0,0.0,0.0,0.0,0.0,0.0,0.0,0.0,0.0,0.0,0.0,0.0,0.0,0.0,0.0,0.0,0.0,0.0,0.0,0.0,0.0,0.0,0.0,0.0,0.0,0.0,0.0,0.0,0.0,0.0,0.0,0.0,0.0,0.0,0.0,0.0,0.0,0.0,1.5507,1.5463,1.5343,1.5313,1.5298,1.5298,1.5298,1.5102,1.4672,1.3354,0.0,0.0,0.0,0.0,0.0,0.0,0.0,0.0,0.0,0.0,0.0,0.0,0.0,0.0,0.0,0.0,0.0,0.0,0.0,0.0,0.0,0.0,0.0,0.0,0.0,0.0,0.0,0.0,0.0,0.0,0.0,0.0,0.0,0.0,0.0,0.0,0.0,0.0,0.0,0.0,0.0,0.0,0.0,0.0,0.0,0.0,0.0,0.0,0.0,0.0,0.0,0.0,0.0,0.0,0.0,0.0,0.0,0.0,0.0,0.0,0.0,0.0,0.0,0.0,0.0,0.0,0.0,0.0,0.0,0.0,0.0,0.0,0.0,0.0,0.0,0.0,0.0,0.0,0.0,0.0,0.0,0.0,0.0,0.0,0.0,0.0,0.0,0.0,0.0,0.0,0.0,0.0,0.0,0.0,0.0,0.0,0.0,0.0,0.0,0.0,0.0,0.0,1.5551,1.5463,1.5389,1.5343,1.5298,1.5298,1.5298,1.5147,1.4808,1.3571,0.0,0.0,0.0,0.0,0.0,0.0,0.0,0.0,0.0,0.0,0.0,0.0,0.0,0.0,0.0,0.0,0.0,0.0,0.0,0.0,0.0,0.0,0.0,0.0,0.0,0.0,0.0,0.0,0.0,0.0,0.0,0.0,0.0,0.0,0.0,0.0,0.0,0.0,0.0,0.0,0.0,0.0,0.0,0.0,0.0,0.0,0.0,0.0,0.0,0.0,0.0,0.0,0.0,0.0,0.0,0.0,0.0,0.0,0.0,0.0,0.0,0.0,0.0,0.0,0.0,0.0,0.0,0.0,0.0,0.0,0.0,0.0,0.0,0.0,0.0,0.0,0.0,0.0,0.0,0.0,0.0,0.0,0.0,0.0,0.0,0.0,0.0,0.0,0.0,0.0,0.0,0.0,0.0,0.0,0.0,0.0,0.0,0.0,0.0,0.0,0.0,0.0,1.5551,1.5463,1.5404,1.5343,1.5298,1.5298,1.5298,1.5253,1.5117,0.0,0.0,0.0,0.0,0.0,0.0,0.0,0.0,0.0,0.0,0.0,0.0,0.0,0.0,0.0,0.0,0.0,0.0,0.0,0.0,0.0,0.0,0.0,0.0,0.0,0.0,0.0,0.0,0.0,0.0,0.0,0.0,0.0,0.0,0.0,0.0,0.0,0.0,0.0,0.0,0.0,0.0,0.0,0.0,0.0,0.0,0.0,0.0,0.0,0.0,0.0,0.0,0.0,0.0,0.0,0.0,0.0,0.0,0.0,0.0,0.0,0.0,0.0,0.0,0.0,0.0,0.0,0.0,0.0,0.0,0.0,0.0,0.0,0.0,0.0,0.0,0.0,0.0,0.0,0.0,0.0,0.0,0.0,0.0,0.0,0.0,0.0,0.0,0.0,0.0,0.0,0.0,0.0,0.0,0.0,0.0,0.0,0.0,0.0,0.0,0.0,0.0,1.5593,1.5876,1.5891,1.5492,1.5374,1.5328,1.5328,1.5313,1.5211,1.4993,0.0,0.0,0.0,0.0,0.0,0.0,0.0,0.0,0.0,0.0,0.0,0.0,0.0,0.0,0.0,0.0,0.0,0.0,0.0,0.0,0.0,0.0,0.0,0.0,0.0,0.0,0.0,0.0,0.0,0.0,0.0,0.0,0.0,0.0,0.0,0.0,0.0,0.0,0.0,0.0,0.0,0.0,0.0,0.0,0.0,0.0,0.0,0.0,0.0,0.0,0.0,0.0,0.0,0.0,0.0,0.0,0.0,0.0,0.0,0.0,0.0,0.0,0.0,0.0,0.0,0.0,0.0,0.0,0.0,0.0,0.0,0.0,0.0,0.0,0.0,0.0,0.0,0.0,0.0,0.0,0.0,0.0,0.0,0.0,0.0,0.0,0.0,0.0,0.0,0.0,0.0,0.0,0.0,0.0,0.0,0.0,0.0,0.0,0.0,0.0,0.0,0.0,1.587,1.6634,1.6801,1.5728,1.5507,1.5404,1.5404,1.5329,1.5023,0.0,0.0,0.0,0.0,0.0,0.0,0.0,0.0,0.0,0.0,0.0,0.0,0.0,0.0,0.0,0.0,0.0,0.0,0.0,0.0,0.0,0.0,0.0,0.0,0.0,0.0,0.0,0.0,0.0,0.0,0.0,0.0,0.0,0.0,0.0,0.0,0.0,0.0,0.0,0.0,0.0,0.0,0.0,0.0,0.0,0.0,0.0,0.0,0.0,0.0,0.0,0.0,0.0,0.0,0.0,0.0,0.0,0.0,0.0,0.0,0.0,0.0,0.0,0.0,0.0,0.0,0.0,0.0,0.0,0.0,0.0,0.0,0.0,0.0,0.0,0.0,0.0,0.0,0.0,0.0,0.0,0.0,0.0,0.0,0.0,0.0,0.0,0.0,0.0,0.0,0.0,0.0,0.0,0.0,0.0,0.0,0.0,0.0,0.0,0.0,0.0,0.0,0.0,1.719,1.7412,1.7401,1.7043,1.6467,1.6006,1.5766,1.5724,1.537,1.4511,0.0,0.0,0.0,0.0,0.0,0.0,0.0,0.0,0.0,0.0,0.0,0.0,0.0,0.0,0.0,0.0,0.0,0.0,0.0,0.0,0.0,0.0,0.0,0.0,0.0,0.0,0.0,0.0,0.0,0.0,0.0,0.0,0.0,0.0,0.0,0.0,0.0,0.0,0.0,0.0,0.0,0.0,0.0,0.0,0.0,0.0,0.0,0.0,0.0,0.0,0.0,0.0,0.0,0.0,0.0,0.0,0.0,0.0,0.0,0.0,0.0,0.0,0.0,0.0,0.0,0.0,0.0,0.0,0.0,0.0,0.0,0.0,0.0,0.0,0.0,0.0,0.0,0.0,0.0,0.0,0.0,0.0,0.0,0.0,0.0,0.0,0.0,0.0,0.0,0.0,0.0,0.0,0.0,0.0,0.0,0.0,0.0,0.0,0.0,0.0,0.0,0.0,1.7853,1.8391,1.8507,1.7769,1.7202,1.6633,1.6038,1.5936,1.551,1.4609,0.0,0.0,0.0,0.0,0.0,0.0,0.0,0.0,0.0,0.0,0.0,0.0,0.0,0.0,0.0,0.0,0.0,0.0,0.0,0.0,0.0,0.0,0.0,0.0,0.0,0.0,0.0,0.0,0.0,0.0,0.0,0.0,0.0,0.0,0.0,0.0,0.0,0.0,0.0,0.0,0.0,0.0,0.0,0.0,0.0,0.0,0.0,0.0,0.0,0.0,0.0,0.0,0.0,0.0,0.0,0.0,0.0,0.0,0.0,0.0,0.0,0.0,0.0,0.0,0.0,0.0,0.0,0.0,0.0,0.0,0.0,0.0,0.0,0.0,0.0,0.0,0.0,0.0,0.0,0.0,0.0,0.0,0.0,0.0,0.0,0.0,0.0,0.0,0.0,0.0,0.0,0.0,0.0,0.0,0.0,0.0,0.0,0.0,0.0,0.0,0.0,0.0,1.8205,1.9477,1.9817,1.815,1.7807,1.7298,1.6267,1.6063,1.5606,1.4702,0.0,0.0,0.0,0.0,0.0,0.0,0.0,0.0,0.0,0.0,0.0,0.0,0.0,0.0,0.0,0.0,0.0,0.0,0.0,0.0,0.0,0.0,0.0,0.0,0.0,0.0,0.0,0.0,0.0,0.0,0.0,0.0,0.0,0.0,0.0,0.0,0.0,0.0,0.0,0.0,0.0,0.0,0.0,0.0,0.0,0.0,0.0,0.0,0.0,0.0,0.0,0.0,0.0,0.0,0.0,0.0,0.0,0.0,0.0,0.0,2.297,2.2228,0.0,0.0,0.0,0.0,0.0,0.0,0.0,0.0,0.0,0.0,0.0,0.0,0.0,0.0,0.0,0.0,0.0,0.0,0.0,0.0,0.0,0.0,0.0,0.0,0.0,0.0,0.0,0.0,0.0,0.0,0.0,0.0,0.0,0.0,0.0,0.0,0.0,0.0,0.0,0.0,1.951,2.0351,2.0524,1.9422,1.8788,1.8022,1.6889,1.6786,1.6265,1.5076,1.4853,0.0,0.0,0.0,0.0,0.0,0.0,0.0,0.0,0.0,0.0,0.0,0.0,0.0,0.0,0.0,0.0,0.0,0.0,0.0,0.0,0.0,0.0,0.0,0.0,0.0,0.0,0.0,0.0,0.0,0.0,0.0,0.0,0.0,0.0,0.0,0.0,0.0,0.0,0.0,0.0,0.0,0.0,0.0,0.0,0.0,0.0,0.0,0.0,0.0,0.0,0.0,0.0,0.0,0.0,0.0,0.0,0.0,0.0,0.0,2.4676,2.3685,0.0,0.0,0.0,0.0,0.0,0.0,0.0,0.0,0.0,0.0,0.0,0.0,0.0,0.0,0.0,0.0,0.0,0.0,0.0,0.0,0.0,0.0,0.0,0.0,0.0,0.0,0.0,0.0,0.0,0.0,0.0,0.0,0.0,0.0,0.0,0.0,0.0,0.0,0.0,0.0,2.0469,2.1167,2.1311,2.0458,2.003,1.9365,1.8248,1.7831,1.7265,1.6456,1.5759,0.0,0.0,0.0,0.0,0.0,0.0,0.0,0.0,0.0,0.0,0.0,0.0,0.0,0.0,0.0,0.0,0.0,0.0,0.0,0.0,0.0,0.0,0.0,0.0,0.0,0.0,0.0,0.0,0.0,0.0,0.0,0.0,0.0,0.0,0.0,0.0,0.0,0.0,0.0,0.0,0.0,0.0,0.0,0.0,0.0,0.0,0.0,0.0,0.0,0.0,0.0,0.0,0.0,2.8879,2.9173,2.8772,2.9709,2.9799,2.9107,2.7118,2.5987,2.5527,2.4659,0.0,0.0,0.0,0.0,0.0,0.0,0.0,0.0,0.0,0.0,0.0,0.0,0.0,0.0,0.0,0.0,0.0,0.0,0.0,0.0,0.0,0.0,2.3405,2.4247,2.4189,2.3326,2.0972,0.0,0.0,0.0,0.0,0.0,0.0,0.0,0.0,0.0,0.0,0.0,2.1132,2.1809,2.1939,2.1184,2.0945,2.0421,1.9365,1.8597,1.8045,1.7719,1.66,1.5883,0.0,0.0,0.0,0.0,0.0,0.0,0.0,0.0,0.0,0.0,0.0,0.0,0.0,0.0,0.0,0.0,0.0,0.0,0.0,0.0,0.0,0.0,0.0,0.0,0.0,0.0,0.0,0.0,0.0,0.0,0.0,0.0,2.1713,2.3027,0.0,0.0,0.0,0.0,0.0,0.0,0.0,0.0,0.0,0.0,0.0,0.0,0.0,2.8454,2.8342,3.067,3.1878,3.1922,3.2656,3.2977,3.29,3.271,3.2563,3.2463,3.2135,0.0,2.7836,2.6462,0.0,0.0,0.0,0.0,0.0,0.0,0.0,0.0,0.0,0.0,0.0,0.0,0.0,0.0,0.0,0.0,0.0,0.0,0.0,0.0,0.0,0.0,2.5747,2.5201,2.5038,2.4722,2.3727,2.2061,2.0723,2.0661,2.0183,1.9812,0.0,0.0,0.0,0.0,0.0,0.0,2.1279,2.1919,2.205,2.1198,2.051,1.9765,1.8876,1.8117,1.7569,1.7301,1.7093,1.6629,1.5831,1.5655,0.0,0.0,0.0,0.0,0.0,0.0,0.0,0.0,0.0,0.0,0.0,0.0,0.0,0.0,0.0,0.0,0.0,0.0,0.0,0.0,0.0,0.0,0.0,0.0,0.0,0.0,0.0,0.0,0.0,2.2113,2.2998,2.3536,2.3768,2.3703,0.0,0.0,0.0,0.0,0.0,0.0,0.0,0.0,0.0,2.8749,3.0232,3.1109,3.1329,3.2873,3.3729,3.3884,3.4433,3.4568,3.4326,3.4405,3.4223,3.3828,3.3828,3.3051,3.1621,2.9637,2.7998,2.6672,0.0,0.0,0.0,0.0,2.5612,2.5463,2.664,2.6823,2.6511,2.6225,0.0,0.0,0.0,0.0,0.0,0.0,0.0,2.4866,2.519,2.586,2.6382,2.6058,2.5988,2.5761,2.495,2.3709,2.2594,2.2076,2.1383,2.09,2.095,2.0607,0.0,0.0,0.0,2.1537,2.1911,2.2255,2.2313,2.1936,2.1556,2.1021,2.023,1.9424,1.8703,1.814,1.7712,1.7306,1.6877,1.6689,1.624,0.0,0.0,0.0,0.0,0.0,0.0,0.0,0.0,0.0,0.0,0.0,0.0,0.0,0.0,0.0,0.0,0.0,0.0,0.0,0.0,0.0,0.0,0.0,0.0,0.0,0.0,0.0,0.0,2.3918,2.4547,2.4463,2.5262,2.5531,0.0,0.0,0.0,0.0,0.0,0.0,2.8949,2.9526,3.0372,3.1528,3.2822,3.3644,3.3941,3.4692,3.5181,3.5377,3.572,3.57,3.5359,3.572,3.5562,3.5076,3.5076,3.4953,3.4582,3.2413,3.0353,2.857,2.8383,2.7823,2.7214,2.7842,2.7741,2.7505,2.8939,2.9143,2.874,2.8519,2.8351,2.7977,2.6571,0.0,0.0,0.0,0.0,2.6046,2.6889,2.6962,2.6822,2.6879,2.6753,2.6304,2.5263,2.4602,2.3999,2.335,2.2732,2.2293,2.2138,2.1741,0.0,2.1861,2.1983,2.2236,2.2747,2.2802,2.2802,2.2774,2.2392,2.1922,2.1369,2.0374,1.9515,1.8908,1.8177,1.7783,1.7783,1.7537,1.7183,1.672,0.0,0.0,0.0,0.0,0.0,0.0,0.0,0.0,0.0,0.0,0.0,0.0,0.0,0.0,0.0,0.0,0.0,0.0,0.0,0.0,0.0,0.0,0.0,0.0,0.0,0.0,0.0,0.0,0.0,2.6454,2.7386,0.0,0.0,0.0,0.0,2.8813,3.004,3.1308,3.2483,3.2571,3.3176,3.444,3.5247,3.565,3.5668,3.6478,3.6882,3.6898,3.6917,3.6898,3.6898,3.6917,3.69,3.6865,3.6865,3.6443,3.5598,3.3887,3.2445,3.1235,3.0514,2.9578,2.8644,2.9126,2.9283,2.9351,2.9875,3.0023,3.0127,3.0792,3.0529,2.9809,2.8967,2.8704,0.0,0.0,2.8107,2.8706,2.8757,2.821,2.7631,2.7631,2.7104,2.6191,2.4677,2.4257,2.4174,2.4064,2.4211,2.4122,2.336,0.0,2.3997,2.3146,2.3445,2.3739,2.3652,2.3638,2.3627,2.3557,2.2275,2.1434,2.1396,2.0021,1.9138,1.9092,1.8392,1.7983,1.7983,1.7972,1.7828,1.755,1.6909,0.0,0.0,0.0,0.0,0.0,0.0,0.0,0.0,0.0,0.0,0.0,0.0,0.0,0.0,0.0,0.0,0.0,0.0,0.0,0.0,0.0,0.0,0.0,0.0,0.0,0.0,0.0,0.0,2.9072,3.04,0.0,3.0283,3.1076,3.17,3.188,3.2816,3.3772,3.469,3.4725,3.5168,3.6145,3.6426,3.6566,3.6566,3.6867,3.7007,3.7007,3.7007,3.7007,3.7007,3.7007,3.7007,3.7007,3.7007,3.6849,3.6531,3.5929,3.4836,3.3485,3.27,3.2141,3.1808,3.1969,3.2039,3.2056,3.2231,3.23,3.216,3.144,3.0703,3.0053,2.9772,2.9361,2.8976,2.8676,2.852,2.8447,2.8447,2.8621,2.8518,2.7381,2.7331,2.7067,2.5526,2.4842,2.4532,2.4556,2.4105,2.3703,2.3571,2.3762,2.399,2.4164,2.4367,2.4638,2.5123,2.4989,2.4851,2.4838,2.3663,2.2699,2.2198,2.1199,2.0374,1.9896,1.9622,1.9486,1.9486,1.9486,1.9183,1.8579,1.8365,1.7703,0.0,0.0,0.0,0.0,0.0,0.0,0.0,0.0,0.0,0.0,0.0,0.0,0.0,0.0,0.0,0.0,0.0,0.0,0.0,0.0,0.0,0.0,0.0,0.0,0.0,2.9866,3.1359,3.1167,3.2666,3.3438,3.2686,3.347,3.4119,3.4357,3.5115,3.582,3.6389,3.6407,3.6654,3.7185,3.7468,3.7609,3.7609,3.7778,3.7882,3.7882,3.7598,3.7474,3.7457,3.7288,3.7344,3.7591,3.7326,3.7362,3.7591,3.7309,3.6602,3.5559,3.4374,3.3792,3.3617,3.3529,3.367,3.388,3.367,3.3829,3.3899,3.2592,3.185,3.1409,3.1144,3.0552,2.9852,2.9319,2.8874,2.8594,2.8644,2.8869,2.8797,2.7696,2.766,2.7499,2.6217,2.5595,2.5231,2.5063,2.4483,2.3974,2.3863,2.4044,2.4277,2.4502,2.4678,2.4982,2.5505,2.5373,2.5344,2.5623,2.444,2.355,2.3267,2.201,2.1098,2.0793,2.0259,2.0076,2.0316,2.0093,1.9716,1.919,1.9241,1.8852,1.8016,0.0,0.0,0.0,0.0,0.0,0.0,0.0,0.0,0.0,0.0,0.0,0.0,0.0,0.0,0.0,0.0,0.0,0.0,0.0,0.0,0.0,0.0,0.0,3.0124,3.1503,3.2643,3.2712,3.4128,3.4765,3.3986,3.5098,3.5941,3.6128,3.6873,3.7409,3.763,3.7648,3.7648,3.7648,3.8416,3.8845,3.8791,3.9347,3.962,3.9603,3.8821,3.8449,3.8431,3.7913,3.8095,3.8791,3.8005,3.8113,3.8773,3.8005,3.7648,3.7416,3.5506,3.4443,3.3951,3.3688,3.4092,3.4673,3.4076,3.4497,3.5166,3.4398,3.4148,3.3987,3.3168,3.2384,3.1408,2.9836,2.9337,2.9358,2.9557,2.9034,2.8489,2.87,2.8213,2.7506,2.6699,2.6508,2.6306,2.5697,2.5502,2.5168,2.4282,2.4815,2.5081,2.4186,2.4501,0.0,2.4774,2.4751,2.5051,2.5829,2.457,2.3905,2.4485,2.2373,2.1244,2.1757,2.0304,1.9757,2.0487,1.9832,1.9435,1.9407,1.945,1.9847,2.0604,0.0,0.0,0.0,0.0,0.0,0.0,0.0,0.0,0.0,0.0,0.0,0.0,0.0,0.0,0.0,0.0,0.0,0.0,0.0,0.0,0.0,3.2297,3.3112,3.1956,3.3842,3.5331,3.5349,3.6257,3.6809,3.6577,3.6897,3.7128,3.7183,3.7379,3.7807,3.8434,3.847,3.847,3.847,3.9256,3.9399,3.881,3.952,3.9893,3.9893,3.966,3.9553,3.9553,3.9397,3.947,3.9667,3.9453,3.947,3.9649,3.9435,3.8704,3.7614,3.6417,3.5847,3.5705,3.5634,3.5741,3.5901,3.574,3.5525,3.5273,3.5041,3.497,3.4809,3.4005,3.3283,3.2486,3.1464,3.0452,2.9705,2.9901,2.9806,2.9661,2.9765,3.0094,3.0118,2.9335,2.8776,2.822,2.7516,2.6981,2.6171,2.4703,2.4657,2.4936,2.5253,2.5431,2.5734,2.6297,2.6098,2.6027,2.6245,2.5676,2.5326,2.55,2.4418,2.3786,2.3939,2.2995,2.2679,2.3274,2.3116,2.2644,2.192,2.1591,2.1156,0.0,0.0,0.0,0.0,0.0,0.0,0.0,0.0,0.0,0.0,0.0,0.0,0.0,0.0,0.0,0.0,0.0,0.0,0.0,0.0,0.0,0.0,3.4192,3.5179,3.4482,3.5695,3.6786,3.7109,3.7488,3.7864,3.8187,3.815,3.8274,3.8706,3.8724,3.8958,3.948,3.9498,3.9498,3.9498,4.0288,4.0486,4.0019,4.0733,4.1088,4.1088,4.0748,4.0587,4.0587,4.0323,4.0378,4.0684,4.036,4.0396,4.0703,4.0342,3.9517,3.8365,0.0,0.0,0.0,0.0,3.6952,3.6987,3.6647,3.6537,3.6461,3.6119,3.5779,3.5349,3.4541,3.3579,3.2574,3.1844,3.1066,3.0409,3.0318,3.0314,3.0256,3.0035,3.0353,3.0557,3.0086,2.9667,2.9162,2.838,2.7913,0.0,2.5918,2.566,2.5672,2.5775,2.5787,2.5853,2.5983,2.5792,2.5778,2.6108,2.5654,2.5426,2.5662,2.4954,0.0,0.0,0.0,2.4278,2.4605,2.4611,0.0,0.0,0.0,0.0,0.0,2.3499,0.0,0.0,2.2421,2.2403,0.0,0.0,0.0,0.0,0.0,0.0,0.0,0.0,0.0,0.0,0.0,0.0,0.0,0.0,0.0,0.0,3.56,3.7031,3.7122,3.714,3.7393,3.8118,3.8128,3.8348,3.9068,3.9048,3.9352,4.0256,4.0328,4.0401,4.0619,4.0637,0.0,0.0,0.0,4.1795,4.1705,4.2312,4.2631,4.2631,4.1909,4.1568,4.1551,4.1016,4.1144,4.1795,4.1071,4.118,4.1759,4.0963,4.0148,3.9279,3.8115,3.7739,3.7828,3.7721,3.7775,3.7844,3.7124,0.0,0.0,3.7375,3.6653,3.5912,3.5113,3.381,3.249,3.1884,3.1565,3.1323,3.0864,3.0671,3.047,2.9973,2.9833,2.9852,2.9945,2.9889,2.9608,2.8829,2.8613,2.8322,2.7599,2.7284,2.6819,2.5942,2.5821,2.5522,2.47,2.4607,2.487,2.5593,2.5052,0.0,2.5398,2.4744,2.4489,2.4965,2.5078,2.5128,2.523,2.5321,2.5295,2.5154,2.5324,2.564,2.6038,2.6264,2.6297,2.6095,2.4403,2.3793,0.0,0.0,0.0,0.0,0.0,0.0,0.0,0.0,0.0,0.0,0.0,0.0,0.0,0.0,0.0,3.5835,3.6705,3.723,3.7883,3.7973,3.8028,3.8191,3.8754,3.9172,3.9335,3.9842,4.0257,4.0456,4.0474,4.0745,4.1433,4.1469,4.1469,4.1469,4.2248,4.2357,4.1705,4.2464,4.2825,4.2825,4.2681,0.0,4.2627,4.2483,4.252,4.2647,4.2484,4.252,4.2611,4.1795,4.0637,3.9315,3.8413,3.8106,3.8106,3.8089,3.8106,3.8105,3.796,3.8048,3.8172,3.8028,3.7865,3.7593,3.6777,3.5874,0.0,3.4377,3.3259,3.2155,3.1697,3.1089,3.0619,3.0658,3.0668,3.0837,3.1504,3.1128,3.0612,3.0443,2.988,2.9401,2.9232,2.8078,2.6906,2.608,2.5908,2.5583,2.4786,2.4623,2.4655,2.4814,2.5263,2.5591,2.5715,2.5566,2.553,2.5615,2.6074,2.6646,2.7293,2.7937,2.7585,2.6089,2.6956,2.6415,2.4369,2.5684,2.5708,2.4546,2.4754,2.5622,0.0,0.0,0.0,0.0,0.0,0.0,0.0,0.0,0.0,0.0,0.0,3.0659,3.3484,0.0,3.4661,3.6669,3.7339,3.7738,3.8154,3.8209,3.8209,3.8209,3.8898,3.9532,3.9912,4.0637,4.127,4.1669,4.1705,4.1886,4.2285,4.2303,4.2303,4.2303,4.2683,4.2502,4.1705,4.2502,4.2701,4.2303,4.2701,4.2901,4.2901,4.2901,4.2683,4.2303,4.2303,4.2067,4.1651,4.0872,4.0093,3.9278,3.8082,3.7611,3.7557,3.7142,3.6997,3.6997,3.6997,3.6997,3.7069,3.7484,3.7354,3.7043,3.7011,3.6253,3.5345,3.5161,3.4325,3.3398,3.287,3.2126,3.1421,3.1119,3.1062,3.1156,3.1553,3.1299,3.0998,3.0998,3.0302,2.9701,2.9701,2.9007,2.8162,2.7336,2.7179,2.6712,2.5509,2.5324,2.5132,2.4695,2.5005,2.524,2.5196,2.557,2.5972,2.6383,2.6674,2.7026,2.7426,2.7834,2.7599,2.6667,2.7239,2.6869,2.5504,2.6754,2.6979,2.6256,2.6693,2.686,0.0,0.0,0.0,0.0,0.0,0.0,0.0,2.8907,2.9342,3.2107,3.227,3.2759,3.553,3.6021,3.6309,3.7104,3.7774,3.8263,3.8408,3.8299,3.8263,3.8408,3.9115,3.9858,4.0438,4.1361,4.2212,4.2865,4.2901,4.2901,4.2901,4.2901,4.2901,4.2901,4.2901,4.2592,4.194,4.2574,4.2574,4.194,4.2592,4.2901,4.2901,4.2901,4.2466,4.1687,4.1524,4.1017,4.0256,3.9658,3.924,3.8805,3.7372,3.6717,3.6501,3.6014,3.5817,3.5849,3.5893,3.5908,3.6015,3.6713,3.6644,3.6394,3.6994,3.6318,3.5393,3.559,3.5096,3.4387,3.3838,3.3051,3.2198,3.14,3.1078,3.1002,3.1172,3.1009,3.0919,3.1089,3.0366,2.9738,2.9738,2.9738,2.9428,2.8583,2.8442,2.7906,2.6438,2.625,2.5925,2.5043,2.4942,2.4859,2.4631,2.5203,2.5951,2.6746,2.6802,2.6885,2.7053,2.7071,2.6978,2.6846,2.7049,2.7075,2.6925,2.7794,2.8206,2.8224,2.8506,2.7855,2.5729,2.607,2.6848,2.6982,2.8185,2.9781,0.0,3.227,3.3031,3.4117,3.4826,3.5602,3.6669,3.6868,3.714,3.7937,3.8154,3.8462,3.9187,3.8662,3.848,3.917,3.993,4.0401,4.0492,4.1868,4.2792,4.2901,4.2901,4.2901,4.2901,4.2901,4.2901,4.2901,4.2901,4.2846,4.2755,4.2846,4.2865,4.2755,4.2846,4.2901,4.2901,4.2901,4.2466,4.165,4.0945,4.022,3.9531,3.951,3.8654,3.7271,3.644,3.5672,3.5111,3.569,3.5942,3.5997,3.6174,3.6255,3.6302,3.6634,3.7153,3.7694,3.7774,3.7236,3.6634,3.6843,3.5772,3.4444,3.3838,3.3051,3.2198,3.14,3.0614,3.0257,3.1042,3.0589,3.0259,3.1044,3.0478,2.9883,2.9883,2.9883,2.9582,2.8703,2.8582,2.8234,2.7272,2.7159,2.6825,2.5944,2.5861,2.5533,2.4767,2.4767,2.518,2.6051,2.6115,2.6459,2.7231,2.7269,2.6962,2.6303,2.6991,2.7017,2.6294,2.7116,2.7532,2.7616,2.8343,2.8912,2.7461,2.8041,2.8763,2.8763,2.9691,3.0914,3.2065,3.2938,3.3869,3.5142,3.602,3.6805,3.7604,3.8115,3.8354,3.8227,3.8589,3.9024,3.9351,3.8716,3.8499,3.9297,3.9659,4.0039,4.0456,4.1542,4.2393,4.2846,4.2901,4.2901,4.2901,4.2466,4.2411,4.2901,4.2448,4.2212,4.2212,4.2665,4.2647,4.2212,4.2683,4.2901,4.2901,4.2901,4.2249,4.1052,3.9765,3.9073,3.8776,3.8338,3.7772,3.7041,3.5796,3.5115,3.4834,3.4634,3.468,3.4858,3.4929,3.5036,3.5231,3.5814,3.626,3.6651,3.7075,3.6774,3.6288,3.6424,3.5699,3.4832,3.4627,3.3587,3.2483,3.2148,3.1443,3.0921,3.1302,3.1023,3.0812,3.12,3.0525,2.9897,2.9897,2.9897,2.9791,2.952,2.9415,2.9061,2.8217,2.8104,2.7804,2.696,2.6424,2.597,2.5604,2.5113,2.4981,2.534,2.5359,2.5524,2.5887,2.5905,2.575,2.5444,2.6266,2.6531,2.6197,2.7524,2.8169,2.8214,2.9095,2.9684,2.8731,2.9393,2.9995,2.9995,3.0774,3.1681,3.2269,3.3368,3.459,3.5757,3.6768,3.7646,3.8212,3.8746,3.8969,3.8623,3.9024,3.9477,3.9729,3.9059,3.8752,3.9349,3.9222,3.9385,4.0147,4.1126,4.2012,4.2847,4.2901,4.2901,4.2901,4.214,4.1958,4.2538,4.1994,4.1705,4.1705,4.2521,4.2666,4.2086,4.2703,4.2994,4.2976,4.2522,4.1742,4.0649,3.9031,3.837,3.8362,3.7794,3.7429,3.7119,3.5999,3.5297,3.4851,3.4223,3.4017,3.4061,3.4117,3.4272,3.458,3.5206,3.5606,3.594,3.6475,3.636,3.6081,3.613,3.5637,3.5145,3.5193,3.396,3.2699,3.2699,3.1897,3.114,3.114,3.1077,3.1001,3.1001,3.0453,2.9988,2.9988,2.9988,3.0011,3.0117,3.0034,2.9779,2.9156,2.8856,2.848,2.7892,2.7069,2.6558,2.6558,2.5989,2.5629,2.5629,2.5629,2.5636,2.5637,2.5644,2.5651,2.5664,2.6298,2.6716,2.6944,2.816,2.8882,2.9137,2.9817,3.0132,2.8803,2.9387,2.9995,2.9995,3.1193,3.2379,3.2397,3.4239,3.5939,3.5994,3.7252,3.838,3.8399,3.8372,3.8581,3.9344,3.9421,3.9694,4.0542,3.991,3.9404,3.9489,3.8799,3.8654,3.9453,4.0854,4.2012,4.2847,4.2901,4.2901,4.2901,4.214,4.1705,4.1741,4.1705,4.1705,4.1705,4.2631,4.3068,4.305,4.316,4.3178,4.3142,4.1574,4.0845,4.0699,3.9094,3.8399,3.8399,3.8442,3.8,3.7305,3.7393,3.6431,3.499,3.4972,3.4629,3.4233,3.4409,3.4663,3.4927,3.5145,3.5777,3.6483,3.6493,3.6483,3.6491,3.6491,3.5861,3.5201,3.5201,3.396,3.2699,3.2699,3.1446,3.0249,3.0249,3.0242,3.0223,3.0223,3.0204,3.0185,3.0185,3.0185,3.0185,3.0204,3.0185,3.0157,3.0064,2.9266,2.8688,2.8669,2.7949,2.7456,2.7456,2.7437,2.7418,2.7418,2.7418,2.7455,2.7525,2.7513,2.7559,2.7619,2.7638,2.8032,2.8808,2.8866,2.9331,3.0166,3.0185,3.0204,2.9728,3.0717,3.173,3.173,3.253,3.3464,3.4,3.5205,3.634,3.6905,3.7778,3.8478,3.8478,3.8855,3.9245,3.9518,4.0011,4.043,4.0738,4.0047,3.9539,3.9554,3.8844,3.868,3.9481,4.0012,4.0868,4.2196,4.2287,4.2305,4.2305,4.1541,4.1104,4.1104,4.1104,4.1359,4.1887,4.2741,4.316,4.316,4.3196,4.2905,4.2376,4.1283,4.0533,3.9999,3.8937,3.8512,3.8556,3.8056,3.7686,3.7393,3.689,3.6009,3.5004,3.5004,3.4746,3.4416,3.4475,3.4764,3.5107,3.5185,3.5392,3.5641,3.5641,3.5641,3.5641,3.5641,3.543,3.5209,3.5209,3.396,3.2699,3.2699,3.1427,3.0211,3.0211,3.0211,3.0211,3.0211,3.0211,3.0211,3.0211,3.0211,3.0211,3.0211,3.0211,3.0197,3.0176,2.9887,2.9694,2.9694,2.8951,2.8429,2.8429,2.7934,2.7636,2.7636,2.7636,2.7642,2.7669,2.7669,2.7682,2.7701,2.8275,2.8709,2.8976,2.9551,2.9985,3.0279,3.0279,3.0279,3.0907,3.1812,3.2674,3.2949,3.3421,3.4009,3.4821,3.5665,3.645,3.696,3.7649,3.8044,3.7769,3.8295,3.8871,3.9163,3.9858,4.0479,4.0787,4.0113,3.9621,3.9672,3.9216,3.9106,3.9617,3.9961,4.0656,4.192,4.1993,4.1993,4.2012,4.0955,4.0499,4.079,4.079,4.1191,4.1993,4.2849,4.3286,4.3304,4.3304,4.3048,4.25,4.1404,4.0652,4.0134,3.9035,3.8624,3.867,3.8138,3.7933,3.7878,3.7349,3.6633,3.5862,3.5573,3.5236,3.4891,3.4602,3.4813,3.5209,3.5209,3.5209,3.5209,3.5209,3.5209,3.5209,3.5209,3.5209,3.5209,3.5209,3.4189,3.3081,3.2776,3.1649,3.0586,3.0268,3.0211,3.0211,3.0211,3.0211,3.0211,3.0211,3.0211,3.0211,3.0211,3.0211,3.0211,3.0211,3.0211,3.0211,3.0211,2.9707,2.9357,2.9357,2.8886,2.8599,2.8599,2.8599,2.8599,2.8599,2.8587,2.8593,2.8593,2.9168,2.9455,2.9475,3.003,3.0292,3.0292,3.0292,3.0292,3.2197,3.2656,3.2894,3.3623,3.3807,3.4009,3.4821,3.5628,3.6248,3.6285,3.6905,3.7217,3.6431,3.6853,3.758,3.8439,3.9179,3.9982,4.0851,4.0255,3.9781,3.9847,3.9863,3.9863,3.9863,4.0643,4.1396,4.1973,4.1975,4.1939,4.1884,4.0479,4.0022,4.0735,4.0826,4.1227,4.201,4.2938,4.3446,4.3515,4.3515,4.3478,4.3404,4.1809,4.1077,4.0948,3.9423,3.8744,3.8707,3.8744,3.8744,3.8707,3.8707,3.8212,3.7401,3.6597,3.6051,3.5585,3.4789,3.4813,3.5209,3.5209,3.5209,3.5209,3.5209,3.5209,3.5209,3.5209,3.5209,3.5209,3.5209,3.4598,3.3796,3.2967,3.2145,3.1331,3.051,3.0319,3.03,3.0261,3.023,3.0211,3.0211,3.0211,3.0211,3.0192,3.0192,3.0192,3.0211,3.0211,3.0211,3.0211,3.0211,3.0211,3.0192,3.0192,3.0192,3.0192,3.0211,3.0211,3.0211,3.0219,3.0214,3.0214,3.0273,3.0292,3.0292,3.0292,3.0337,3.0375,3.0337,3.0356,3.2638,3.3482,3.4289,3.3899,3.3807,3.4009,3.4821,3.5169,3.5518,3.6174,3.645,3.6541,3.634,3.6931,3.7906,3.9318,4.0185,4.1009,4.1831,4.1759,4.1394,4.0842,4.0769,4.0769,4.0769,4.1517,4.2067,4.22,4.167,4.1066,4.0478,4.0608,4.0551,4.0148,4.1284,4.2017,4.2219,4.3059,4.348,4.3515,4.3515,4.3185,4.2561,4.157,4.0781,4.0175,3.9772,3.9239,3.8762,3.935,3.9239,3.8707,3.8707,3.8212,3.7401,3.6597,3.6051,3.5585,3.4789,3.4813,3.5209,3.5209,3.5209,3.5209,3.5209,3.5209,3.5209,3.5209,3.5209,3.5209,3.5209,3.4598,3.3937,3.3719,3.3032,3.2336,3.2107,3.205,3.1878,3.1217,3.0605,3.0211,3.0211,3.0211,3.0199,3.0194,3.02,3.0194,3.0192,3.0211,3.0211,3.0211,3.0211,3.0199,3.02,3.02,3.0214,3.0266,3.0266,3.0266,3.0266,3.0273,3.0273,3.0273,3.0292,3.0292,3.0292,3.0349,3.0707,3.1328,3.0687,3.1033,3.4064,3.4357,3.4527,3.4835,3.4339,3.4119,3.5298,3.5261,3.5151,3.5642,3.5734,3.5624,3.5275,3.617,3.7272,3.8157,3.9294,4.0435,4.1625,4.1479,4.135,4.1607,4.1627,4.1627,4.1627,4.2359,4.2525,4.1827,4.1352,4.0893,4.0451,4.0524,4.0524,4.0432,4.1644,4.247,4.2818,4.3276,4.3515,4.3515,4.3515,4.3075,4.2268,4.1462,4.0671,3.99,3.99,3.9441,3.8762,3.957,3.9423,3.8707,3.8707,3.8414,3.7896,3.6832,3.6346,3.6081,3.5047,3.4908,3.5209,3.5209,3.5209,3.5209,3.5209,3.5209,3.5209,3.5209,3.5209,3.5209,3.5209,3.4901,3.4477,3.4094,3.3643,3.3218,3.2835,3.274,3.2484,3.1609,3.0793,3.0226,3.0213,3.0219,3.024,3.0234,3.0234,3.0234,3.0233,3.0233,3.0233,3.0233,3.0233,3.024,3.0234,3.0234,3.0266,3.0305,3.0292,3.0292,3.0292,3.0305,3.049,3.0855,3.0906,3.0905,3.0905,3.0956,3.1019,3.1135,3.1019,3.1462,3.5716,3.5238,3.4449,3.5789,3.4945,3.4156,3.5495,3.5298,3.4821,3.4711,3.4766,3.4582,3.3788,3.5,3.6174,3.6266,3.7661,3.9313,4.1022,4.0653,4.0781,4.2286,4.2451,4.2451,4.2451,4.3075,4.291,4.1517,4.1315,4.1168,4.0948,4.0487,4.0598,4.1389,4.2103,4.2782,4.3496,4.3404,4.3332,4.3332,4.3222,4.2818,4.2121,4.1313,4.0561,3.99,3.99,3.9473,3.8805,3.9567,3.9454,3.875,3.8704,3.8707,3.8536,3.7257,3.6833,3.6719,3.5482,3.5113,3.5209,3.5209,3.5209,3.5209,3.5209,3.5209,3.5209,3.5209,3.5218,3.5218,3.5218,3.5269,3.5109,3.4343,3.422,3.4057,3.329,3.3048,3.2746,3.1983,3.1097,3.0452,3.04,3.0343,3.0292,3.0299,3.0299,3.0299,3.0305,3.0318,3.0292,3.0292,3.0292,3.0292,3.0299,3.0299,3.0356,3.0478,3.0382,3.042,3.0631,3.0548,3.0893,3.1757,3.1821,3.1852,3.1852,3.1756,3.1371,3.075,3.141,3.182,3.6174,3.6083,3.5752,3.5334,3.4523,3.3697,3.333,3.3642,0.0,3.3151,3.355,3.377,3.2949,3.4124,3.5463,3.6174,3.7661,3.9496,4.1772,4.1974,4.2231,4.3167,4.3277,4.3277,4.3277,4.3423,4.3386,4.3094,4.247,4.1515,4.0175,4.124,4.2249,4.3057,4.3222,4.3368,4.3515,4.2837,4.2506,4.2506,4.1827,4.1425,4.1279,4.0487,4.0029,3.99,3.99,3.9577,3.9077,3.966,3.9574,3.9021,3.8795,3.8707,3.8609,3.7933,3.7349,3.6794,3.6125,3.5588,3.5209,3.5209,3.5209,3.5209,3.5269,3.5234,3.5209,3.5269,3.5277,3.5277,3.5277,3.5289,3.5262,3.5109,3.5078,3.504,3.4913,3.4338,3.3827,3.3686,3.242,3.1373,3.1366,3.0772,3.0299,3.0292,3.0298,3.0323,3.0386,3.0324,3.0292,3.0292,3.0292,3.0305,3.0298,3.0298,3.0637,3.1411,3.0776,3.1007,3.2391,3.1802,3.1846,3.2654,3.2699,3.2699,3.2699,3.2025,3.1968,3.2449,3.1948,3.2471,3.6703,3.6285,3.572,3.6193,3.5037,3.3807,3.3848,0.0,0.0,3.322,3.3201,3.3201,3.322,3.3862,3.4637,3.5481,3.627,3.7774,4.0653,4.1038,4.1662,4.3313,4.3515,4.3515,4.3515,4.3515,4.3331,4.291,4.291,4.2396,4.1203,4.1882,4.2671,4.3478,4.3515,4.3515,4.3515,4.269,4.2304,4.2286,4.148,4.0875,4.0469,4.0065,3.9662,3.9294,3.9717,3.9516,3.8951,3.976,3.9715,3.9087,3.8964,3.8925,3.8828,3.8104,3.7722,3.7437,3.6446,3.5998,3.5821,3.5387,3.5261,3.5261,3.5285,3.5293,3.5254,3.5297,3.5297,3.5297,3.5297,3.5327,3.5357,3.5357,3.5372,3.5405,3.5405,3.474,3.4145,3.4105,3.3101,3.2282,3.2282,3.193,3.1501,3.1097,3.102,3.0873,3.0462,3.038,3.0362,3.0362,3.0362,3.0349,3.0348,3.0348,3.0738,3.1641,3.1308,3.1621,3.2852,3.2526,3.2718,3.3564,3.3583,3.3583,3.3583,3.3179,3.2968,3.2891,3.2968,3.3448,3.7107,3.6413,3.5591,3.6923,3.5509,3.388,3.416,3.3243,3.2472,3.2926,3.254,3.2326,3.3146,3.344,3.3807,3.4619,3.5041,3.6362,3.946,4.0047,4.0983,4.3239,4.3515,4.3515,4.3515,4.3515,4.3239,4.2598,4.313,4.3222,4.2598,4.2561,4.2837,4.3478,4.3515,4.3515,4.3515,4.2525,4.2047,4.2029,4.104,4.0249,3.9643,3.9643,3.9294,3.8744,3.9368,3.9323,3.8847,3.9707,3.97,3.9178,3.9129,3.9101,3.9027,3.8344,3.8126,3.8023,3.6795,3.653,3.6621,3.5621,3.5312,3.5293,3.5327,3.5312,3.5289,3.5315,3.5323,3.5323,3.5323,3.5372,3.542,3.542,3.546,3.55,3.55,3.4968,3.4462,3.4415,3.3737,3.3173,3.3186,3.3026,3.2699,3.2045,3.1968,3.1718,3.1019,3.0942,3.0865,3.0692,3.0519,3.0481,3.0654,3.0673,3.1115,3.2179,3.2064,3.241,3.343,3.3276,3.3583,3.4449,3.4468,3.4468,3.4468,3.4302,3.3859,3.3199,3.3878,3.4218,3.7254,3.6835,3.6211,3.6358,3.5092,3.344,3.2045,0.0,3.1323,3.0668,3.0467,3.0668,3.147,3.2228,3.2968,3.3788,3.5183,3.7055,3.9549,4.0524,4.1607,4.3313,4.3515,4.3515,4.3515,4.3515,4.3478,4.3387,4.346,4.3478,4.3404,4.3404,4.3423,4.3515,4.3515,4.3515,4.3515,4.1992,4.1205,4.1187,3.9646,3.8891,3.8817,3.8817,3.8781,3.8707,3.8781,3.891,3.9059,3.9161,3.932,3.9452,3.921,3.9101,3.9082,3.9008,3.8643,3.8099,3.7419,3.7414,3.7428,3.582,3.5312,3.53,3.5376,3.5357,3.5315,3.5372,3.5379,3.5379,3.5379,3.5446,3.5493,3.5493,3.55,3.55,3.55,3.5442,3.5385,3.5365,3.468,3.409,3.4083,3.343,3.2872,3.2795,3.2795,3.2756,3.2679,3.2679,3.2391,3.166,3.0865,3.0712,3.1506,3.1583,3.2256,3.3878,3.3237,3.3526,3.5192,3.4507,3.4487,3.5365,3.5385,3.5385,3.5385,3.4584,3.4167,3.409,3.4167,3.4295,3.6703,3.6905,3.6905,3.6413,3.5037,3.3513,3.2375,3.1751,3.1439,3.1623,3.1629,3.1898,3.2687,3.2706,3.2858,3.3678,3.3954,3.4926,3.7386,3.8432,3.9717,4.1809,4.2488,4.2965,4.346,4.3515,4.3515,4.3515,4.3515,4.3515,4.3515,4.3515,4.3515,4.3515,4.3515,4.3276,4.2782,4.1645,4.0857,4.0359,3.9239,3.8707,3.8707,3.8707,3.8707,3.8707,3.8707,3.8765,3.8881,3.9031,3.9259,3.9502,3.9389,3.935,3.9324,3.917,3.9042,3.8886,3.815,3.7889,3.7669,3.6523,3.5783,3.5369,3.5398,3.5412,3.542,3.5453,3.546,3.546,3.546,3.5486,3.55,3.55,3.55,3.55,3.55,3.55,3.55,3.55,3.5212,3.4988,3.4988,3.4699,3.4295,3.3757,3.368,3.3487,3.2968,3.2891,3.2776,3.2468,3.2102,3.1852,3.1718,3.2141,3.2929,3.4129,3.3878,3.4237,3.5442,3.5173,3.5154,3.5481,3.55,3.55,3.55,3.5154,3.4988,3.4988,3.5019,3.5095,3.5711,3.6263,3.6615,3.6064,3.4669,3.3238,3.243,3.1439,3.0925,3.172,3.1702,3.1922,3.322,3.2797,3.2522,3.3311,3.3183,3.3752,3.5973,3.7202,3.8652,4.0838,4.159,4.2268,4.3057,4.3368,4.3515,4.3515,4.3515,4.3515,4.3515,4.3515,4.3515,4.3515,4.3515,4.3222,4.2653,4.1625,4.0836,4.023,3.9203,3.8707,3.8707,3.8707,3.8707,3.8707,3.8707,3.8707,3.8723,3.8993,3.9259,3.9514,3.9514,3.9563,3.9599,3.9318,3.9383,3.9497,3.8697,3.8537,3.8484,3.7402,3.6649,3.6118,3.5869,3.5652,3.55,3.55,3.55,3.55,3.55,3.55,3.55,3.55,3.55,3.55,3.55,3.55,3.55,3.55,3.55,3.55,3.55,3.55,3.5288,3.468,3.4584,3.4353,3.3757,3.368,3.3564,3.3314,3.3526,3.3333,3.2506,3.2968,3.366,3.4526,3.4584,3.4853,3.5462,3.55,3.55,3.55,3.55,3.55,3.55,3.55,3.5508,3.5522,3.5582,3.5626,3.4329,3.4772,3.5023,3.5023,3.3793,3.2399,3.1599,3.0173,2.9244,3.0063,2.9592,2.9776,3.2161,3.1953,3.169,3.2472,3.3275,3.4376,3.6064,3.7679,3.9294,4.0912,4.1113,4.1425,4.2231,4.302,4.3515,4.3515,4.3515,4.3515,4.3515,4.3515,4.3515,4.3515,4.3515,4.3515,4.3496,4.1901,4.1095,4.1058,3.9444,3.8707,3.8707,3.8707,3.8707,3.8707,3.8707,3.8707,3.8723,3.8993,3.9259,3.9514,3.9514,3.967,3.9862,3.9583,3.9675,3.9787,3.8973,3.9479,4.0194,3.8447,3.7939,3.7815,3.6942,3.6135,3.55,3.55,3.55,3.55,3.55,3.55,3.55,3.55,3.55,3.55,3.55,3.55,3.55,3.55,3.55,3.55,3.55,3.55,3.55,3.5481,3.5481,3.5481,3.5462,3.5462,3.5135,3.4282,3.4968,3.5115,3.4244,3.4186,3.4564,3.5423,3.5481,3.5481,3.55,3.55,3.55,3.55,3.55,3.55,3.55,3.55,3.5534,3.5605,3.5611,3.5706,3.3353,3.4021,3.4408,3.3348,3.2428,3.1568,3.076,3.0613,3.0705,3.0962,3.1696,3.2357,3.2564,3.2381,3.2485,3.3293,3.3623,3.4394,3.6064,3.7698,3.9093,4.0157,4.1735,4.2837,4.3094,4.3349,4.3515,4.3515,4.3515,4.3515,4.3515,4.3515,4.3515,4.3515,4.3515,4.2965,4.1882,4.1352,4.0545,3.946,3.8946,3.8707,3.8707,3.8707,3.8707,3.8707,3.8707,3.8707,3.8707,3.8795,3.9078,3.9507,3.9507,3.9694,3.9951,3.988,3.9922,3.9994,3.9737,3.9667,3.9588,3.9031,3.8077,3.7065,3.6769,3.6135,3.55,3.55,3.55,3.55,3.55,3.55,3.55,3.55,3.55,3.55,3.55,3.55,3.55,3.55,3.55,3.55,3.55,3.55,3.55,3.55,3.55,3.55,3.55,3.55,3.5385,3.5122,3.5346,3.5154,3.4263,3.4757,3.5212,3.5481,3.55,3.55,3.55,3.55,3.55,3.55,3.55,3.55,3.55,3.5495,3.5571,3.5737,3.5737,3.5819,3.1693,3.2402,3.2802,3.1958,3.1273,3.0685,3.0296,3.0356,3.0668,3.1268,3.1953,3.2467,3.2583,3.2087,3.1971,3.2761,3.2889,3.3587,3.5532,3.7221,3.8762,4.0175,4.1956,4.3039,4.3039,4.3331,4.3515,4.3515,4.3515,4.3515,4.3515,4.3515,4.3368,4.3057,4.3039,4.2561,4.157,4.0948,4.0139,3.9148,3.8854,3.8707,3.8707,3.8707,3.8707,3.8707,3.8707,3.8707,0.0,3.8818,3.9114,3.9505,3.9652,3.988,4.0139,4.0186,4.0233,4.0252,4.026,4.003,3.9746,3.9746,3.8584,3.7142,3.6788,3.6135,3.55,3.55,3.55,3.55,3.55,3.55,3.55,3.55,3.55,3.55,3.55,3.55,3.55,3.55,3.55,3.55,3.55,3.55,3.55,3.55,3.55,3.55,3.55,3.55,3.55,3.55,3.55,3.5269,3.4737,3.5192,3.55,3.55,3.55,3.55,3.55,3.55,3.5507,3.5508,3.5508,3.5515,3.5547,3.5558,3.565,3.581,3.5836,3.5908,0.0,3.0092,3.0453,3.0703,3.0242,2.9777,3.0033,2.9599,0.0,3.1091,3.0852,3.0852,3.2399,3.1372,3.0595,3.1513,3.1672,3.2485,3.4857,3.667,3.8615,4.0985,4.1937,4.2396,4.2396,4.3057,4.3478,4.3423,4.3423,4.3404,4.3331,4.3331,4.2983,4.2249,4.2158,4.2139,4.2139,4.0653,3.9863,3.9808,3.9056,3.8707,3.8707,3.8707,3.8707,3.8707,3.8707,3.8707,3.8719,3.8985,3.9269,3.9529,3.988,4.0177,4.0405,4.0474,4.051,4.0499,4.05,4.0496,4.0496,4.0439,3.9361,3.793,3.7065,3.6192,3.55,3.55,3.55,3.55,3.55,3.55,3.55,3.55,3.55,3.55,3.55,3.55,3.55,3.55,3.55,3.55,3.55,3.55,3.55,3.55,3.55,3.55,3.55,3.55,3.55,3.55,3.55,3.55,3.5507,3.55,3.55,3.55,3.55,3.55,3.5507,3.5507,3.5508,3.5509,3.5515,3.5547,3.5604,3.5654,3.5725,3.5794,3.5851,3.5926,2.7859,0.0,2.9067,2.8591,2.8672,2.8904,0.0,2.9929,3.0944,3.1323,0.0,3.2339,3.333,3.2192,3.177,3.3812,3.4142,3.4802,3.6652,3.8836,4.0928,4.2708,4.3094,4.3222,4.3222,4.3404,4.3239,4.2635,4.258,4.2304,4.1699,4.1645,4.1572,4.1389,4.0781,4.0451,4.0451,4.0084,3.9588,3.8982,3.8799,3.8707,3.8707,3.8707,3.8707,3.8707,3.8707,3.8707,3.8719,3.8985,3.9295,3.9611,3.9962,4.0232,4.0484,4.0492,4.05,4.05,4.0489,4.0496,4.04,3.9785,3.9323,3.8834,3.7969,3.6673,3.55,3.55,3.55,3.55,3.55,3.55,3.55,3.55,3.55,3.55,3.55,3.55,3.55,3.55,3.55,3.55,3.55,3.55,3.55,3.55,3.55,3.55,3.55,3.55,3.55,3.55,3.55,3.5494,3.5489,3.5501,3.55,3.55,3.55,3.5494,3.5489,3.5496,3.5509,3.5585,3.5585,3.5584,3.5595,3.5629,3.5674,3.5805,3.5824,3.589,2.6747,2.765,2.8553,2.827,2.8575,2.8945,2.9081,2.9721,0.0,0.0,0.0,3.1298,3.2467,3.2003,3.2063,3.4105,3.4766,3.583,3.8264,4.0359,4.2121,4.3349,4.3515,4.3515,4.3515,4.3515,4.3167,4.2359,4.2304,4.2121,4.168,4.1297,4.1095,4.1095,4.0322,3.99,3.99,3.9533,3.9129,3.8707,3.8707,3.8707,3.8707,3.8707,3.8707,3.8707,3.8707,3.8723,3.878,3.9078,3.9377,3.9687,4.0012,4.0295,4.0496,4.0496,4.0496,4.0496,4.0496,4.0496,4.0439,3.9996,3.9611,3.9207,3.8738,3.768,3.6558,3.6154,3.5788,3.55,3.55,3.55,3.55,3.55,3.55,3.55,3.55,3.55,3.55,3.55,3.55,3.55,3.55,3.55,3.55,3.55,3.55,3.55,3.55,3.55,3.55,3.55,3.5501,3.5502,3.5509,3.5522,3.5554,3.5554,3.5554,3.5547,3.5554,3.5554,3.5566,3.5596,3.5633,3.5645,3.5643,3.5643,3.5708,3.5791,3.5791,3.5862,2.6446,2.748,2.8514,2.8607,2.9009,2.9392,2.9511,0.0,0.0,0.0,0.0,0.0,3.1458,3.1782,3.2296,3.3917,3.4949,3.6674,3.9808,4.1442,4.2598,4.3387,4.3515,4.3515,4.3515,4.3515,4.3167,4.2359,4.2194,4.2121,4.2121,4.135,4.0967,4.1095,4.0432,4.0084,4.0084,3.9166,3.8707,3.8707,3.8707,3.8707,3.8707,3.8707,3.8707,3.8707,3.8707,3.8735,3.8837,3.9187,3.9501,3.9731,4.0101,4.0347,4.0496,4.0496,4.0496,4.0496,4.0496,4.0496,4.0496,4.0496,4.0035,3.9477,3.9477,3.8873,3.8046,3.7296,3.6404,3.5673,3.5673,3.5596,3.55,3.55,3.55,3.55,3.55,3.55,3.55,3.55,3.55,3.55,3.55,3.55,3.55,3.55,3.55,3.55,3.55,3.55,3.55,3.5488,3.5509,3.5496,3.5502,3.5572,3.5604,3.561,3.5604,3.5598,3.5604,3.561,3.5622,3.5631,3.5673,3.5704,3.5704,3.5704,3.5736,3.5791,3.5791,3.5862,2.8032,2.8634,2.8684,2.8035,2.8802,2.9569,2.8902,2.9424,0.0,0.0,0.0,0.0,0.0,3.3421,3.3972,3.5642,3.7165,3.9019,4.157,4.2139,4.2598,4.3387,4.3515,4.3515,4.3515,4.3515,4.3167,4.2359,4.168,4.1279,4.1279,4.0524,4.0396,4.1077,4.0967,4.0912,4.0912,3.9426,3.8707,3.8707,3.8707,3.8707,3.8707,3.8707,3.8707,3.8707,3.8707,3.8735,3.8833,3.9358,3.9618,3.9754,4.0267,4.0473,4.0496,4.0496,4.0496,4.0496,4.0496,4.0496,4.0496,4.0496,4.0419,4.0323,4.0323,3.9746,3.9073,3.8938,3.7757,3.6519,3.6519,3.6,3.55,3.55,3.55,3.55,3.55,3.55,3.55,3.55,3.55,3.55,3.55,3.55,3.55,3.55,3.55,3.55,3.55,3.55,3.5494,3.5496,3.5502,3.5515,3.5583,3.5595,3.5626,3.5673,3.5628,3.561,3.5595,3.5643,3.5673,3.5679,3.5684,3.5704,3.5704,3.5704,3.5736,3.5791,3.5791,3.5862,2.6742,2.7634,2.8391,2.8748,2.9958,3.0948,3.0586,3.0682,0.0,0.0,0.0,0.0,0.0,3.4541,3.5973,3.8487,3.9882,4.1038,4.2139,4.2671,4.3075,4.346,4.3515,4.3515,4.3515,4.3515,4.3167,4.2359,4.1974,4.1754,4.1754,4.1001,4.0928,4.1735,4.1334,4.1095,4.1095,3.9937,3.935,3.9331,3.8909,3.8707,3.8707,3.8707,3.8707,3.8707,3.8707,3.8837,3.9101,3.9338,3.966,3.9983,4.0241,4.0397,4.0496,4.0496,4.0496,4.0496,4.0496,4.0496,4.0496,4.0496,4.0496,4.0496,4.0496,4.0246,3.9958,3.9958,3.8373,3.6692,3.6692,3.6096,3.55,3.55,3.55,3.55,3.55,3.55,3.55,3.55,3.55,3.55,3.55,3.55,3.55,3.55,3.5865,3.6154,3.6154,3.6175,3.6195,3.6196,3.581,3.5571,3.5601,3.5637,3.5673,3.5704,3.5662,3.5651,3.5648,3.5679,3.5704,3.5704,3.5704,3.5704,3.5704,3.5704,3.5736,3.5791,3.5791,3.5862,2.6009,2.6915,2.8031,2.966,3.0835,3.1687,3.2119,3.1798,3.1507,3.1892,3.21,3.2614,3.3862,3.5605,3.779,4.0636,4.1791,4.2378,4.2543,4.3112,4.3515,4.3515,4.3515,4.3515,4.3515,4.3515,4.3239,4.2635,4.2415,4.2378,4.2561,4.1827,4.1754,4.2561,4.1992,4.1645,4.1645,4.0689,4.0084,3.9882,3.9074,3.8707,3.8707,3.8707,3.8707,3.8707,3.8723,3.895,3.9311,3.937,3.9705,4.0205,4.0251,4.0356,4.0496,4.0496,4.0496,4.0496,4.0496,4.0496,4.0496,4.0496,4.0496,4.0496,4.0496,4.0496,4.0496,4.0496,3.895,3.7315,3.7315,3.6692,3.6096,3.6096,3.6096,3.6096,3.6096,3.5923,3.5788,3.5788,3.5635,3.5558,3.575,3.5788,3.5846,3.6058,3.6615,3.7007,3.7041,3.7061,3.7108,3.7121,3.6575,3.6205,3.6211,3.6079,3.6071,3.6265,3.5916,3.5704,3.5704,3.5704,3.5704,3.5704,3.5704,3.5704,3.5704,3.5704,3.5727,3.5788,3.5786,3.5974,2.7985,2.7918,2.7766,3.0283,3.0432,3.0412,3.2175,3.1959,3.1819,3.3311,3.4215,3.4784,3.4894,3.6894,3.9093,4.082,4.1791,4.2561,4.3296,4.346,4.3515,4.3515,4.3515,4.3515,4.3515,4.3515,4.3478,4.3423,4.2708,4.2635,4.3369,4.2653,4.258,4.3404,4.3368,4.3331,4.3331,4.1791,4.0653,3.9882,3.9074,3.8707,3.8707,3.8707,3.8707,3.8707,3.878,3.8974,3.9324,3.9566,3.988,4.0223,4.0417,4.0489,4.0496,4.0496,4.0496,4.0496,4.0496,4.0496,4.0496,4.0496,4.0496,4.0496,4.0496,4.0496,4.0496,4.0496,3.9823,3.9111,3.9111,3.8469,3.7815,3.7815,3.7815,3.7815,3.7815,3.718,3.6615,3.6615,3.6,3.5731,3.6481,3.6615,3.6885,3.77,3.7873,3.7926,3.7987,3.7994,3.8021,3.8099,3.8054,3.8008,3.8013,3.7284,3.7154,3.7961,3.6555,3.5704,3.5704,3.5704,3.5704,3.5704,3.5704,3.5704,3.5704,3.5704,3.5708,3.571,3.5762,3.6272,2.7469,2.7839,2.8299,3.0662,3.0891,3.1038,3.2928,3.3513,3.3972,3.511,3.5605,3.6119,3.7114,3.8875,4.0545,4.168,4.2525,4.3149,4.346,4.3515,4.3515,4.3515,4.3515,4.3515,4.3515,4.3515,4.3515,4.3515,4.3222,4.3167,4.3478,4.3221,4.3185,4.3496,4.3515,4.3259,4.2763,4.1662,4.0708,3.9882,3.9074,3.8795,3.895,3.895,3.895,3.895,3.9021,3.9213,3.9507,3.9641,3.9964,4.0389,4.0473,4.0496,4.0496,4.0496,4.0496,4.0496,4.0496,4.0496,4.0496,4.0496,4.0496,4.0496,4.0496,4.0496,4.0496,4.0496,4.0285,3.9938,3.9438,3.8642,3.8007,3.8007,3.8007,3.8007,3.8007,3.7738,3.7507,3.7507,3.6827,3.6519,3.7353,3.7065,3.7,3.7873,3.845,3.8811,3.8835,3.8875,3.8929,3.8936,3.8497,3.82,3.8193,3.7903,3.7613,3.74,3.6323,3.5916,3.6439,3.5974,3.5704,3.5704,3.5704,3.5704,3.5704,3.5704,3.5718,3.5775,3.6348,3.6832,2.6986,2.7551,2.8427,3.0719,3.1389,3.2055,3.4115,3.5018,3.5793,3.7165,3.7441,3.7845,3.9221,4.0361,4.1352,4.2176,4.2983,4.3515,4.3515,4.3515,4.3515,4.3515,4.3515,4.3515,4.3515,4.3515,4.3515,4.3515,4.3515,4.3515,4.3515,4.3515,4.3515,4.3515,4.324,4.2855,4.2304,4.1258,4.0451,3.9898,3.9182,3.8921,3.9101,3.9101,3.9151,3.924,3.9324,3.9513,3.9765,3.9819,4.0101,4.0496,4.0496,4.0496,4.0496,4.0496,4.0496,4.0496,4.0496,4.0496,4.0496,4.0496,4.0496,4.0496,4.0496,4.0496,4.0496,4.0496,4.0496,4.0362,3.9823,3.9246,3.8796,3.8796,3.8796,3.8796,3.8796,3.8584,3.8411,3.8411,3.7719,3.7392,3.8257,3.7911,3.7815,3.8695,3.9338,3.9718,3.975,3.9778,3.9824,3.9844,3.9347,3.903,3.903,3.8779,3.847,3.8141,3.7096,3.6497,3.6516,3.5994,3.582,3.6071,3.582,3.5977,3.6522,3.5974,3.5883,3.6223,3.6845,3.7333,2.6934,2.716,2.8003,3.0404,3.1827,3.3261,3.5752,3.6303,3.6982,3.9386,3.9916,4.0157,4.0948,4.1113,4.137,4.2176,4.2983,4.3515,4.3515,4.3515,4.3515,4.3515,4.3515,4.3515,4.3515,4.3515,4.3515,4.3515,4.3515,4.3515,4.3496,4.3515,4.3515,4.3496,4.2708,4.2304,4.2286,4.0689,3.99,3.9879,3.9349,3.9101,3.9101,3.9115,3.9248,3.9505,3.9651,3.9854,4.0101,4.0167,4.0321,4.0496,4.0496,4.0496,4.0496,4.0496,4.0496,4.0496,4.0496,4.0496,4.0496,4.0496,4.0496,4.0496,4.0496,4.0496,4.0496,4.0496,4.0496,4.0496,4.0496,4.0496,4.0496,4.0496,4.0496,4.0496,4.0496,3.9881,3.9304,3.9304,3.8604,3.8296,3.9169,3.9304,3.96,4.0465,4.0607,4.0617,4.0687,4.07,4.0733,4.079,4.0797,4.0797,4.0797,4.0004,3.9887,4.0739,3.9166,3.7464,3.58,3.5723,3.6091,3.6903,3.6129,3.6561,3.8298,3.6576,3.6191,3.7125,3.7189,3.7692,2.7488,2.8432,2.9801,3.1655,3.3226,3.4784,3.6707,3.7144,3.7676,3.9515,4.0359,4.0836,4.1058,4.157,4.2029,4.2268,4.2983,4.3515,4.3515,4.3515,4.3515,4.3515,4.3515,4.3515,4.3515,4.3515,4.3515,4.3515,4.3515,4.324,4.269,4.3185,4.3239,4.2671,4.2415,4.2029,4.1462,4.0414,3.9625,3.9056,3.909,3.9192,3.9401,3.9585,3.9705,3.9794,3.992,4.0031,4.011,4.033,4.0449,4.0496,4.0496,4.0496,4.0496,4.0496,4.0496,4.0496,4.0496,4.0496,4.0496,4.0496,4.0496,4.0496,4.0496,4.0496,4.0496,4.0496,4.0496,4.0496,4.0496,4.0496,4.0496,4.0496,4.0496,4.0496,4.0496,4.0304,4.015,4.015,3.9477,3.9188,3.9996,3.9665,3.9591,4.0472,4.0591,4.0626,4.0694,4.0739,4.0784,4.0797,4.0797,4.0797,4.0797,4.0565,4.0255,3.9907,3.9404,3.8901,3.8398,3.7773,3.758,3.7806,3.758,3.7737,3.8298,3.7789,3.7725,3.8108,3.8725,3.9187,2.8634,2.9934,3.1537,3.3151,3.4546,3.594,3.7588,3.8227,3.8906,4.0506,4.0983,4.1297,4.1937,4.2194,4.2396,4.2708,4.3167,4.3515,4.3515,4.3515,4.3515,4.3515,4.3515,4.3515,4.3515,4.3515,4.3515,4.3515,4.3515,4.3149,4.2341,4.3057,4.2983,4.1864,4.1827,4.1442,4.0634,3.9933,3.9346,3.8866,3.9232,3.9508,3.9667,3.9835,3.9992,4.0129,4.0213,4.025,4.0258,4.0422,4.0496,4.0496,4.0496,4.0496,4.0496,4.0496,4.0496,4.0496,4.0496,4.0496,4.0496,4.0496,4.0496,4.0496,4.0496,4.0496,4.0496,4.0496,4.0496,4.0496,4.0496,4.0496,4.0496,4.0496,4.0496,4.0496,4.0496,4.0496,4.0496,4.0496,4.0112,3.9938,4.0454,4.0149,3.9998,4.0547,4.0666,4.0681,4.0739,4.0778,4.0797,4.0797,4.0797,4.0797,4.0797,4.0797,4.0584,4.0042,4.0023,4.0023,4.0023,3.8856,3.8348,3.8702,3.8392,3.8592,3.9377,3.8673,3.8589,3.9074,3.9602,3.986,2.9989,3.1427,3.3096,3.4711,3.5811,3.6909,3.8377,3.9276,4.0249,4.1864,4.168,4.168,4.3222,4.2892,4.2653,4.3386,4.3515,4.3515,4.3515,4.3515,4.3515,4.3515,4.3515,4.3515,4.3515,4.3515,4.3515,4.3515,4.3441,4.3039,4.2231,4.2873,4.258,4.104,4.0985,4.0653,3.9916,3.9371,3.9101,3.9115,3.9647,3.9897,3.9901,3.9922,4.0158,4.0491,4.05,4.0496,4.0496,4.0496,4.0496,4.0496,4.0496,4.0496,4.0496,4.0496,4.0496,4.0496,4.0496,4.0496,4.0496,4.0496,4.0496,4.0496,4.0496,4.0496,4.0496,4.0496,4.0496,4.0496,4.0496,4.0496,4.0496,4.0496,4.0496,4.0496,4.0496,4.0496,4.0496,4.0496,4.0496,4.0523,4.058,4.0607,4.0617,4.0694,4.0752,4.0797,4.0797,4.0797,4.0797,4.0797,4.0797,4.0797,4.0797,4.0797,4.0797,4.0797,4.0797,4.0797,4.0797,3.9282,3.8818,3.9597,3.8849,3.9292,4.099,3.9421,3.9123,4.0019,4.0019,4.0019,2.9989,3.1843,3.3935,3.5605,3.711,3.8267,3.8615,3.8836,3.9423,4.1022,4.1735,4.2341,4.3331,4.3368,4.3313,4.3478,4.3515,4.3515,4.3515,4.3515,4.3515,4.3515,4.3515,4.3515,4.3515,4.3515,4.3515,4.3515,4.291,4.2213,4.1389,4.1517,4.1167,4.0194,4.0157,4.0065,3.99,3.9371,3.9101,3.9115,3.9647,3.9937,3.9992,4.0205,4.0368,4.05,4.0489,4.0496,4.0496,4.0496,4.0496,4.0496,4.0496,4.0496,4.0496,4.0496,4.0496,4.0496,4.0496,4.0496,4.0496,4.0496,4.0496,4.0496,4.0496,4.0496,4.0496,4.0496,4.0496,4.0496,4.0496,4.0496,4.0496,4.0496,4.0496,4.0496,4.0496,4.0496,4.0496,4.0496,4.0496,4.0496,4.0523,4.0576,4.064,4.0752,4.079,4.0797,4.0797,4.0797,4.0797,4.0797,4.0797,4.0797,4.0797,4.0797,4.0797,4.0797,4.0797,4.0797,4.0797,4.0448,4.0332,4.0526,4.0386,4.0546,4.099,4.0689,4.0668,4.0918,4.0918,4.0918,3.0913,3.2821,3.4857,3.6927,3.8083,3.8707,3.8735,3.8719,3.9163,4.0841,4.1473,4.2084,4.3277,4.3515,4.3515,4.3515,4.3515,4.3515,4.3515,4.3515,4.3515,4.3515,4.3515,4.3515,4.3515,4.3515,4.3332,4.2947,4.2543,4.1772,4.0598,4.0875,4.0545,3.935,3.9698,3.9717,3.9331,3.9305,3.9298,3.9298,3.9832,4.0129,4.0233,4.0386,4.0468,4.0496,4.0496,4.0496,4.0496,4.0496,4.0496,4.0496,4.0496,4.0496,4.0496,4.0496,4.0496,4.0496,4.0496,4.0496,4.0496,4.0496,4.0496,4.0496,4.0496,4.0496,4.0496,4.0496,4.0496,4.0496,4.0496,4.0496,4.0496,4.0496,4.0496,4.0496,4.0496,4.0496,4.0496,4.0496,4.0531,4.0546,4.0549,4.0633,4.0713,4.079,4.0797,4.0797,4.0797,4.0797,4.0797,4.0797,4.0797,4.0797,4.0797,4.0797,4.0797,4.0797,4.0797,4.0797,4.0797,4.0797,4.0797,4.0797,4.0872,4.0932,4.099,4.107,4.1123,4.1191,4.1191,4.1191,3.1757,3.3775,3.5793,3.8135,3.8723,3.8735,3.8807,3.8762,3.9225,4.0963,4.1204,4.1623,4.3255,4.3549,4.3549,4.3549,4.3549,4.3549,4.3513,4.3549,4.3549,4.3496,4.3515,4.3496,4.3515,4.3515,4.3167,4.2359,4.2176,4.146,3.9974,4.0414,4.0068,3.8744,3.935,3.9368,3.8707,3.9232,3.9495,3.9508,4.007,4.0388,4.0502,4.0492,4.0496,4.0496,4.0496,4.0496,4.0496,4.0496,4.0496,4.0496,4.0496,4.0496,4.0496,4.0496,4.0496,4.0496,4.0496,4.0496,4.0496,4.0496,4.0496,4.0496,4.0496,4.0496,4.0496,4.0496,4.0496,4.0496,4.0496,4.0496,4.0496,4.0496,4.0496,4.0496,4.0496,4.0496,4.0496,4.0496,4.0546,4.0603,4.0607,4.0707,4.079,4.0797,4.0797,4.0797,4.0797,4.0797,4.0797,4.0797,4.0797,4.0797,4.0797,4.0797,4.0797,4.0797,4.0797,4.0797,4.0797,4.0797,4.0803,4.0827,4.0883,4.0949,4.099,4.1076,4.1145,4.1191,4.1191,4.1191,3.1091,3.3788,3.6538,3.8339,3.8792,3.8807,3.8881,3.8881,3.9324,4.096,4.1233,4.1701,4.3441,4.3771,4.3771,4.3771,4.3771,4.3719,4.3599,4.3686,4.3703,4.3532,4.3548,4.3565,4.3515,4.3515,4.3167,4.2359,4.1662,4.0873,3.9937,3.935,3.8927,3.8707,3.8799,3.8817,3.8707,3.9232,3.9489,3.9512,4.0158,4.0474,4.0502,4.0492,4.0496,4.0496,4.0496,4.0496,4.0496,4.0496,4.0496,4.0496,4.0496,4.0496,4.0496,4.0496,4.0496,4.0496,4.0496,4.0496,4.0496,4.0496,4.0496,4.0496,4.0496,4.0496,4.0496,4.0496,4.0496,4.0496,4.0496,4.0496,4.0496,4.0496,4.0496,4.0496,4.0496,4.0496,4.0496,4.0496,4.0546,4.0603,4.0607,4.0661,4.0739,4.079,4.0797,4.0797,4.0797,4.0797,4.0797,4.0797,4.0797,4.0797,4.0797,4.0797,4.0797,4.0797,4.0797,4.0797,4.0797,4.0797,4.0825,4.0883,4.0957,4.0981,4.099,4.1138,4.1191,4.1191,4.1191,4.1191,3.2063,3.4178,3.6186,3.8276,3.8837,3.8862,3.8935,3.8939,3.9401,4.11,4.1406,4.1881,4.3509,4.3804,4.3804,4.3804,4.3804,4.3788,4.3719,4.3753,4.3771,4.3686,4.3703,4.3703,4.3669,4.36,4.3033,4.1783,4.1311,4.0545,3.9294,3.8937,3.8765,3.8765,3.8765,3.8765,3.8765,3.9259,3.9656,4.0021,4.0334,4.0499,4.0503,4.0508,4.0496,4.0496,4.0496,4.0496,4.0496,4.0496,4.0496,4.0496,4.0496,4.0496,4.0496,4.0496,4.0496,4.0496,4.0496,4.0496,4.0496,4.0496,4.0496,4.0496,4.0496,4.0496,4.0496,4.0496,4.0496,4.0496,4.0496,4.0496,4.0496,4.0496,4.0496,4.0496,4.0496,4.0496,4.0504,4.0539,4.0576,4.0612,4.0654,4.0707,4.0778,4.079,4.1184,4.1467,4.1467,4.1893,4.2009,4.1525,4.1467,4.1293,4.0835,4.0797,4.0797,4.0797,4.0797,4.0797,4.0797,4.0797,4.0837,4.0907,4.0976,4.1028,4.1061,4.1147,4.1191,4.1191,4.1191,4.1191,3.2375,3.386,3.5128,3.7587,3.8405,3.8666,3.897,3.8993,3.9386,4.0981,4.1416,4.1949,4.3312,4.3721,4.3851,4.3851,4.3851,4.3835,4.3837,4.3835,4.3853,4.3804,4.382,4.382,4.3804,4.3719,4.2969,4.1346,4.1174,4.0428,3.8842,3.8777,3.8807,3.8822,3.8892,3.8921,3.8906,3.9377,3.9886,4.0407,4.0474,4.0503,4.0496,4.0496,4.0496,4.0496,4.0496,4.0496,4.0496,4.0496,4.0496,4.0496,4.0496,4.0496,4.0496,4.0496,4.0496,4.0496,4.0496,4.0496,4.0496,4.0496,4.0496,4.0496,4.0496,4.0496,4.0496,4.0496,4.0496,4.0496,4.0496,4.0496,4.0554,4.0785,4.0843,4.0766,4.0554,4.0496,4.0581,4.0869,4.0933,4.1026,4.1292,4.139,4.1429,4.1429,4.1951,4.2338,4.2338,4.2899,4.3053,4.2396,4.2125,4.1757,4.1164,4.0913,4.0797,4.0797,4.099,4.1009,4.0816,4.1021,4.107,4.0924,4.0984,4.1057,4.1109,4.1169,4.1191,4.1191,4.1191,4.1191,3.0864,3.2118,3.3369,3.5965,3.7193,3.7997,3.8892,3.9087,3.9347,4.0271,4.107,4.185,4.2689,4.3469,4.3989,4.3989,4.3989,4.3958,4.3897,4.3961,4.3945,4.382,4.3851,4.3867,4.3804,4.3788,4.3086,4.1422,4.1233,4.0535,3.8969,3.8837,3.8837,3.8877,3.9137,3.9232,3.9183,3.9705,4.011,4.0407,4.0468,4.0496,4.0496,4.0496,4.0496,4.0496,4.0496,4.0496,4.0496,4.0496,4.0496,4.0496,4.0496,4.0496,4.0496,4.0496,4.0496,4.0496,4.0496,4.0496,4.0496,4.0496,4.0496,4.0496,4.0496,4.0496,4.0496,4.0496,4.0496,4.0496,4.0496,4.0496,4.0708,4.1546,4.1731,4.1508,4.0689,4.0496,4.0754,4.1659,4.1839,4.2095,4.2922,4.313,4.3169,4.3169,4.3208,4.3227,4.3227,4.3266,4.3285,4.3247,4.2492,4.197,4.1932,4.1235,4.0797,4.0797,4.1525,4.1603,4.0835,4.1599,4.1717,4.1003,4.1066,4.1108,4.1109,4.1169,4.1191,4.1191,4.1191,4.1191,3.0883,3.1642,3.2514,3.5088,3.6366,3.7215,3.814,3.8729,3.9342,4.023,4.0624,4.107,4.1869,4.3113,4.4005,4.4005,4.4005,4.3989,4.3958,4.3989,4.3974,4.3945,4.3961,4.3942,4.3929,4.3899,4.3183,4.1554,4.1329,4.0579,3.8984,3.8925,3.9021,3.9205,3.9311,3.9458,3.9656,3.988,4.0129,4.0407,4.0468,4.0496,4.0496,4.0496,4.0496,4.0496,4.0496,4.0496,4.0496,4.0496,4.0496,4.0496,4.0496,4.0496,4.0496,4.0496,4.0496,4.0496,4.0496,4.0496,4.0496,4.0496,4.0496,4.0496,4.0496,4.0496,4.0496,4.0496,4.0496,4.0496,4.0496,4.0496,4.0727,4.1585,4.2489,4.297,4.2316,4.2162,4.2274,4.2603,4.2707,4.2724,4.2683,4.3027,4.344,4.3827,4.402,4.413,4.413,4.4581,4.4717,4.4194,4.3866,4.344,4.2879,4.257,4.2396,4.2396,4.2667,4.2705,4.2415,4.2205,4.1998,4.177,4.1322,4.1117,4.1169,4.1191,4.1191,4.1191,4.1191,4.1191,2.9824,3.0625,3.1685,3.4218,3.5304,3.6184,3.7877,3.8465,3.8906,3.977,4.0197,4.0564,4.1089,4.2296,4.3188,4.3188,4.3429,4.3596,4.3596,4.3838,4.4005,4.4005,4.4005,4.4005,4.4005,4.3958,4.3388,4.2053,4.1588,4.0799,3.9464,3.916,3.9151,3.9513,3.9604,3.9799,4.0101,4.0158,4.0261,4.0432,4.0476,4.0496,4.0496,4.0496,4.0496,4.0496,4.0496,4.0496,4.0496,4.0496,4.0496,4.0496,4.0496,4.0496,4.0496,4.0496,4.0496,4.0496,4.0496,4.0496,4.0496,4.0496,4.0496,4.0496,4.0496,4.0496,4.0496,4.0496,4.0496,4.0573,4.0854,4.1362,4.1912,4.2508,4.3585,4.4363,4.4008,4.3508,4.3179,4.3512,4.3601,4.3619,4.3547,4.3865,4.4272,4.4678,4.4891,4.5007,4.5007,4.5471,4.5594,4.5065,4.4755,4.4362,4.3788,4.3479,4.3305,4.3305,4.3576,4.3614,4.3305,4.2801,4.2421,4.2195,4.1478,4.1278,4.1601,4.1328,4.1348,4.1601,4.1328,4.1191,0.0,0.0,0.0,3.3269,3.3908,3.4795,3.8095,3.8266,3.7979,3.8883,3.9733,4.0327,4.0346,4.0996,4.1534,4.1534,4.224,4.2797,4.2797,4.3485,4.4005,4.4005,4.4005,4.4005,4.4005,4.4005,4.367,4.2853,4.2016,4.1219,4.0453,3.9542,3.9279,3.9835,4.0031,4.0243,4.054,4.0502,4.0502,4.0502,4.0492,4.0496,4.0496,4.0496,4.0496,4.0496,4.0496,4.0496,4.0496,4.0496,4.0496,4.0496,4.0496,4.0496,4.0496,4.0496,4.0496,4.0496,4.0496,4.0496,4.0496,4.0496,4.0496,4.0496,4.0496,4.0496,4.0496,4.0496,4.0516,4.0746,4.1604,4.3066,4.4297,4.4297,4.4979,4.5594,4.5594,4.4316,4.3437,4.4361,4.455,4.4804,4.5657,4.5807,4.5807,4.5807,4.5807,4.5807,4.5807,4.5807,4.5807,4.5807,4.5104,4.4632,4.4632,4.3866,4.3363,4.3363,4.4175,4.4265,4.3421,4.3422,4.3062,4.2253,4.1538,4.1592,4.2441,4.1601,4.1601,4.2383,4.1562,4.1191,2.859,0.0,0.0,0.0,0.0,0.0,3.4966,3.5777,3.6464,3.7863,3.8386,3.8767,3.9342,3.964,3.9788,3.9788,4.1479,4.2797,4.2797,4.3485,4.4005,4.4005,4.4005,4.4005,4.4005,4.4005,4.367,4.2853,4.2578,4.1905,4.0686,4.0143,4.0207,4.093,4.0585,4.0701,4.1366,4.079,4.0502,4.0502,4.0492,4.0496,4.0496,4.0496,4.0496,4.0496,4.0496,4.0496,4.0496,4.0496,4.0496,4.0496,4.0496,4.0496,4.0496,4.0496,4.0496,4.0496,4.0496,4.0496,4.0496,4.0496,4.0496,4.0496,4.0496,4.0496,4.0496,4.0496,4.095,4.1643,4.2508,4.3528,4.4297,4.4297,4.4979,4.5594,4.5594,4.5248,4.5004,4.5306,4.5383,4.5457,4.5747,4.5807,4.5807,4.5807,4.5807,4.5807,4.5807,4.5807,4.5807,4.5807,4.5594,4.5471,4.5471,4.5239,4.5104,4.5104,4.5336,4.5355,4.5123,4.4666,4.4004,4.3166,4.3046,4.3104,4.334,4.1894,4.1601,4.2383,4.1562,4.1191,2.8905,0.0,0.0,3.0956,0.0,0.0,3.4089,3.4966,3.5827,3.7465,3.8113,3.8544,3.9008,3.9101,3.9212,3.9584,4.0847,4.1924,4.224,4.2983,4.3615,4.3968,4.4005,4.4005,4.4005,4.4005,4.3819,4.3336,4.31,4.2347,4.0928,4.0762,4.0922,4.138,4.0816,4.0899,4.1717,4.0918,4.0495,4.0495,4.05,4.0496,4.0496,4.0496,4.0496,4.0496,4.0496,4.0496,4.0496,4.0496,4.0496,4.0496,4.0496,4.0496,4.0496,4.0496,4.0727,4.0989,4.0631,4.0746,4.0969,4.0631,4.0496,4.0573,4.0931,4.1046,4.1123,4.147,4.2181,4.297,4.347,4.422,4.4836,4.4836,4.5229,4.5594,4.5594,4.5594,4.5612,4.5687,4.5706,4.5719,4.5786,4.5807,4.5807,4.5807,4.5807,4.5807,4.5807,4.5807,4.5807,4.5807,4.5807,4.5807,4.5807,4.5807,4.5807,4.5807,4.5807,4.5807,4.5807,4.5122,4.4518,4.4042,4.3783,4.367,4.3691,4.2715,4.248,4.293,4.2461,4.2246,2.9059,2.9728,0.0,3.2106,3.1935,0.0,3.4263,3.49,3.5465,3.7054,3.8067,3.8716,3.879,3.8901,3.9194,3.9881,4.023,4.0694,4.1479,4.2296,4.3073,4.381,4.3992,4.4048,4.4094,4.4094,4.4094,4.4094,4.3596,4.2731,4.148,4.1512,4.1628,4.1724,4.1119,4.1162,4.1942,4.1085,4.0593,4.0496,4.0496,4.0496,4.0496,4.0496,4.0496,4.0496,4.0496,4.0496,4.0496,4.0496,4.0496,4.0496,4.0496,4.0496,4.0496,4.0496,4.0989,4.1546,4.0766,4.1008,4.1546,4.0854,4.065,4.0804,4.1681,4.1942,4.2124,4.2989,4.3739,4.4316,4.4412,4.5017,4.5594,4.5594,4.5594,4.5594,4.5594,4.5594,4.5622,4.5684,4.5682,4.5703,4.5778,4.58,4.58,4.5807,4.5807,4.5807,4.5807,4.5807,4.5807,4.5807,4.5807,4.5807,4.5807,4.5807,4.5807,4.5807,4.5807,4.5807,4.5807,4.519,4.4831,4.4805,4.4118,4.384,4.3984,4.3887,4.3789,4.3691,4.3691,4.3691,3.0693,3.0967,3.1175,3.1537,3.1525,0.0,3.2034,3.2691,3.3497,3.4537,3.5433,3.6258,3.696,3.7622,3.7914,3.7485,3.9115,4.0694,4.1479,4.2296,4.294,4.3311,4.3938,4.4416,4.4612,4.4637,4.4637,4.4637,4.4106,4.3653,4.3372,4.2985,4.3073,4.3707,4.2992,4.2662,4.2835,4.1989,4.1181,4.0496,4.0496,4.0496,4.0496,4.0496,4.0496,4.0496,4.0496,4.0496,4.0496,4.0496,4.0496,4.0496,4.0496,4.0496,4.0496,4.0496,4.0612,4.0727,4.0554,4.0612,4.0835,4.1373,4.1546,4.172,4.2585,4.2854,4.3028,4.3835,4.4182,4.4451,4.5171,4.5479,4.5594,4.5594,4.5594,4.5594,4.5594,4.5594,4.5594,4.5622,4.5631,4.5654,4.5781,4.5807,4.5788,4.58,4.5807,4.5807,4.5807,4.5807,4.5807,4.5807,4.5807,4.5807,4.5807,4.5807,4.5807,4.5807,4.5807,4.5807,4.5807,4.5813,4.5499,4.4809,4.4748,4.5078,4.5781,4.5098,4.4394,4.3691,4.3691,4.3691,3.1742,3.1827,3.1866,3.1931,3.1957,0.0,0.0,3.2702,3.3582,3.4423,3.5301,3.6019,3.6467,3.6901,3.7349,3.7784,3.8689,3.9744,4.0857,4.2145,4.3091,4.3315,4.4089,4.465,4.4776,4.4788,4.4868,4.4996,4.4707,4.442,4.4125,4.3841,4.3874,4.4297,4.3104,4.2662,4.3104,4.1797,4.0931,4.0496,4.0496,4.0496,4.0496,4.0496,4.0496,4.0496,4.0496,4.0496,4.0496,4.0496,4.0496,4.0496,4.0496,4.0496,4.0554,4.0989,4.1412,4.1797,4.1797,4.2047,4.2393,4.2431,4.245,4.2604,4.3431,4.3989,4.4432,4.4816,4.496,4.5056,4.5498,4.5594,4.5594,4.5594,4.5594,4.5594,4.5594,4.5594,4.5594,4.5594,4.5594,4.5612,4.5679,4.5766,4.5804,4.5795,4.5805,4.5807,4.5807,4.5807,4.5807,4.5807,4.5807,4.5807,4.5807,4.5807,4.5807,4.5807,4.5807,4.5633,4.522,4.5774,4.5936,4.5556,4.5602,4.5859,4.6308,4.5859,4.543,4.5,4.5,4.5,3.285,3.2968,3.3049,3.2967,3.2944,3.288,0.0,0.0,0.0,3.4581,3.5371,3.5979,3.6011,3.6181,3.6702,3.7845,3.8119,3.849,3.9364,4.121,4.261,4.2979,4.3971,4.4656,4.4703,4.4551,4.4698,4.5234,4.4976,4.4729,4.4558,4.4393,4.4297,4.4297,4.2835,4.2316,4.2835,4.145,4.0669,4.0496,4.0496,4.0496,4.0496,4.0496,4.0496,4.0496,4.0496,4.0496,4.0496,4.0496,4.0496,4.0496,4.0496,4.0496,4.0593,4.1296,4.2104,4.2854,4.2854,4.3374,4.3989,4.3489,4.3431,4.3701,4.4355,4.5037,4.5594,4.5594,4.5594,4.5594,4.5594,4.5594,4.5594,4.5594,4.5594,4.5594,4.5594,4.5594,4.5594,4.5594,4.5594,4.5594,4.5622,4.5706,4.5796,4.5804,4.5791,4.5807,4.5807,4.5807,4.5807,4.5807,4.5807,4.5807,4.5807,4.5807,4.5807,4.5807,4.5807,4.551,4.4871,4.5658,4.616,4.6308,4.6308,4.6308,4.6308,4.6308,4.6308,4.6308,4.6308,4.6308,3.4846,3.5241,3.536,3.4688,3.4535,3.4185,3.2825,0.0,3.3574,3.3005,0.0,3.4118,3.4171,0.0,0.0,3.4644,3.6374,3.7416,3.637,3.8308,4.0208,4.1253,4.2944,4.4104,4.4333,4.3709,4.3918,4.5444,4.4175,4.3972,4.5383,4.472,4.4297,4.4297,4.3412,4.2624,4.1942,4.1758,4.1258,4.0496,4.0496,4.0496,4.0496,4.0496,4.0496,4.0496,4.0496,4.0496,4.0496,4.0496,4.0496,4.0496,4.0496,4.0496,4.0516,4.0612,4.12,4.1942,4.1942,4.2508,4.3335,4.3951,4.4682,4.5325,4.5421,4.5518,4.5594,4.5594,4.5594,4.5594,4.5594,4.5594,4.5594,4.5594,4.5594,4.5594,4.5594,4.5594,4.5594,4.5594,4.5594,4.5622,4.5684,4.5695,4.5723,4.58,4.5798,4.5807,4.5807,4.5807,4.5807,4.5807,4.5807,4.5807,4.5807,4.5807,4.5807,4.5807,4.5807,4.5768,4.5671,4.5949,4.616,4.6308,4.6308,4.6308,4.6308,4.6308,4.6308,4.6308,4.6308,4.6308,3.5189,3.5164,3.5084,3.4815,3.439,3.3876,3.3286,3.3392,3.3565,3.3286,0.0,0.0,0.0,0.0,0.0,0.0,3.5712,3.6416,3.6186,3.7302,3.8553,3.9737,4.0979,4.2039,4.278,4.2547,4.3047,4.472,4.3758,4.3835,4.5518,4.5248,4.4816,4.4316,4.3528,4.2681,4.1808,4.1296,4.0854,4.0496,4.0496,4.0496,4.0496,4.0496,4.0496,4.0496,4.0496,4.0496,4.0496,4.0496,4.0496,4.0496,4.0496,4.0496,4.0554,4.1066,4.1816,4.2624,4.3085,4.3816,4.4605,4.494,4.5306,4.5594,4.5594,4.5594,4.5594,4.5594,4.5594,4.5594,4.5594,4.5594,4.5594,4.5594,4.5594,4.5594,4.5594,4.5594,4.5594,4.5594,4.5594,4.5622,4.564,4.5682,4.5703,4.5743,4.5788,4.5798,4.58,4.5807,4.5807,4.5807,4.5807,4.5807,4.5807,4.5807,4.5807,4.5807,4.5355,4.537,4.5944,4.5562,4.5655,4.6289,4.6308,4.6308,4.6308,4.6308,4.6308,4.6308,4.6308,4.6308,3.5205,3.5113,3.5042,3.4855,3.4477,3.404,3.3658,3.3577,3.3646,3.3935,3.3986,0.0,0.0,0.0,3.4632,3.5082,0.0,3.5516,3.5747,3.6074,3.6823,3.8241,3.949,4.0621,4.1703,4.1393,4.1816,4.3489,4.2643,4.2989,4.5133,4.5037,4.472,4.4316,4.3297,4.245,4.1808,4.0931,4.0496,4.0496,4.0496,4.0496,4.0496,4.0496,4.0496,4.0496,4.0496,4.0496,4.0496,4.0496,4.0496,4.0496,4.0496,4.0496,4.0612,4.1489,4.2354,4.322,4.4028,4.4874,4.5594,4.5594,4.5594,4.5594,4.5594,4.5594,4.5594,4.5594,4.5594,4.5594,4.5594,4.5594,4.5594,4.5594,4.5594,4.5594,4.5594,4.5594,4.5594,4.5594,4.5594,4.5594,4.5594,4.5648,4.569,4.5703,4.575,4.5795,4.5805,4.58,4.5807,4.5807,4.5807,4.5807,4.5807,4.5807,4.5807,4.5807,4.5258,4.5271,4.6041,4.5487,4.5511,4.6267,4.6289,4.6308,4.6308,4.6308,4.6308,4.6308,4.6308,4.6308,3.5192,3.5763,3.6148,3.5293,3.5418,3.5346,3.384,3.3491,3.3742,3.4579,3.4758,3.5024,3.5861,3.6022,3.5813,3.5119,3.5018,0.0,0.0,3.3994,3.4747,3.6728,3.8876,4.0621,4.1703,4.0335,4.0085,4.175,4.0354,4.0862,4.4162,4.3605,4.3528,4.4278,4.2701,4.1827,4.1788,4.0931,4.0496,4.0496,4.0496,4.0496,4.0496,4.0496,4.0496,4.0496,4.0496,4.0496,4.0496,4.0496,4.0496,4.0496,4.0496,4.0496,4.0612,4.1489,4.2354,4.322,4.4028,4.4874,4.5594,4.5594,4.5594,4.5594,4.5594,4.5594,4.5594,4.5594,4.5594,4.5594,4.5594,4.5594,4.5594,4.5594,4.5594,4.5594,4.5594,4.5594,4.5594,4.5594,4.5594,4.5594,4.5594,4.5648,4.5701,4.5701,4.5754,4.5807,4.5807,4.5805,4.5807,4.5807,4.5807,4.5807,4.5807,4.5807,4.5807,4.5807,4.5787,4.5835,4.6002,4.6041,4.6095,4.6204,4.6267,4.6308,4.6308,4.6308,4.6308,4.6308,4.6308,4.6308,3.4409,3.4433,3.4464,3.4386,3.4089,3.3748,3.3487,3.3437,3.3687,3.456,3.4739,3.5005,3.5881,3.6069,3.6022,3.5776,3.5325,3.4912,0.0,3.4204,3.4424,3.58,3.6953,3.7832,3.8378,3.8435,3.9123,4.0816,4.0419,4.1324,4.4143,4.4047,4.4028,4.4297,4.3239,4.2374,4.1808,4.0931,4.0496,4.0496,4.0496,4.0496,4.0496,4.0496,4.0496,4.0496,4.0496,4.0496,4.0496,4.0496,4.0496,4.0554,4.1143,4.1354,4.1393,4.1692,4.2354,4.3297,4.4682,4.5344,4.5594,4.5594,4.5594,4.5594,4.5594,4.5594,4.5594,4.5594,4.5594,4.5594,4.5594,4.5594,4.5594,4.5594,4.5594,4.5594,4.5594,4.5594,4.5594,4.5594,4.5594,4.5594,4.5594,4.5622,4.5648,4.5693,4.5711,4.5758,4.5781,4.5798,4.5807,4.5807,4.5807,4.5807,4.5807,4.5807,4.5807,4.5807,4.5807,4.5867,4.5997,4.6018,4.6084,4.6202,4.6213,4.6264,4.6308,4.6308,4.6308,4.6308,4.6308,4.6308,3.3722,3.3536,3.3493,3.4376,3.3908,3.3409,3.4096,3.4027,3.4151,3.5266,3.5517,3.5768,3.6664,3.6854,3.6714,3.619,3.5703,3.5196,0.0,3.4159,3.4157,3.4939,3.5713,3.6404,3.6938,3.7041,3.7908,3.9888,3.9481,4.0392,4.3258,4.3701,4.3989,4.4297,4.3528,4.2835,4.2277,4.1085,4.0496,4.0496,4.0496,4.0496,4.0496,4.0496,4.0496,4.0496,4.0496,4.0496,4.0516,4.0835,4.095,4.1046,4.1931,4.2258,4.2297,4.2585,4.3239,4.4143,4.5229,4.5594,4.5594,4.5594,4.5594,4.5594,4.5594,4.5594,4.5594,4.5594,4.5594,4.5594,4.5594,4.5594,4.5594,4.5594,4.5594,4.5594,4.5594,4.5594,4.5594,4.5594,4.5594,4.5594,4.5594,4.5594,4.5603,4.5657,4.5687,4.5715,4.5765,4.5791,4.5807,4.5807,4.5807,4.5807,4.5807,4.5807,4.5807,4.5807,4.5807,4.5848,4.5935,4.5998,4.6072,4.6158,4.6209,4.6264,4.6308,4.6308,4.6308,4.6308,4.6308,4.6308]}]]